Wetterdaten: Dienstag, 09.10.2018
Datum Zeit Temp. A. Feuchte A. Luftdruck Regen Wind Richtung Richtung Sonnenschein ET UV Solar Taupunkt Windchill Windböen
09.10.2018 00:00 12,4 °C 92 % 1020,4 hPa 0,0 mm 1,7 km/h (1 Bft) W 265 ° 0 min 0,000 mm 0,0 UV-I 0 W/m² 11,1 °C 12,4 °C 3,2 km/h (1 Bft)
09.10.2018 00:01 12,4 °C 92 % 1020,4 hPa 0,0 mm 0,0 km/h (0 Bft) W 265 ° 0 min 0,000 mm 0,0 UV-I 0 W/m² 11,1 °C 12,4 °C 0,0 km/h (0 Bft)
09.10.2018 00:02 12,3 °C 92 % 1020,4 hPa 0,0 mm 1,1 km/h (1 Bft) W 265 ° 0 min 0,000 mm 0,0 UV-I 0 W/m² 11,0 °C 12,3 °C 3,2 km/h (1 Bft)
09.10.2018 00:03 12,4 °C 92 % 1020,4 hPa 0,0 mm 0,0 km/h (0 Bft) W 265 ° 0 min 0,000 mm 0,0 UV-I 0 W/m² 11,1 °C 12,4 °C 0,0 km/h (0 Bft)
09.10.2018 00:04 12,3 °C 92 % 1020,4 hPa 0,0 mm 0,0 km/h (0 Bft) W 265 ° 0 min 0,000 mm 0,0 UV-I 0 W/m² 11,0 °C 12,3 °C 0,0 km/h (0 Bft)
09.10.2018 00:05 12,3 °C 92 % 1020,4 hPa 0,0 mm 0,7 km/h (0 Bft) S 179 ° 0 min 0,000 mm 0,0 UV-I 0 W/m² 11,0 °C 12,3 °C 3,2 km/h (1 Bft)
09.10.2018 00:06 12,3 °C 92 % 1020,3 hPa 0,0 mm 0,9 km/h (0 Bft) S 182 ° 0 min 0,000 mm 0,0 UV-I 0 W/m² 11,0 °C 12,3 °C 4,8 km/h (1 Bft)
09.10.2018 00:07 12,3 °C 92 % 1020,3 hPa 0,0 mm 3,6 km/h (1 Bft) S-SW 201 ° 0 min 0,000 mm 0,0 UV-I 0 W/m² 11,0 °C 12,3 °C 4,8 km/h (1 Bft)
09.10.2018 00:08 12,3 °C 92 % 1020,3 hPa 0,0 mm 0,6 km/h (0 Bft) S-SW 201 ° 0 min 0,000 mm 0,0 UV-I 0 W/m² 11,0 °C 12,3 °C 1,6 km/h (1 Bft)
09.10.2018 00:09 12,3 °C 92 % 1020,4 hPa 0,0 mm 0,3 km/h (0 Bft) S-SW 201 ° 0 min 0,000 mm 0,0 UV-I 0 W/m² 11,0 °C 12,3 °C 1,6 km/h (1 Bft)
09.10.2018 00:10 12,3 °C 92 % 1020,3 hPa 0,0 mm 1,1 km/h (1 Bft) W-SW 258 ° 0 min 0,000 mm 0,0 UV-I 0 W/m² 11,0 °C 12,3 °C 4,8 km/h (1 Bft)
09.10.2018 00:11 12,3 °C 92 % 1020,4 hPa 0,0 mm 3,0 km/h (1 Bft) W-SW 258 ° 0 min 0,000 mm 0,0 UV-I 0 W/m² 11,0 °C 12,3 °C 4,8 km/h (1 Bft)
09.10.2018 00:12 12,3 °C 91 % 1020,3 hPa 0,0 mm 0,6 km/h (0 Bft) W-SW 258 ° 0 min 0,000 mm 0,0 UV-I 0 W/m² 10,9 °C 12,3 °C 1,6 km/h (1 Bft)
09.10.2018 00:13 12,3 °C 91 % 1020,3 hPa 0,0 mm 0,0 km/h (0 Bft) W-SW 258 ° 0 min 0,000 mm 0,0 UV-I 0 W/m² 10,9 °C 12,3 °C 0,0 km/h (0 Bft)
09.10.2018 00:14 12,3 °C 91 % 1020,3 hPa 0,0 mm 0,0 km/h (0 Bft) W-SW 258 ° 0 min 0,000 mm 0,0 UV-I 0 W/m² 10,9 °C 12,3 °C 0,0 km/h (0 Bft)
09.10.2018 00:15 12,3 °C 91 % 1020,4 hPa 0,0 mm 1,1 km/h (1 Bft) SW 217 ° 0 min 0,000 mm 0,0 UV-I 0 W/m² 10,9 °C 12,3 °C 4,8 km/h (1 Bft)
09.10.2018 00:16 12,3 °C 91 % 1020,3 hPa 0,0 mm 1,5 km/h (1 Bft) SW 217 ° 0 min 0,000 mm 0,0 UV-I 0 W/m² 10,9 °C 12,3 °C 3,2 km/h (1 Bft)
09.10.2018 00:17 12,2 °C 91 % 1020,3 hPa 0,0 mm 0,1 km/h (0 Bft) SW 217 ° 0 min 0,000 mm 0,0 UV-I 0 W/m² 10,8 °C 12,2 °C 1,6 km/h (1 Bft)
09.10.2018 00:18 12,2 °C 91 % 1020,4 hPa 0,0 mm 0,3 km/h (0 Bft) SW 218 ° 0 min 0,000 mm 0,0 UV-I 0 W/m² 10,8 °C 12,2 °C 3,2 km/h (1 Bft)
09.10.2018 00:19 12,2 °C 91 % 1020,3 hPa 0,0 mm 1,1 km/h (1 Bft) S-SW 206 ° 0 min 0,000 mm 0,0 UV-I 0 W/m² 10,8 °C 12,2 °C 3,2 km/h (1 Bft)
09.10.2018 00:20 12,2 °C 91 % 1020,4 hPa 0,0 mm 5,8 km/h (2 Bft) S-SW 196 ° 0 min 0,000 mm 0,0 UV-I 0 W/m² 10,8 °C 12,2 °C 8,0 km/h (2 Bft)
09.10.2018 00:21 12,2 °C 91 % 1020,4 hPa 0,0 mm 4,1 km/h (1 Bft) S-SW 206 ° 0 min 0,000 mm 0,0 UV-I 0 W/m² 10,8 °C 12,2 °C 6,4 km/h (2 Bft)
09.10.2018 00:22 12,2 °C 91 % 1020,4 hPa 0,0 mm 2,1 km/h (1 Bft) S-SW 206 ° 0 min 0,000 mm 0,0 UV-I 0 W/m² 10,8 °C 12,2 °C 3,2 km/h (1 Bft)
09.10.2018 00:23 12,2 °C 91 % 1020,4 hPa 0,0 mm 3,6 km/h (1 Bft) S-SW 205 ° 0 min 0,000 mm 0,0 UV-I 0 W/m² 10,8 °C 12,2 °C 6,4 km/h (2 Bft)
09.10.2018 00:24 12,2 °C 91 % 1020,4 hPa 0,0 mm 0,5 km/h (0 Bft) S-SW 205 ° 0 min 0,000 mm 0,0 UV-I 0 W/m² 10,8 °C 12,2 °C 1,6 km/h (1 Bft)
09.10.2018 00:25 12,2 °C 91 % 1020,4 hPa 0,0 mm 1,7 km/h (1 Bft) S-SW 205 ° 0 min 0,000 mm 0,0 UV-I 0 W/m² 10,8 °C 12,2 °C 3,2 km/h (1 Bft)
09.10.2018 00:26 12,2 °C 91 % 1020,4 hPa 0,0 mm 1,1 km/h (1 Bft) S-SW 205 ° 0 min 0,000 mm 0,0 UV-I 0 W/m² 10,8 °C 12,2 °C 3,2 km/h (1 Bft)
09.10.2018 00:27 12,1 °C 91 % 1020,4 hPa 0,0 mm 0,4 km/h (0 Bft) S-SW 205 ° 0 min 0,000 mm 0,0 UV-I 0 W/m² 10,7 °C 12,1 °C 3,2 km/h (1 Bft)
09.10.2018 00:28 12,1 °C 91 % 1020,4 hPa 0,0 mm 1,2 km/h (1 Bft) S-SW 205 ° 0 min 0,000 mm 0,0 UV-I 0 W/m² 10,7 °C 12,1 °C 3,2 km/h (1 Bft)
09.10.2018 00:29 12,1 °C 91 % 1020,4 hPa 0,0 mm 1,3 km/h (1 Bft) S-SW 205 ° 0 min 0,000 mm 0,0 UV-I 0 W/m² 10,7 °C 12,1 °C 4,8 km/h (1 Bft)
09.10.2018 00:30 12,1 °C 91 % 1020,4 hPa 0,0 mm 0,9 km/h (0 Bft) S-SW 205 ° 0 min 0,000 mm 0,0 UV-I 0 W/m² 10,7 °C 12,1 °C 3,2 km/h (1 Bft)
09.10.2018 00:31 12,1 °C 91 % 1020,4 hPa 0,0 mm 0,5 km/h (0 Bft) S-SW 205 ° 0 min 0,000 mm 0,0 UV-I 0 W/m² 10,7 °C 12,1 °C 1,6 km/h (1 Bft)
09.10.2018 00:32 12,1 °C 91 % 1020,4 hPa 0,0 mm 1,4 km/h (1 Bft) S-SW 205 ° 0 min 0,000 mm 0,0 UV-I 0 W/m² 10,7 °C 12,1 °C 3,2 km/h (1 Bft)
09.10.2018 00:33 12,1 °C 91 % 1020,4 hPa 0,0 mm 0,1 km/h (0 Bft) S-SW 205 ° 0 min 0,000 mm 0,0 UV-I 0 W/m² 10,7 °C 12,1 °C 1,6 km/h (1 Bft)
09.10.2018 00:34 12,1 °C 91 % 1020,4 hPa 0,0 mm 0,3 km/h (0 Bft) S-SW 205 ° 0 min 0,000 mm 0,0 UV-I 0 W/m² 10,7 °C 12,1 °C 1,6 km/h (1 Bft)
09.10.2018 00:35 12,1 °C 91 % 1020,4 hPa 0,0 mm 0,0 km/h (0 Bft) S-SW 205 ° 0 min 0,000 mm 0,0 UV-I 0 W/m² 10,7 °C 12,1 °C 0,0 km/h (0 Bft)
09.10.2018 00:36 12,1 °C 91 % 1020,4 hPa 0,0 mm 0,0 km/h (0 Bft) S-SW 205 ° 0 min 0,000 mm 0,0 UV-I 0 W/m² 10,7 °C 12,1 °C 0,0 km/h (0 Bft)
09.10.2018 00:37 12,1 °C 91 % 1020,4 hPa 0,0 mm 0,0 km/h (0 Bft) S-SW 205 ° 0 min 0,000 mm 0,0 UV-I 0 W/m² 10,7 °C 12,1 °C 0,0 km/h (0 Bft)
09.10.2018 00:38 12,1 °C 91 % 1020,4 hPa 0,0 mm 0,0 km/h (0 Bft) S-SW 205 ° 0 min 0,000 mm 0,0 UV-I 0 W/m² 10,7 °C 12,1 °C 0,0 km/h (0 Bft)
09.10.2018 00:39 12,1 °C 91 % 1020,4 hPa 0,0 mm 0,0 km/h (0 Bft) S-SW 205 ° 0 min 0,000 mm 0,0 UV-I 0 W/m² 10,7 °C 12,1 °C 0,0 km/h (0 Bft)
09.10.2018 00:40 12,1 °C 91 % 1020,4 hPa 0,0 mm 0,0 km/h (0 Bft) S-SW 205 ° 0 min 0,000 mm 0,0 UV-I 0 W/m² 10,7 °C 12,1 °C 0,0 km/h (0 Bft)
09.10.2018 00:41 12,1 °C 91 % 1020,4 hPa 0,0 mm 0,0 km/h (0 Bft) S-SW 205 ° 0 min 0,000 mm 0,0 UV-I 0 W/m² 10,7 °C 12,1 °C 0,0 km/h (0 Bft)
09.10.2018 00:42 12,1 °C 92 % 1020,3 hPa 0,0 mm 0,0 km/h (0 Bft) S-SW 205 ° 0 min 0,000 mm 0,0 UV-I 0 W/m² 10,8 °C 12,1 °C 0,0 km/h (0 Bft)
09.10.2018 00:43 12,1 °C 92 % 1020,4 hPa 0,0 mm 0,0 km/h (0 Bft) S-SW 205 ° 0 min 0,000 mm 0,0 UV-I 0 W/m² 10,8 °C 12,1 °C 0,0 km/h (0 Bft)
09.10.2018 00:44 12,1 °C 92 % 1020,4 hPa 0,0 mm 0,0 km/h (0 Bft) S-SW 205 ° 0 min 0,000 mm 0,0 UV-I 0 W/m² 10,8 °C 12,1 °C 0,0 km/h (0 Bft)
09.10.2018 00:45 12,0 °C 92 % 1020,4 hPa 0,0 mm 0,1 km/h (0 Bft) S-SW 205 ° 0 min 0,000 mm 0,0 UV-I 0 W/m² 10,7 °C 12,0 °C 1,6 km/h (1 Bft)
09.10.2018 00:46 12,0 °C 92 % 1020,4 hPa 0,0 mm 0,1 km/h (0 Bft) S-SW 205 ° 0 min 0,000 mm 0,0 UV-I 0 W/m² 10,7 °C 12,0 °C 1,6 km/h (1 Bft)
09.10.2018 00:47 12,0 °C 92 % 1020,4 hPa 0,0 mm 0,0 km/h (0 Bft) S-SW 205 ° 0 min 0,000 mm 0,0 UV-I 0 W/m² 10,7 °C 12,0 °C 0,0 km/h (0 Bft)
09.10.2018 00:48 11,9 °C 92 % 1020,4 hPa 0,0 mm 0,0 km/h (0 Bft) S-SW 205 ° 0 min 0,000 mm 0,0 UV-I 0 W/m² 10,6 °C 11,9 °C 0,0 km/h (0 Bft)
09.10.2018 00:49 12,0 °C 92 % 1020,4 hPa 0,0 mm 0,0 km/h (0 Bft) S-SW 205 ° 0 min 0,000 mm 0,0 UV-I 0 W/m² 10,7 °C 12,0 °C 0,0 km/h (0 Bft)
09.10.2018 00:50 11,9 °C 92 % 1020,4 hPa 0,0 mm 0,0 km/h (0 Bft) S-SW 205 ° 0 min 0,000 mm 0,0 UV-I 0 W/m² 10,6 °C 11,9 °C 0,0 km/h (0 Bft)
09.10.2018 00:51 11,9 °C 92 % 1020,4 hPa 0,0 mm 0,2 km/h (0 Bft) S-SW 205 ° 0 min 0,000 mm 0,0 UV-I 0 W/m² 10,6 °C 11,9 °C 1,6 km/h (1 Bft)
09.10.2018 00:52 11,9 °C 92 % 1020,4 hPa 0,0 mm 0,0 km/h (0 Bft) S-SW 205 ° 0 min 0,000 mm 0,0 UV-I 0 W/m² 10,6 °C 11,9 °C 0,0 km/h (0 Bft)
09.10.2018 00:53 11,9 °C 92 % 1020,4 hPa 0,0 mm 1,5 km/h (1 Bft) S-SW 205 ° 0 min 0,000 mm 0,0 UV-I 0 W/m² 10,6 °C 11,9 °C 3,2 km/h (1 Bft)
09.10.2018 00:54 11,9 °C 92 % 1020,4 hPa 0,0 mm 0,7 km/h (0 Bft) S-SW 205 ° 0 min 0,000 mm 0,0 UV-I 0 W/m² 10,6 °C 11,9 °C 3,2 km/h (1 Bft)
09.10.2018 00:55 11,9 °C 92 % 1020,4 hPa 0,0 mm 0,1 km/h (0 Bft) S-SW 205 ° 0 min 0,000 mm 0,0 UV-I 0 W/m² 10,6 °C 11,9 °C 1,6 km/h (1 Bft)
09.10.2018 00:56 11,9 °C 92 % 1020,4 hPa 0,0 mm 0,0 km/h (0 Bft) S-SW 205 ° 0 min 0,000 mm 0,0 UV-I 0 W/m² 10,6 °C 11,9 °C 0,0 km/h (0 Bft)
09.10.2018 00:57 11,9 °C 92 % 1020,4 hPa 0,0 mm 0,1 km/h (0 Bft) S-SW 205 ° 0 min 0,000 mm 0,0 UV-I 0 W/m² 10,6 °C 11,9 °C 1,6 km/h (1 Bft)
09.10.2018 00:58 11,9 °C 92 % 1020,4 hPa 0,0 mm 0,7 km/h (0 Bft) S-SW 205 ° 0 min 0,000 mm 0,0 UV-I 0 W/m² 10,6 °C 11,9 °C 3,2 km/h (1 Bft)
09.10.2018 00:59 11,9 °C 92 % 1020,4 hPa 0,0 mm 0,0 km/h (0 Bft) S-SW 205 ° 0 min 0,000 mm 0,0 UV-I 0 W/m² 10,6 °C 11,9 °C 0,0 km/h (0 Bft)
09.10.2018 01:00 11,9 °C 92 % 1020,4 hPa 0,0 mm 0,0 km/h (0 Bft) S-SW 205 ° 0 min 0,000 mm 0,0 UV-I 0 W/m² 10,6 °C 11,9 °C 0,0 km/h (0 Bft)
09.10.2018 01:01 11,9 °C 92 % 1020,5 hPa 0,0 mm 0,0 km/h (0 Bft) S-SW 205 ° 0 min 0,000 mm 0,0 UV-I 0 W/m² 10,6 °C 11,9 °C 0,0 km/h (0 Bft)
09.10.2018 01:02 11,9 °C 92 % 1020,5 hPa 0,0 mm 0,7 km/h (0 Bft) S-SW 205 ° 0 min 0,000 mm 0,0 UV-I 0 W/m² 10,6 °C 11,9 °C 1,6 km/h (1 Bft)
09.10.2018 01:03 11,9 °C 92 % 1020,5 hPa 0,0 mm 0,0 km/h (0 Bft) S-SW 205 ° 0 min 0,000 mm 0,0 UV-I 0 W/m² 10,6 °C 11,9 °C 0,0 km/h (0 Bft)
09.10.2018 01:04 11,9 °C 92 % 1020,4 hPa 0,0 mm 0,7 km/h (0 Bft) S-SW 205 ° 0 min 0,000 mm 0,0 UV-I 0 W/m² 10,6 °C 11,9 °C 3,2 km/h (1 Bft)
09.10.2018 01:05 11,9 °C 92 % 1020,4 hPa 0,0 mm 0,8 km/h (0 Bft) S-SW 205 ° 0 min 0,000 mm 0,0 UV-I 0 W/m² 10,6 °C 11,9 °C 3,2 km/h (1 Bft)
09.10.2018 01:06 11,9 °C 92 % 1020,4 hPa 0,0 mm 0,0 km/h (0 Bft) S-SW 205 ° 0 min 0,000 mm 0,0 UV-I 0 W/m² 10,6 °C 11,9 °C 0,0 km/h (0 Bft)
09.10.2018 01:07 11,9 °C 92 % 1020,5 hPa 0,0 mm 0,0 km/h (0 Bft) S-SW 205 ° 0 min 0,000 mm 0,0 UV-I 0 W/m² 10,6 °C 11,9 °C 0,0 km/h (0 Bft)
09.10.2018 01:08 11,9 °C 92 % 1020,5 hPa 0,0 mm 0,0 km/h (0 Bft) S-SW 205 ° 0 min 0,000 mm 0,0 UV-I 0 W/m² 10,6 °C 11,9 °C 0,0 km/h (0 Bft)
09.10.2018 01:09 11,9 °C 92 % 1020,4 hPa 0,0 mm 0,5 km/h (0 Bft) S-SW 205 ° 0 min 0,000 mm 0,0 UV-I 0 W/m² 10,6 °C 11,9 °C 1,6 km/h (1 Bft)
09.10.2018 01:10 11,9 °C 92 % 1020,4 hPa 0,0 mm 3,1 km/h (1 Bft) S-SW 205 ° 0 min 0,000 mm 0,0 UV-I 0 W/m² 10,6 °C 11,9 °C 4,8 km/h (1 Bft)
09.10.2018 01:11 11,9 °C 92 % 1020,5 hPa 0,0 mm 1,4 km/h (1 Bft) S-SW 205 ° 0 min 0,000 mm 0,0 UV-I 0 W/m² 10,6 °C 11,9 °C 3,2 km/h (1 Bft)
09.10.2018 01:12 11,9 °C 92 % 1020,4 hPa 0,0 mm 1,2 km/h (1 Bft) S-SW 205 ° 0 min 0,000 mm 0,0 UV-I 0 W/m² 10,6 °C 11,9 °C 3,2 km/h (1 Bft)
09.10.2018 01:13 11,9 °C 92 % 1020,5 hPa 0,0 mm 0,0 km/h (0 Bft) S-SW 205 ° 0 min 0,000 mm 0,0 UV-I 0 W/m² 10,6 °C 11,9 °C 0,0 km/h (0 Bft)
09.10.2018 01:14 11,9 °C 92 % 1020,5 hPa 0,0 mm 0,0 km/h (0 Bft) S-SW 205 ° 0 min 0,000 mm 0,0 UV-I 0 W/m² 10,6 °C 11,9 °C 0,0 km/h (0 Bft)
09.10.2018 01:15 11,9 °C 92 % 1020,4 hPa 0,0 mm 0,0 km/h (0 Bft) S-SW 205 ° 0 min 0,000 mm 0,0 UV-I 0 W/m² 10,6 °C 11,9 °C 0,0 km/h (0 Bft)
09.10.2018 01:16 11,9 °C 92 % 1020,4 hPa 0,0 mm 0,0 km/h (0 Bft) S-SW 205 ° 0 min 0,000 mm 0,0 UV-I 0 W/m² 10,6 °C 11,9 °C 0,0 km/h (0 Bft)
09.10.2018 01:17 11,9 °C 92 % 1020,5 hPa 0,0 mm 0,0 km/h (0 Bft) S-SW 205 ° 0 min 0,000 mm 0,0 UV-I 0 W/m² 10,6 °C 11,9 °C 0,0 km/h (0 Bft)
09.10.2018 01:18 11,9 °C 92 % 1020,4 hPa 0,0 mm 0,0 km/h (0 Bft) S-SW 205 ° 0 min 0,000 mm 0,0 UV-I 0 W/m² 10,6 °C 11,9 °C 0,0 km/h (0 Bft)
09.10.2018 01:19 11,9 °C 92 % 1020,5 hPa 0,0 mm 0,0 km/h (0 Bft) S-SW 205 ° 0 min 0,000 mm 0,0 UV-I 0 W/m² 10,6 °C 11,9 °C 0,0 km/h (0 Bft)
09.10.2018 01:20 11,9 °C 92 % 1020,4 hPa 0,0 mm 0,0 km/h (0 Bft) S-SW 205 ° 0 min 0,000 mm 0,0 UV-I 0 W/m² 10,6 °C 11,9 °C 0,0 km/h (0 Bft)
09.10.2018 01:21 11,9 °C 92 % 1020,5 hPa 0,0 mm 0,0 km/h (0 Bft) S-SW 205 ° 0 min 0,000 mm 0,0 UV-I 0 W/m² 10,6 °C 11,9 °C 0,0 km/h (0 Bft)
09.10.2018 01:22 11,9 °C 92 % 1020,5 hPa 0,0 mm 0,0 km/h (0 Bft) S-SW 205 ° 0 min 0,000 mm 0,0 UV-I 0 W/m² 10,6 °C 11,9 °C 0,0 km/h (0 Bft)
09.10.2018 01:23 11,9 °C 92 % 1020,5 hPa 0,0 mm 0,0 km/h (0 Bft) S-SW 205 ° 0 min 0,000 mm 0,0 UV-I 0 W/m² 10,6 °C 11,9 °C 0,0 km/h (0 Bft)
09.10.2018 01:24 11,9 °C 92 % 1020,5 hPa 0,0 mm 0,0 km/h (0 Bft) S-SW 205 ° 0 min 0,000 mm 0,0 UV-I 0 W/m² 10,6 °C 11,9 °C 0,0 km/h (0 Bft)
09.10.2018 01:25 11,9 °C 92 % 1020,5 hPa 0,0 mm 0,0 km/h (0 Bft) S-SW 205 ° 0 min 0,000 mm 0,0 UV-I 0 W/m² 10,6 °C 11,9 °C 0,0 km/h (0 Bft)
09.10.2018 01:26 11,9 °C 92 % 1020,5 hPa 0,0 mm 0,0 km/h (0 Bft) S-SW 205 ° 0 min 0,000 mm 0,0 UV-I 0 W/m² 10,6 °C 11,9 °C 0,0 km/h (0 Bft)
09.10.2018 01:27 11,9 °C 92 % 1020,5 hPa 0,0 mm 0,0 km/h (0 Bft) S-SW 205 ° 0 min 0,000 mm 0,0 UV-I 0 W/m² 10,6 °C 11,9 °C 0,0 km/h (0 Bft)
09.10.2018 01:28 11,9 °C 92 % 1020,5 hPa 0,0 mm 0,0 km/h (0 Bft) S-SW 205 ° 0 min 0,000 mm 0,0 UV-I 0 W/m² 10,6 °C 11,9 °C 0,0 km/h (0 Bft)
09.10.2018 01:29 11,9 °C 92 % 1020,5 hPa 0,0 mm 0,0 km/h (0 Bft) S-SW 205 ° 0 min 0,000 mm 0,0 UV-I 0 W/m² 10,6 °C 11,9 °C 0,0 km/h (0 Bft)
09.10.2018 01:30 11,9 °C 92 % 1020,5 hPa 0,0 mm 0,0 km/h (0 Bft) S-SW 205 ° 0 min 0,000 mm 0,0 UV-I 0 W/m² 10,6 °C 11,9 °C 0,0 km/h (0 Bft)
09.10.2018 01:31 11,9 °C 92 % 1020,5 hPa 0,0 mm 0,0 km/h (0 Bft) S-SW 205 ° 0 min 0,000 mm 0,0 UV-I 0 W/m² 10,6 °C 11,9 °C 0,0 km/h (0 Bft)
09.10.2018 01:32 11,9 °C 92 % 1020,5 hPa 0,0 mm 0,0 km/h (0 Bft) S-SW 205 ° 0 min 0,000 mm 0,0 UV-I 0 W/m² 10,6 °C 11,9 °C 0,0 km/h (0 Bft)
09.10.2018 01:33 11,9 °C 92 % 1020,5 hPa 0,0 mm 0,0 km/h (0 Bft) S-SW 205 ° 0 min 0,000 mm 0,0 UV-I 0 W/m² 10,6 °C 11,9 °C 0,0 km/h (0 Bft)
09.10.2018 01:34 11,9 °C 92 % 1020,5 hPa 0,0 mm 0,0 km/h (0 Bft) S-SW 205 ° 0 min 0,000 mm 0,0 UV-I 0 W/m² 10,6 °C 11,9 °C 0,0 km/h (0 Bft)
09.10.2018 01:35 11,9 °C 92 % 1020,5 hPa 0,0 mm 0,0 km/h (0 Bft) S-SW 205 ° 0 min 0,000 mm 0,0 UV-I 0 W/m² 10,6 °C 11,9 °C 0,0 km/h (0 Bft)
09.10.2018 01:36 11,9 °C 92 % 1020,6 hPa 0,0 mm 0,0 km/h (0 Bft) S-SW 205 ° 0 min 0,000 mm 0,0 UV-I 0 W/m² 10,6 °C 11,9 °C 0,0 km/h (0 Bft)
09.10.2018 01:37 11,9 °C 92 % 1020,5 hPa 0,0 mm 0,0 km/h (0 Bft) S-SW 205 ° 0 min 0,000 mm 0,0 UV-I 0 W/m² 10,6 °C 11,9 °C 0,0 km/h (0 Bft)
09.10.2018 01:38 11,9 °C 92 % 1020,5 hPa 0,0 mm 0,0 km/h (0 Bft) S-SW 205 ° 0 min 0,000 mm 0,0 UV-I 0 W/m² 10,6 °C 11,9 °C 0,0 km/h (0 Bft)
09.10.2018 01:39 11,9 °C 92 % 1020,5 hPa 0,0 mm 0,0 km/h (0 Bft) S-SW 205 ° 0 min 0,000 mm 0,0 UV-I 0 W/m² 10,6 °C 11,9 °C 0,0 km/h (0 Bft)
09.10.2018 01:40 11,9 °C 92 % 1020,5 hPa 0,0 mm 1,8 km/h (1 Bft) S-SW 205 ° 0 min 0,000 mm 0,0 UV-I 0 W/m² 10,6 °C 11,9 °C 3,2 km/h (1 Bft)
09.10.2018 01:41 11,9 °C 92 % 1020,5 hPa 0,0 mm 0,1 km/h (0 Bft) S-SW 205 ° 0 min 0,000 mm 0,0 UV-I 0 W/m² 10,6 °C 11,9 °C 1,6 km/h (1 Bft)
09.10.2018 01:42 11,9 °C 92 % 1020,5 hPa 0,0 mm 0,0 km/h (0 Bft) S-SW 205 ° 0 min 0,000 mm 0,0 UV-I 0 W/m² 10,6 °C 11,9 °C 0,0 km/h (0 Bft)
09.10.2018 01:43 11,9 °C 92 % 1020,5 hPa 0,0 mm 0,0 km/h (0 Bft) S-SW 205 ° 0 min 0,000 mm 0,0 UV-I 0 W/m² 10,6 °C 11,9 °C 0,0 km/h (0 Bft)
09.10.2018 01:44 11,9 °C 92 % 1020,5 hPa 0,0 mm 0,0 km/h (0 Bft) S-SW 205 ° 0 min 0,000 mm 0,0 UV-I 0 W/m² 10,6 °C 11,9 °C 0,0 km/h (0 Bft)
09.10.2018 01:45 11,9 °C 92 % 1020,5 hPa 0,0 mm 0,0 km/h (0 Bft) S-SW 205 ° 0 min 0,000 mm 0,0 UV-I 0 W/m² 10,6 °C 11,9 °C 0,0 km/h (0 Bft)
09.10.2018 01:46 11,9 °C 92 % 1020,5 hPa 0,0 mm 0,0 km/h (0 Bft) S-SW 205 ° 0 min 0,000 mm 0,0 UV-I 0 W/m² 10,6 °C 11,9 °C 0,0 km/h (0 Bft)
09.10.2018 01:47 11,9 °C 92 % 1020,5 hPa 0,0 mm 0,0 km/h (0 Bft) S-SW 205 ° 0 min 0,000 mm 0,0 UV-I 0 W/m² 10,6 °C 11,9 °C 0,0 km/h (0 Bft)
09.10.2018 01:48 11,9 °C 92 % 1020,5 hPa 0,0 mm 0,0 km/h (0 Bft) S-SW 205 ° 0 min 0,000 mm 0,0 UV-I 0 W/m² 10,6 °C 11,9 °C 0,0 km/h (0 Bft)
09.10.2018 01:49 11,9 °C 92 % 1020,6 hPa 0,0 mm 0,0 km/h (0 Bft) S-SW 205 ° 0 min 0,000 mm 0,0 UV-I 0 W/m² 10,6 °C 11,9 °C 0,0 km/h (0 Bft)
09.10.2018 01:50 11,9 °C 92 % 1020,5 hPa 0,0 mm 3,0 km/h (1 Bft) S 184 ° 0 min 0,000 mm 0,0 UV-I 0 W/m² 10,6 °C 11,9 °C 4,8 km/h (1 Bft)
09.10.2018 01:51 11,9 °C 92 % 1020,5 hPa 0,0 mm 1,8 km/h (1 Bft) S 184 ° 0 min 0,000 mm 0,0 UV-I 0 W/m² 10,6 °C 11,9 °C 3,2 km/h (1 Bft)
09.10.2018 01:52 11,9 °C 92 % 1020,5 hPa 0,0 mm 0,2 km/h (0 Bft) S 184 ° 0 min 0,000 mm 0,0 UV-I 0 W/m² 10,6 °C 11,9 °C 1,6 km/h (1 Bft)
09.10.2018 01:53 11,8 °C 92 % 1020,5 hPa 0,0 mm 0,0 km/h (0 Bft) S 184 ° 0 min 0,000 mm 0,0 UV-I 0 W/m² 10,5 °C 11,8 °C 0,0 km/h (0 Bft)
09.10.2018 01:54 11,9 °C 92 % 1020,5 hPa 0,0 mm 0,5 km/h (0 Bft) S 184 ° 0 min 0,000 mm 0,0 UV-I 0 W/m² 10,6 °C 11,9 °C 1,6 km/h (1 Bft)
09.10.2018 01:55 11,8 °C 92 % 1020,6 hPa 0,0 mm 1,6 km/h (1 Bft) S 184 ° 0 min 0,000 mm 0,0 UV-I 0 W/m² 10,5 °C 11,8 °C 4,8 km/h (1 Bft)
09.10.2018 01:56 11,8 °C 92 % 1020,5 hPa 0,0 mm 1,9 km/h (1 Bft) S 184 ° 0 min 0,000 mm 0,0 UV-I 0 W/m² 10,5 °C 11,8 °C 4,8 km/h (1 Bft)
09.10.2018 01:57 11,8 °C 92 % 1020,5 hPa 0,0 mm 3,5 km/h (1 Bft) S 184 ° 0 min 0,000 mm 0,0 UV-I 0 W/m² 10,5 °C 11,8 °C 4,8 km/h (1 Bft)
09.10.2018 01:58 11,8 °C 92 % 1020,5 hPa 0,0 mm 2,7 km/h (1 Bft) S 184 ° 0 min 0,000 mm 0,0 UV-I 0 W/m² 10,5 °C 11,8 °C 4,8 km/h (1 Bft)
09.10.2018 01:59 11,8 °C 92 % 1020,5 hPa 0,0 mm 4,8 km/h (1 Bft) S-SW 192 ° 0 min 0,000 mm 0,0 UV-I 0 W/m² 10,5 °C 11,8 °C 6,4 km/h (2 Bft)
09.10.2018 02:00 11,8 °C 92 % 1020,5 hPa 0,0 mm 4,3 km/h (1 Bft) S 189 ° 0 min 0,000 mm 0,0 UV-I 0 W/m² 10,5 °C 11,8 °C 6,4 km/h (2 Bft)
09.10.2018 02:01 11,8 °C 92 % 1020,5 hPa 0,0 mm 2,9 km/h (1 Bft) S 189 ° 0 min 0,000 mm 0,0 UV-I 0 W/m² 10,5 °C 11,8 °C 4,8 km/h (1 Bft)
09.10.2018 02:02 11,8 °C 92 % 1020,5 hPa 0,0 mm 1,7 km/h (1 Bft) S 189 ° 0 min 0,000 mm 0,0 UV-I 0 W/m² 10,5 °C 11,8 °C 3,2 km/h (1 Bft)
09.10.2018 02:03 11,9 °C 92 % 1020,5 hPa 0,0 mm 0,1 km/h (0 Bft) S 189 ° 0 min 0,000 mm 0,0 UV-I 0 W/m² 10,6 °C 11,9 °C 1,6 km/h (1 Bft)
09.10.2018 02:04 11,9 °C 92 % 1020,5 hPa 0,0 mm 0,1 km/h (0 Bft) S 189 ° 0 min 0,000 mm 0,0 UV-I 0 W/m² 10,6 °C 11,9 °C 1,6 km/h (1 Bft)
09.10.2018 02:05 11,9 °C 92 % 1020,5 hPa 0,0 mm 0,1 km/h (0 Bft) S 189 ° 0 min 0,000 mm 0,0 UV-I 0 W/m² 10,6 °C 11,9 °C 1,6 km/h (1 Bft)
09.10.2018 02:06 11,9 °C 92 % 1020,5 hPa 0,0 mm 0,8 km/h (0 Bft) S 189 ° 0 min 0,000 mm 0,0 UV-I 0 W/m² 10,6 °C 11,9 °C 1,6 km/h (1 Bft)
09.10.2018 02:07 11,9 °C 92 % 1020,5 hPa 0,0 mm 0,4 km/h (0 Bft) S 189 ° 0 min 0,000 mm 0,0 UV-I 0 W/m² 10,6 °C 11,9 °C 1,6 km/h (1 Bft)
09.10.2018 02:08 11,9 °C 92 % 1020,5 hPa 0,0 mm 3,0 km/h (1 Bft) S 189 ° 0 min 0,000 mm 0,0 UV-I 0 W/m² 10,6 °C 11,9 °C 4,8 km/h (1 Bft)
09.10.2018 02:09 11,9 °C 92 % 1020,4 hPa 0,0 mm 1,6 km/h (1 Bft) S 188 ° 0 min 0,000 mm 0,0 UV-I 0 W/m² 10,6 °C 11,9 °C 3,2 km/h (1 Bft)
09.10.2018 02:10 11,9 °C 92 % 1020,4 hPa 0,0 mm 1,7 km/h (1 Bft) S 188 ° 0 min 0,000 mm 0,0 UV-I 0 W/m² 10,6 °C 11,9 °C 3,2 km/h (1 Bft)
09.10.2018 02:11 11,9 °C 92 % 1020,4 hPa 0,0 mm 0,0 km/h (0 Bft) S 188 ° 0 min 0,000 mm 0,0 UV-I 0 W/m² 10,6 °C 11,9 °C 0,0 km/h (0 Bft)
09.10.2018 02:12 11,9 °C 92 % 1020,4 hPa 0,0 mm 0,0 km/h (0 Bft) S 188 ° 0 min 0,000 mm 0,0 UV-I 0 W/m² 10,6 °C 11,9 °C 0,0 km/h (0 Bft)
09.10.2018 02:13 11,9 °C 92 % 1020,4 hPa 0,0 mm 0,0 km/h (0 Bft) S 188 ° 0 min 0,000 mm 0,0 UV-I 0 W/m² 10,6 °C 11,9 °C 0,0 km/h (0 Bft)
09.10.2018 02:14 11,9 °C 92 % 1020,4 hPa 0,0 mm 0,0 km/h (0 Bft) S 188 ° 0 min 0,000 mm 0,0 UV-I 0 W/m² 10,6 °C 11,9 °C 0,0 km/h (0 Bft)
09.10.2018 02:15 11,8 °C 92 % 1020,4 hPa 0,0 mm 0,0 km/h (0 Bft) S 188 ° 0 min 0,000 mm 0,0 UV-I 0 W/m² 10,5 °C 11,8 °C 0,0 km/h (0 Bft)
09.10.2018 02:16 11,8 °C 92 % 1020,4 hPa 0,0 mm 0,0 km/h (0 Bft) S 188 ° 0 min 0,000 mm 0,0 UV-I 0 W/m² 10,5 °C 11,8 °C 0,0 km/h (0 Bft)
09.10.2018 02:17 11,8 °C 92 % 1020,4 hPa 0,0 mm 0,0 km/h (0 Bft) S 188 ° 0 min 0,000 mm 0,0 UV-I 0 W/m² 10,5 °C 11,8 °C 0,0 km/h (0 Bft)
09.10.2018 02:18 11,8 °C 92 % 1020,4 hPa 0,0 mm 0,0 km/h (0 Bft) S 188 ° 0 min 0,000 mm 0,0 UV-I 0 W/m² 10,5 °C 11,8 °C 0,0 km/h (0 Bft)
09.10.2018 02:19 11,8 °C 92 % 1020,4 hPa 0,0 mm 0,7 km/h (0 Bft) S 188 ° 0 min 0,000 mm 0,0 UV-I 0 W/m² 10,5 °C 11,8 °C 1,6 km/h (1 Bft)
09.10.2018 02:20 11,8 °C 92 % 1020,4 hPa 0,0 mm 0,3 km/h (0 Bft) S 188 ° 0 min 0,000 mm 0,0 UV-I 0 W/m² 10,5 °C 11,8 °C 1,6 km/h (1 Bft)
09.10.2018 02:21 11,8 °C 92 % 1020,4 hPa 0,0 mm 2,0 km/h (1 Bft) S 188 ° 0 min 0,000 mm 0,0 UV-I 0 W/m² 10,5 °C 11,8 °C 3,2 km/h (1 Bft)
09.10.2018 02:22 11,8 °C 92 % 1020,4 hPa 0,0 mm 0,2 km/h (0 Bft) S 188 ° 0 min 0,000 mm 0,0 UV-I 0 W/m² 10,5 °C 11,8 °C 1,6 km/h (1 Bft)
09.10.2018 02:23 11,8 °C 92 % 1020,4 hPa 0,0 mm 0,0 km/h (0 Bft) S 188 ° 0 min 0,000 mm 0,0 UV-I 0 W/m² 10,5 °C 11,8 °C 0,0 km/h (0 Bft)
09.10.2018 02:24 11,8 °C 92 % 1020,4 hPa 0,0 mm 0,0 km/h (0 Bft) S 188 ° 0 min 0,000 mm 0,0 UV-I 0 W/m² 10,5 °C 11,8 °C 0,0 km/h (0 Bft)
09.10.2018 02:25 11,8 °C 92 % 1020,4 hPa 0,0 mm 0,0 km/h (0 Bft) S 188 ° 0 min 0,000 mm 0,0 UV-I 0 W/m² 10,5 °C 11,8 °C 0,0 km/h (0 Bft)
09.10.2018 02:26 11,8 °C 92 % 1020,4 hPa 0,0 mm 0,0 km/h (0 Bft) S 188 ° 0 min 0,000 mm 0,0 UV-I 0 W/m² 10,5 °C 11,8 °C 0,0 km/h (0 Bft)
09.10.2018 02:27 11,8 °C 92 % 1020,4 hPa 0,0 mm 0,0 km/h (0 Bft) S 188 ° 0 min 0,000 mm 0,0 UV-I 0 W/m² 10,5 °C 11,8 °C 0,0 km/h (0 Bft)
09.10.2018 02:28 11,8 °C 92 % 1020,4 hPa 0,0 mm 0,5 km/h (0 Bft) S 188 ° 0 min 0,000 mm 0,0 UV-I 0 W/m² 10,5 °C 11,8 °C 1,6 km/h (1 Bft)
09.10.2018 02:29 11,8 °C 92 % 1020,4 hPa 0,0 mm 0,3 km/h (0 Bft) S 188 ° 0 min 0,000 mm 0,0 UV-I 0 W/m² 10,5 °C 11,8 °C 1,6 km/h (1 Bft)
09.10.2018 02:30 11,8 °C 92 % 1020,4 hPa 0,0 mm 2,7 km/h (1 Bft) S 188 ° 0 min 0,000 mm 0,0 UV-I 0 W/m² 10,5 °C 11,8 °C 6,4 km/h (2 Bft)
09.10.2018 02:31 11,8 °C 92 % 1020,4 hPa 0,0 mm 3,5 km/h (1 Bft) S 188 ° 0 min 0,000 mm 0,0 UV-I 0 W/m² 10,5 °C 11,8 °C 6,4 km/h (2 Bft)
09.10.2018 02:32 11,8 °C 92 % 1020,4 hPa 0,0 mm 0,0 km/h (0 Bft) S 188 ° 0 min 0,000 mm 0,0 UV-I 0 W/m² 10,5 °C 11,8 °C 0,0 km/h (0 Bft)
09.10.2018 02:33 11,8 °C 92 % 1020,4 hPa 0,0 mm 0,0 km/h (0 Bft) S 188 ° 0 min 0,000 mm 0,0 UV-I 0 W/m² 10,5 °C 11,8 °C 0,0 km/h (0 Bft)
09.10.2018 02:34 11,8 °C 92 % 1020,4 hPa 0,0 mm 0,1 km/h (0 Bft) S 188 ° 0 min 0,000 mm 0,0 UV-I 0 W/m² 10,5 °C 11,8 °C 1,6 km/h (1 Bft)
09.10.2018 02:35 11,8 °C 92 % 1020,5 hPa 0,0 mm 2,9 km/h (1 Bft) SW 214 ° 0 min 0,000 mm 0,0 UV-I 0 W/m² 10,5 °C 11,8 °C 4,8 km/h (1 Bft)
09.10.2018 02:36 11,8 °C 92 % 1020,5 hPa 0,0 mm 2,0 km/h (1 Bft) W-NW 288 ° 0 min 0,000 mm 0,0 UV-I 0 W/m² 10,5 °C 11,8 °C 4,8 km/h (1 Bft)
09.10.2018 02:37 11,8 °C 92 % 1020,5 hPa 0,0 mm 4,0 km/h (1 Bft) W-NW 287 ° 0 min 0,000 mm 0,0 UV-I 0 W/m² 10,5 °C 11,8 °C 4,8 km/h (1 Bft)
09.10.2018 02:38 11,8 °C 92 % 1020,5 hPa 0,0 mm 1,9 km/h (1 Bft) W-NW 287 ° 0 min 0,000 mm 0,0 UV-I 0 W/m² 10,5 °C 11,8 °C 3,2 km/h (1 Bft)
09.10.2018 02:39 11,8 °C 92 % 1020,4 hPa 0,0 mm 0,3 km/h (0 Bft) W-NW 287 ° 0 min 0,000 mm 0,0 UV-I 0 W/m² 10,5 °C 11,8 °C 1,6 km/h (1 Bft)
09.10.2018 02:40 11,8 °C 92 % 1020,5 hPa 0,0 mm 1,2 km/h (1 Bft) W-SW 241 ° 0 min 0,000 mm 0,0 UV-I 0 W/m² 10,5 °C 11,8 °C 3,2 km/h (1 Bft)
09.10.2018 02:41 11,8 °C 92 % 1020,5 hPa 0,0 mm 2,5 km/h (1 Bft) W-SW 241 ° 0 min 0,000 mm 0,0 UV-I 0 W/m² 10,5 °C 11,8 °C 4,8 km/h (1 Bft)
09.10.2018 02:42 11,8 °C 91 % 1020,5 hPa 0,0 mm 0,0 km/h (0 Bft) W-SW 241 ° 0 min 0,000 mm 0,0 UV-I 0 W/m² 10,4 °C 11,8 °C 0,0 km/h (0 Bft)
09.10.2018 02:43 11,8 °C 92 % 1020,5 hPa 0,0 mm 0,0 km/h (0 Bft) W-SW 241 ° 0 min 0,000 mm 0,0 UV-I 0 W/m² 10,5 °C 11,8 °C 0,0 km/h (0 Bft)
09.10.2018 02:44 11,8 °C 91 % 1020,4 hPa 0,0 mm 0,0 km/h (0 Bft) W-SW 241 ° 0 min 0,000 mm 0,0 UV-I 0 W/m² 10,4 °C 11,8 °C 0,0 km/h (0 Bft)
09.10.2018 02:45 11,8 °C 91 % 1020,5 hPa 0,0 mm 0,5 km/h (0 Bft) W-SW 241 ° 0 min 0,000 mm 0,0 UV-I 0 W/m² 10,4 °C 11,8 °C 1,6 km/h (1 Bft)
09.10.2018 02:46 11,8 °C 91 % 1020,5 hPa 0,0 mm 0,0 km/h (0 Bft) W-SW 241 ° 0 min 0,000 mm 0,0 UV-I 0 W/m² 10,4 °C 11,8 °C 0,0 km/h (0 Bft)
09.10.2018 02:47 11,8 °C 91 % 1020,5 hPa 0,0 mm 0,0 km/h (0 Bft) W-SW 241 ° 0 min 0,000 mm 0,0 UV-I 0 W/m² 10,4 °C 11,8 °C 0,0 km/h (0 Bft)
09.10.2018 02:48 11,8 °C 91 % 1020,5 hPa 0,0 mm 0,0 km/h (0 Bft) W-SW 241 ° 0 min 0,000 mm 0,0 UV-I 0 W/m² 10,4 °C 11,8 °C 0,0 km/h (0 Bft)
09.10.2018 02:49 11,8 °C 91 % 1020,5 hPa 0,0 mm 0,0 km/h (0 Bft) W-SW 241 ° 0 min 0,000 mm 0,0 UV-I 0 W/m² 10,4 °C 11,8 °C 0,0 km/h (0 Bft)
09.10.2018 02:50 11,8 °C 92 % 1020,5 hPa 0,0 mm 0,0 km/h (0 Bft) W-SW 241 ° 0 min 0,000 mm 0,0 UV-I 0 W/m² 10,5 °C 11,8 °C 0,0 km/h (0 Bft)
09.10.2018 02:51 11,8 °C 91 % 1020,5 hPa 0,0 mm 0,0 km/h (0 Bft) W-SW 241 ° 0 min 0,000 mm 0,0 UV-I 0 W/m² 10,4 °C 11,8 °C 0,0 km/h (0 Bft)
09.10.2018 02:52 11,8 °C 91 % 1020,5 hPa 0,0 mm 0,0 km/h (0 Bft) W-SW 241 ° 0 min 0,000 mm 0,0 UV-I 0 W/m² 10,4 °C 11,8 °C 0,0 km/h (0 Bft)
09.10.2018 02:53 11,8 °C 91 % 1020,5 hPa 0,0 mm 0,0 km/h (0 Bft) W-SW 241 ° 0 min 0,000 mm 0,0 UV-I 0 W/m² 10,4 °C 11,8 °C 0,0 km/h (0 Bft)
09.10.2018 02:54 11,8 °C 91 % 1020,4 hPa 0,0 mm 0,0 km/h (0 Bft) W-SW 241 ° 0 min 0,000 mm 0,0 UV-I 0 W/m² 10,4 °C 11,8 °C 0,0 km/h (0 Bft)
09.10.2018 02:55 11,8 °C 92 % 1020,4 hPa 0,0 mm 0,0 km/h (0 Bft) W-SW 241 ° 0 min 0,000 mm 0,0 UV-I 0 W/m² 10,5 °C 11,8 °C 0,0 km/h (0 Bft)
09.10.2018 02:56 11,8 °C 92 % 1020,4 hPa 0,0 mm 0,0 km/h (0 Bft) W-SW 241 ° 0 min 0,000 mm 0,0 UV-I 0 W/m² 10,5 °C 11,8 °C 0,0 km/h (0 Bft)
09.10.2018 02:57 11,8 °C 92 % 1020,4 hPa 0,0 mm 0,0 km/h (0 Bft) W-SW 241 ° 0 min 0,000 mm 0,0 UV-I 0 W/m² 10,5 °C 11,8 °C 0,0 km/h (0 Bft)
09.10.2018 02:58 11,8 °C 92 % 1020,4 hPa 0,0 mm 0,0 km/h (0 Bft) W-SW 241 ° 0 min 0,000 mm 0,0 UV-I 0 W/m² 10,5 °C 11,8 °C 0,0 km/h (0 Bft)
09.10.2018 02:59 11,8 °C 92 % 1020,4 hPa 0,0 mm 0,0 km/h (0 Bft) W-SW 241 ° 0 min 0,000 mm 0,0 UV-I 0 W/m² 10,5 °C 11,8 °C 0,0 km/h (0 Bft)
09.10.2018 03:00 11,8 °C 92 % 1020,4 hPa 0,0 mm 0,0 km/h (0 Bft) SW 224 ° 0 min 0,000 mm 0,0 UV-I 0 W/m² 10,5 °C 11,8 °C 0,0 km/h (0 Bft)
09.10.2018 03:01 11,8 °C 91 % 1020,3 hPa 0,0 mm 2,5 km/h (1 Bft) S-SO 166 ° 0 min 0,000 mm 0,0 UV-I 0 W/m² 10,4 °C 11,8 °C 6,4 km/h (2 Bft)
09.10.2018 03:02 11,8 °C 91 % 1020,4 hPa 0,0 mm 2,0 km/h (1 Bft) S-SO 167 ° 0 min 0,000 mm 0,0 UV-I 0 W/m² 10,4 °C 11,8 °C 4,8 km/h (1 Bft)
09.10.2018 03:03 11,8 °C 91 % 1020,4 hPa 0,0 mm 2,8 km/h (1 Bft) S-SO 167 ° 0 min 0,000 mm 0,0 UV-I 0 W/m² 10,4 °C 11,8 °C 6,4 km/h (2 Bft)
09.10.2018 03:04 11,8 °C 91 % 1020,4 hPa 0,0 mm 5,5 km/h (1 Bft) S 184 ° 0 min 0,000 mm 0,0 UV-I 0 W/m² 10,4 °C 11,8 °C 6,4 km/h (2 Bft)
09.10.2018 03:05 11,8 °C 91 % 1020,4 hPa 0,0 mm 3,9 km/h (1 Bft) S 184 ° 0 min 0,000 mm 0,0 UV-I 0 W/m² 10,4 °C 11,8 °C 4,8 km/h (1 Bft)
09.10.2018 03:06 11,8 °C 91 % 1020,4 hPa 0,0 mm 2,3 km/h (1 Bft) S 184 ° 0 min 0,000 mm 0,0 UV-I 0 W/m² 10,4 °C 11,8 °C 4,8 km/h (1 Bft)
09.10.2018 03:07 11,8 °C 91 % 1020,3 hPa 0,0 mm 0,3 km/h (0 Bft) S 184 ° 0 min 0,000 mm 0,0 UV-I 0 W/m² 10,4 °C 11,8 °C 1,6 km/h (1 Bft)
09.10.2018 03:08 11,8 °C 91 % 1020,3 hPa 0,0 mm 0,2 km/h (0 Bft) S 184 ° 0 min 0,000 mm 0,0 UV-I 0 W/m² 10,4 °C 11,8 °C 1,6 km/h (1 Bft)
09.10.2018 03:09 11,8 °C 91 % 1020,3 hPa 0,0 mm 0,3 km/h (0 Bft) S 184 ° 0 min 0,000 mm 0,0 UV-I 0 W/m² 10,4 °C 11,8 °C 1,6 km/h (1 Bft)
09.10.2018 03:10 11,8 °C 91 % 1020,3 hPa 0,0 mm 0,0 km/h (0 Bft) S 184 ° 0 min 0,000 mm 0,0 UV-I 0 W/m² 10,4 °C 11,8 °C 0,0 km/h (0 Bft)
09.10.2018 03:11 11,8 °C 91 % 1020,3 hPa 0,0 mm 2,1 km/h (1 Bft) S 184 ° 0 min 0,000 mm 0,0 UV-I 0 W/m² 10,4 °C 11,8 °C 3,2 km/h (1 Bft)
09.10.2018 03:12 11,8 °C 92 % 1020,3 hPa 0,0 mm 0,8 km/h (0 Bft) S 184 ° 0 min 0,000 mm 0,0 UV-I 0 W/m² 10,5 °C 11,8 °C 1,6 km/h (1 Bft)
09.10.2018 03:13 11,8 °C 92 % 1020,3 hPa 0,0 mm 0,1 km/h (0 Bft) S 184 ° 0 min 0,000 mm 0,0 UV-I 0 W/m² 10,5 °C 11,8 °C 1,6 km/h (1 Bft)
09.10.2018 03:14 11,7 °C 92 % 1020,3 hPa 0,0 mm 0,0 km/h (0 Bft) S 184 ° 0 min 0,000 mm 0,0 UV-I 0 W/m² 10,4 °C 11,7 °C 0,0 km/h (0 Bft)
09.10.2018 03:15 11,7 °C 92 % 1020,3 hPa 0,0 mm 0,0 km/h (0 Bft) S 184 ° 0 min 0,000 mm 0,0 UV-I 0 W/m² 10,4 °C 11,7 °C 0,0 km/h (0 Bft)
09.10.2018 03:16 11,7 °C 92 % 1020,3 hPa 0,0 mm 0,0 km/h (0 Bft) S 184 ° 0 min 0,000 mm 0,0 UV-I 0 W/m² 10,4 °C 11,7 °C 0,0 km/h (0 Bft)
09.10.2018 03:17 11,7 °C 92 % 1020,3 hPa 0,0 mm 0,0 km/h (0 Bft) S 184 ° 0 min 0,000 mm 0,0 UV-I 0 W/m² 10,4 °C 11,7 °C 0,0 km/h (0 Bft)
09.10.2018 03:18 11,7 °C 92 % 1020,3 hPa 0,0 mm 0,0 km/h (0 Bft) S 184 ° 0 min 0,000 mm 0,0 UV-I 0 W/m² 10,4 °C 11,7 °C 0,0 km/h (0 Bft)
09.10.2018 03:19 11,7 °C 92 % 1020,3 hPa 0,0 mm 0,0 km/h (0 Bft) S 184 ° 0 min 0,000 mm 0,0 UV-I 0 W/m² 10,4 °C 11,7 °C 0,0 km/h (0 Bft)
09.10.2018 03:20 11,7 °C 92 % 1020,3 hPa 0,0 mm 0,0 km/h (0 Bft) S 184 ° 0 min 0,000 mm 0,0 UV-I 0 W/m² 10,4 °C 11,7 °C 0,0 km/h (0 Bft)
09.10.2018 03:21 11,7 °C 92 % 1020,3 hPa 0,0 mm 0,0 km/h (0 Bft) S 184 ° 0 min 0,000 mm 0,0 UV-I 0 W/m² 10,4 °C 11,7 °C 0,0 km/h (0 Bft)
09.10.2018 03:22 11,7 °C 92 % 1020,4 hPa 0,0 mm 0,0 km/h (0 Bft) S 184 ° 0 min 0,000 mm 0,0 UV-I 0 W/m² 10,4 °C 11,7 °C 0,0 km/h (0 Bft)
09.10.2018 03:23 11,7 °C 92 % 1020,3 hPa 0,0 mm 0,0 km/h (0 Bft) S 184 ° 0 min 0,000 mm 0,0 UV-I 0 W/m² 10,4 °C 11,7 °C 0,0 km/h (0 Bft)
09.10.2018 03:24 11,7 °C 92 % 1020,3 hPa 0,0 mm 0,0 km/h (0 Bft) S 184 ° 0 min 0,000 mm 0,0 UV-I 0 W/m² 10,4 °C 11,7 °C 0,0 km/h (0 Bft)
09.10.2018 03:25 11,7 °C 92 % 1020,3 hPa 0,0 mm 0,0 km/h (0 Bft) S 184 ° 0 min 0,000 mm 0,0 UV-I 0 W/m² 10,4 °C 11,7 °C 0,0 km/h (0 Bft)
09.10.2018 03:26 11,7 °C 92 % 1020,3 hPa 0,0 mm 0,0 km/h (0 Bft) S 184 ° 0 min 0,000 mm 0,0 UV-I 0 W/m² 10,4 °C 11,7 °C 0,0 km/h (0 Bft)
09.10.2018 03:27 11,7 °C 92 % 1020,3 hPa 0,0 mm 0,0 km/h (0 Bft) S 184 ° 0 min 0,000 mm 0,0 UV-I 0 W/m² 10,4 °C 11,7 °C 0,0 km/h (0 Bft)
09.10.2018 03:28 11,7 °C 92 % 1020,3 hPa 0,0 mm 0,0 km/h (0 Bft) S 184 ° 0 min 0,000 mm 0,0 UV-I 0 W/m² 10,4 °C 11,7 °C 0,0 km/h (0 Bft)
09.10.2018 03:29 11,7 °C 92 % 1020,3 hPa 0,0 mm 0,0 km/h (0 Bft) S 184 ° 0 min 0,000 mm 0,0 UV-I 0 W/m² 10,4 °C 11,7 °C 0,0 km/h (0 Bft)
09.10.2018 03:30 11,7 °C 92 % 1020,3 hPa 0,0 mm 0,0 km/h (0 Bft) S 184 ° 0 min 0,000 mm 0,0 UV-I 0 W/m² 10,4 °C 11,7 °C 0,0 km/h (0 Bft)
09.10.2018 03:31 11,7 °C 92 % 1020,3 hPa 0,0 mm 0,0 km/h (0 Bft) S 184 ° 0 min 0,000 mm 0,0 UV-I 0 W/m² 10,4 °C 11,7 °C 0,0 km/h (0 Bft)
09.10.2018 03:32 11,6 °C 92 % 1020,3 hPa 0,0 mm 0,0 km/h (0 Bft) S 184 ° 0 min 0,000 mm 0,0 UV-I 0 W/m² 10,3 °C 11,6 °C 0,0 km/h (0 Bft)
09.10.2018 03:33 11,7 °C 92 % 1020,3 hPa 0,0 mm 0,0 km/h (0 Bft) S 184 ° 0 min 0,000 mm 0,0 UV-I 0 W/m² 10,4 °C 11,7 °C 0,0 km/h (0 Bft)
09.10.2018 03:34 11,6 °C 92 % 1020,3 hPa 0,0 mm 0,0 km/h (0 Bft) S 184 ° 0 min 0,000 mm 0,0 UV-I 0 W/m² 10,3 °C 11,6 °C 0,0 km/h (0 Bft)
09.10.2018 03:35 11,7 °C 92 % 1020,4 hPa 0,0 mm 0,0 km/h (0 Bft) S 184 ° 0 min 0,000 mm 0,0 UV-I 0 W/m² 10,4 °C 11,7 °C 0,0 km/h (0 Bft)
09.10.2018 03:36 11,6 °C 92 % 1020,4 hPa 0,0 mm 0,0 km/h (0 Bft) S 184 ° 0 min 0,000 mm 0,0 UV-I 0 W/m² 10,3 °C 11,6 °C 0,0 km/h (0 Bft)
09.10.2018 03:37 11,6 °C 92 % 1020,4 hPa 0,0 mm 0,1 km/h (0 Bft) S 184 ° 0 min 0,000 mm 0,0 UV-I 0 W/m² 10,3 °C 11,6 °C 1,6 km/h (1 Bft)
09.10.2018 03:38 11,6 °C 92 % 1020,4 hPa 0,0 mm 0,0 km/h (0 Bft) S 184 ° 0 min 0,000 mm 0,0 UV-I 0 W/m² 10,3 °C 11,6 °C 0,0 km/h (0 Bft)
09.10.2018 03:39 11,6 °C 92 % 1020,4 hPa 0,0 mm 0,0 km/h (0 Bft) S 184 ° 0 min 0,000 mm 0,0 UV-I 0 W/m² 10,3 °C 11,6 °C 0,0 km/h (0 Bft)
09.10.2018 03:40 11,6 °C 92 % 1020,3 hPa 0,0 mm 0,0 km/h (0 Bft) S 184 ° 0 min 0,000 mm 0,0 UV-I 0 W/m² 10,3 °C 11,6 °C 0,0 km/h (0 Bft)
09.10.2018 03:41 11,6 °C 92 % 1020,4 hPa 0,0 mm 0,0 km/h (0 Bft) S 184 ° 0 min 0,000 mm 0,0 UV-I 0 W/m² 10,3 °C 11,6 °C 0,0 km/h (0 Bft)
09.10.2018 03:42 11,6 °C 92 % 1020,4 hPa 0,0 mm 0,0 km/h (0 Bft) S 184 ° 0 min 0,000 mm 0,0 UV-I 0 W/m² 10,3 °C 11,6 °C 0,0 km/h (0 Bft)
09.10.2018 03:43 11,6 °C 92 % 1020,4 hPa 0,0 mm 0,0 km/h (0 Bft) S 184 ° 0 min 0,000 mm 0,0 UV-I 0 W/m² 10,3 °C 11,6 °C 0,0 km/h (0 Bft)
09.10.2018 03:44 11,6 °C 92 % 1020,4 hPa 0,0 mm 0,0 km/h (0 Bft) S 184 ° 0 min 0,000 mm 0,0 UV-I 0 W/m² 10,3 °C 11,6 °C 0,0 km/h (0 Bft)
09.10.2018 03:45 11,6 °C 92 % 1020,3 hPa 0,0 mm 0,0 km/h (0 Bft) S 184 ° 0 min 0,000 mm 0,0 UV-I 0 W/m² 10,3 °C 11,6 °C 0,0 km/h (0 Bft)
09.10.2018 03:46 11,6 °C 92 % 1020,3 hPa 0,0 mm 0,0 km/h (0 Bft) S 184 ° 0 min 0,000 mm 0,0 UV-I 0 W/m² 10,3 °C 11,6 °C 0,0 km/h (0 Bft)
09.10.2018 03:47 11,6 °C 92 % 1020,3 hPa 0,0 mm 0,0 km/h (0 Bft) S 184 ° 0 min 0,000 mm 0,0 UV-I 0 W/m² 10,3 °C 11,6 °C 0,0 km/h (0 Bft)
09.10.2018 03:48 11,6 °C 92 % 1020,3 hPa 0,0 mm 0,0 km/h (0 Bft) S 184 ° 0 min 0,000 mm 0,0 UV-I 0 W/m² 10,3 °C 11,6 °C 0,0 km/h (0 Bft)
09.10.2018 03:49 11,6 °C 92 % 1020,3 hPa 0,0 mm 0,0 km/h (0 Bft) S 184 ° 0 min 0,000 mm 0,0 UV-I 0 W/m² 10,3 °C 11,6 °C 0,0 km/h (0 Bft)
09.10.2018 03:50 11,6 °C 92 % 1020,3 hPa 0,0 mm 0,0 km/h (0 Bft) S 184 ° 0 min 0,000 mm 0,0 UV-I 0 W/m² 10,3 °C 11,6 °C 0,0 km/h (0 Bft)
09.10.2018 03:51 11,6 °C 92 % 1020,3 hPa 0,0 mm 0,0 km/h (0 Bft) S 184 ° 0 min 0,000 mm 0,0 UV-I 0 W/m² 10,3 °C 11,6 °C 0,0 km/h (0 Bft)
09.10.2018 03:52 11,6 °C 92 % 1020,3 hPa 0,0 mm 0,0 km/h (0 Bft) S 184 ° 0 min 0,000 mm 0,0 UV-I 0 W/m² 10,3 °C 11,6 °C 0,0 km/h (0 Bft)
09.10.2018 03:53 11,6 °C 92 % 1020,3 hPa 0,0 mm 0,0 km/h (0 Bft) S 184 ° 0 min 0,000 mm 0,0 UV-I 0 W/m² 10,3 °C 11,6 °C 0,0 km/h (0 Bft)
09.10.2018 03:54 11,6 °C 92 % 1020,3 hPa 0,0 mm 0,0 km/h (0 Bft) S 184 ° 0 min 0,000 mm 0,0 UV-I 0 W/m² 10,3 °C 11,6 °C 0,0 km/h (0 Bft)
09.10.2018 03:55 11,6 °C 92 % 1020,3 hPa 0,0 mm 0,0 km/h (0 Bft) S 184 ° 0 min 0,000 mm 0,0 UV-I 0 W/m² 10,3 °C 11,6 °C 0,0 km/h (0 Bft)
09.10.2018 03:56 11,6 °C 92 % 1020,2 hPa 0,0 mm 0,0 km/h (0 Bft) S 184 ° 0 min 0,000 mm 0,0 UV-I 0 W/m² 10,3 °C 11,6 °C 0,0 km/h (0 Bft)
09.10.2018 03:57 11,6 °C 92 % 1020,3 hPa 0,0 mm 0,0 km/h (0 Bft) S 184 ° 0 min 0,000 mm 0,0 UV-I 0 W/m² 10,3 °C 11,6 °C 0,0 km/h (0 Bft)
09.10.2018 03:58 11,6 °C 92 % 1020,3 hPa 0,0 mm 0,0 km/h (0 Bft) S 184 ° 0 min 0,000 mm 0,0 UV-I 0 W/m² 10,3 °C 11,6 °C 0,0 km/h (0 Bft)
09.10.2018 03:59 11,5 °C 92 % 1020,3 hPa 0,0 mm 0,2 km/h (0 Bft) S 184 ° 0 min 0,000 mm 0,0 UV-I 0 W/m² 10,2 °C 11,5 °C 1,6 km/h (1 Bft)
09.10.2018 04:00 11,6 °C 92 % 1020,3 hPa 0,0 mm 0,0 km/h (0 Bft) S 184 ° 0 min 0,000 mm 0,0 UV-I 0 W/m² 10,3 °C 11,6 °C 0,0 km/h (0 Bft)
09.10.2018 04:01 11,5 °C 92 % 1020,3 hPa 0,0 mm 0,0 km/h (0 Bft) S 184 ° 0 min 0,000 mm 0,0 UV-I 0 W/m² 10,2 °C 11,5 °C 0,0 km/h (0 Bft)
09.10.2018 04:02 11,5 °C 92 % 1020,3 hPa 0,0 mm 0,0 km/h (0 Bft) S 184 ° 0 min 0,000 mm 0,0 UV-I 0 W/m² 10,2 °C 11,5 °C 0,0 km/h (0 Bft)
09.10.2018 04:03 11,5 °C 92 % 1020,3 hPa 0,0 mm 0,0 km/h (0 Bft) S 184 ° 0 min 0,000 mm 0,0 UV-I 0 W/m² 10,2 °C 11,5 °C 0,0 km/h (0 Bft)
09.10.2018 04:04 11,5 °C 92 % 1020,2 hPa 0,0 mm 0,0 km/h (0 Bft) S 184 ° 0 min 0,000 mm 0,0 UV-I 0 W/m² 10,2 °C 11,5 °C 0,0 km/h (0 Bft)
09.10.2018 04:05 11,5 °C 92 % 1020,2 hPa 0,0 mm 0,0 km/h (0 Bft) S 184 ° 0 min 0,000 mm 0,0 UV-I 0 W/m² 10,2 °C 11,5 °C 0,0 km/h (0 Bft)
09.10.2018 04:06 11,5 °C 92 % 1020,3 hPa 0,0 mm 0,0 km/h (0 Bft) S 184 ° 0 min 0,000 mm 0,0 UV-I 0 W/m² 10,2 °C 11,5 °C 0,0 km/h (0 Bft)
09.10.2018 04:07 11,5 °C 92 % 1020,3 hPa 0,0 mm 0,0 km/h (0 Bft) S 184 ° 0 min 0,000 mm 0,0 UV-I 0 W/m² 10,2 °C 11,5 °C 0,0 km/h (0 Bft)
09.10.2018 04:08 11,5 °C 92 % 1020,3 hPa 0,0 mm 0,0 km/h (0 Bft) S 184 ° 0 min 0,000 mm 0,0 UV-I 0 W/m² 10,2 °C 11,5 °C 0,0 km/h (0 Bft)
09.10.2018 04:09 11,4 °C 92 % 1020,2 hPa 0,0 mm 0,0 km/h (0 Bft) S 184 ° 0 min 0,000 mm 0,0 UV-I 0 W/m² 10,1 °C 11,4 °C 0,0 km/h (0 Bft)
09.10.2018 04:10 11,4 °C 92 % 1020,2 hPa 0,0 mm 0,0 km/h (0 Bft) S 184 ° 0 min 0,000 mm 0,0 UV-I 0 W/m² 10,1 °C 11,4 °C 0,0 km/h (0 Bft)
09.10.2018 04:11 11,5 °C 92 % 1020,2 hPa 0,0 mm 0,0 km/h (0 Bft) S 184 ° 0 min 0,000 mm 0,0 UV-I 0 W/m² 10,2 °C 11,5 °C 0,0 km/h (0 Bft)
09.10.2018 04:12 11,4 °C 92 % 1020,2 hPa 0,0 mm 0,0 km/h (0 Bft) S 184 ° 0 min 0,000 mm 0,0 UV-I 0 W/m² 10,1 °C 11,4 °C 0,0 km/h (0 Bft)
09.10.2018 04:13 11,4 °C 92 % 1020,2 hPa 0,0 mm 0,0 km/h (0 Bft) S 184 ° 0 min 0,000 mm 0,0 UV-I 0 W/m² 10,1 °C 11,4 °C 0,0 km/h (0 Bft)
09.10.2018 04:14 11,5 °C 92 % 1020,3 hPa 0,0 mm 0,0 km/h (0 Bft) S 184 ° 0 min 0,000 mm 0,0 UV-I 0 W/m² 10,2 °C 11,5 °C 0,0 km/h (0 Bft)
09.10.2018 04:15 11,5 °C 92 % 1020,3 hPa 0,0 mm 1,1 km/h (1 Bft) S 187 ° 0 min 0,000 mm 0,0 UV-I 0 W/m² 10,2 °C 11,5 °C 3,2 km/h (1 Bft)
09.10.2018 04:16 11,5 °C 92 % 1020,3 hPa 0,0 mm 0,9 km/h (0 Bft) S 187 ° 0 min 0,000 mm 0,0 UV-I 0 W/m² 10,2 °C 11,5 °C 3,2 km/h (1 Bft)
09.10.2018 04:17 11,5 °C 92 % 1020,1 hPa 0,0 mm 0,1 km/h (0 Bft) S 187 ° 0 min 0,000 mm 0,0 UV-I 0 W/m² 10,2 °C 11,5 °C 1,6 km/h (1 Bft)
09.10.2018 04:18 11,6 °C 92 % 1020,1 hPa 0,0 mm 0,0 km/h (0 Bft) S 187 ° 0 min 0,000 mm 0,0 UV-I 0 W/m² 10,3 °C 11,6 °C 0,0 km/h (0 Bft)
09.10.2018 04:19 11,6 °C 92 % 1020,1 hPa 0,0 mm 0,0 km/h (0 Bft) S 187 ° 0 min 0,000 mm 0,0 UV-I 0 W/m² 10,3 °C 11,6 °C 0,0 km/h (0 Bft)
09.10.2018 04:20 11,6 °C 92 % 1020,1 hPa 0,0 mm 0,0 km/h (0 Bft) S 187 ° 0 min 0,000 mm 0,0 UV-I 0 W/m² 10,3 °C 11,6 °C 0,0 km/h (0 Bft)
09.10.2018 04:21 11,6 °C 92 % 1020,1 hPa 0,0 mm 0,0 km/h (0 Bft) S 187 ° 0 min 0,000 mm 0,0 UV-I 0 W/m² 10,3 °C 11,6 °C 0,0 km/h (0 Bft)
09.10.2018 04:22 11,6 °C 92 % 1020,1 hPa 0,0 mm 0,0 km/h (0 Bft) S 187 ° 0 min 0,000 mm 0,0 UV-I 0 W/m² 10,3 °C 11,6 °C 0,0 km/h (0 Bft)
09.10.2018 04:23 11,6 °C 92 % 1020,1 hPa 0,0 mm 0,0 km/h (0 Bft) S 187 ° 0 min 0,000 mm 0,0 UV-I 0 W/m² 10,3 °C 11,6 °C 0,0 km/h (0 Bft)
09.10.2018 04:24 11,6 °C 92 % 1020,1 hPa 0,0 mm 0,0 km/h (0 Bft) S 187 ° 0 min 0,000 mm 0,0 UV-I 0 W/m² 10,3 °C 11,6 °C 0,0 km/h (0 Bft)
09.10.2018 04:25 11,6 °C 92 % 1020,1 hPa 0,0 mm 0,0 km/h (0 Bft) S 187 ° 0 min 0,000 mm 0,0 UV-I 0 W/m² 10,3 °C 11,6 °C 0,0 km/h (0 Bft)
09.10.2018 04:26 11,6 °C 92 % 1020,2 hPa 0,0 mm 0,0 km/h (0 Bft) S 187 ° 0 min 0,000 mm 0,0 UV-I 0 W/m² 10,3 °C 11,6 °C 0,0 km/h (0 Bft)
09.10.2018 04:27 11,6 °C 92 % 1020,2 hPa 0,0 mm 0,0 km/h (0 Bft) S 187 ° 0 min 0,000 mm 0,0 UV-I 0 W/m² 10,3 °C 11,6 °C 0,0 km/h (0 Bft)
09.10.2018 04:28 11,6 °C 92 % 1020,2 hPa 0,0 mm 2,9 km/h (1 Bft) S 187 ° 0 min 0,000 mm 0,0 UV-I 0 W/m² 10,3 °C 11,6 °C 4,8 km/h (1 Bft)
09.10.2018 04:29 11,6 °C 92 % 1020,2 hPa 0,0 mm 2,8 km/h (1 Bft) S-SO 161 ° 0 min 0,000 mm 0,0 UV-I 0 W/m² 10,3 °C 11,6 °C 4,8 km/h (1 Bft)
09.10.2018 04:30 11,6 °C 92 % 1020,1 hPa 0,0 mm 1,9 km/h (1 Bft) S-SO 161 ° 0 min 0,000 mm 0,0 UV-I 0 W/m² 10,3 °C 11,6 °C 3,2 km/h (1 Bft)
09.10.2018 04:31 11,6 °C 92 % 1020,2 hPa 0,0 mm 1,1 km/h (1 Bft) S-SO 161 ° 0 min 0,000 mm 0,0 UV-I 0 W/m² 10,3 °C 11,6 °C 1,6 km/h (1 Bft)
09.10.2018 04:32 11,6 °C 92 % 1020,1 hPa 0,0 mm 0,7 km/h (0 Bft) S-SO 161 ° 0 min 0,000 mm 0,0 UV-I 0 W/m² 10,3 °C 11,6 °C 1,6 km/h (1 Bft)
09.10.2018 04:33 11,6 °C 92 % 1020,1 hPa 0,0 mm 0,0 km/h (0 Bft) S-SO 161 ° 0 min 0,000 mm 0,0 UV-I 0 W/m² 10,3 °C 11,6 °C 0,0 km/h (0 Bft)
09.10.2018 04:34 11,6 °C 92 % 1020,1 hPa 0,0 mm 0,2 km/h (0 Bft) S-SO 161 ° 0 min 0,000 mm 0,0 UV-I 0 W/m² 10,3 °C 11,6 °C 1,6 km/h (1 Bft)
09.10.2018 04:35 11,6 °C 92 % 1020,1 hPa 0,0 mm 0,7 km/h (0 Bft) S-SO 161 ° 0 min 0,000 mm 0,0 UV-I 0 W/m² 10,3 °C 11,6 °C 1,6 km/h (1 Bft)
09.10.2018 04:36 11,7 °C 92 % 1020,2 hPa 0,0 mm 0,7 km/h (0 Bft) S-SO 161 ° 0 min 0,000 mm 0,0 UV-I 0 W/m² 10,4 °C 11,7 °C 1,6 km/h (1 Bft)
09.10.2018 04:37 11,7 °C 92 % 1020,1 hPa 0,0 mm 0,0 km/h (0 Bft) S-SO 161 ° 0 min 0,000 mm 0,0 UV-I 0 W/m² 10,4 °C 11,7 °C 0,0 km/h (0 Bft)
09.10.2018 04:38 11,7 °C 91 % 1020,2 hPa 0,0 mm 0,0 km/h (0 Bft) S-SO 161 ° 0 min 0,000 mm 0,0 UV-I 0 W/m² 10,3 °C 11,7 °C 0,0 km/h (0 Bft)
09.10.2018 04:39 11,7 °C 91 % 1020,1 hPa 0,0 mm 0,0 km/h (0 Bft) S-SO 161 ° 0 min 0,000 mm 0,0 UV-I 0 W/m² 10,3 °C 11,7 °C 0,0 km/h (0 Bft)
09.10.2018 04:40 11,7 °C 91 % 1020,1 hPa 0,0 mm 0,0 km/h (0 Bft) S-SO 161 ° 0 min 0,000 mm 0,0 UV-I 0 W/m² 10,3 °C 11,7 °C 0,0 km/h (0 Bft)
09.10.2018 04:41 11,7 °C 91 % 1020,1 hPa 0,0 mm 0,0 km/h (0 Bft) S-SO 161 ° 0 min 0,000 mm 0,0 UV-I 0 W/m² 10,3 °C 11,7 °C 0,0 km/h (0 Bft)
09.10.2018 04:42 11,7 °C 91 % 1020,1 hPa 0,0 mm 0,0 km/h (0 Bft) S-SO 161 ° 0 min 0,000 mm 0,0 UV-I 0 W/m² 10,3 °C 11,7 °C 0,0 km/h (0 Bft)
09.10.2018 04:43 11,7 °C 91 % 1020,1 hPa 0,0 mm 0,0 km/h (0 Bft) S-SO 161 ° 0 min 0,000 mm 0,0 UV-I 0 W/m² 10,3 °C 11,7 °C 0,0 km/h (0 Bft)
09.10.2018 04:44 11,7 °C 91 % 1020,1 hPa 0,0 mm 0,0 km/h (0 Bft) S-SO 161 ° 0 min 0,000 mm 0,0 UV-I 0 W/m² 10,3 °C 11,7 °C 0,0 km/h (0 Bft)
09.10.2018 04:45 11,7 °C 91 % 1020,2 hPa 0,0 mm 0,0 km/h (0 Bft) S-SO 161 ° 0 min 0,000 mm 0,0 UV-I 0 W/m² 10,3 °C 11,7 °C 0,0 km/h (0 Bft)
09.10.2018 04:46 11,7 °C 91 % 1020,1 hPa 0,0 mm 0,0 km/h (0 Bft) S-SO 161 ° 0 min 0,000 mm 0,0 UV-I 0 W/m² 10,3 °C 11,7 °C 0,0 km/h (0 Bft)
09.10.2018 04:47 11,7 °C 91 % 1020,2 hPa 0,0 mm 0,0 km/h (0 Bft) S-SO 161 ° 0 min 0,000 mm 0,0 UV-I 0 W/m² 10,3 °C 11,7 °C 0,0 km/h (0 Bft)
09.10.2018 04:48 11,7 °C 92 % 1020,2 hPa 0,0 mm 0,0 km/h (0 Bft) S-SO 161 ° 0 min 0,000 mm 0,0 UV-I 0 W/m² 10,4 °C 11,7 °C 0,0 km/h (0 Bft)
09.10.2018 04:49 11,6 °C 92 % 1020,2 hPa 0,0 mm 0,0 km/h (0 Bft) S-SO 161 ° 0 min 0,000 mm 0,0 UV-I 0 W/m² 10,3 °C 11,6 °C 0,0 km/h (0 Bft)
09.10.2018 04:50 11,6 °C 92 % 1020,2 hPa 0,0 mm 0,0 km/h (0 Bft) S-SO 161 ° 0 min 0,000 mm 0,0 UV-I 0 W/m² 10,3 °C 11,6 °C 0,0 km/h (0 Bft)
09.10.2018 04:51 11,6 °C 92 % 1020,2 hPa 0,0 mm 0,0 km/h (0 Bft) S-SO 161 ° 0 min 0,000 mm 0,0 UV-I 0 W/m² 10,3 °C 11,6 °C 0,0 km/h (0 Bft)
09.10.2018 04:52 11,6 °C 92 % 1020,1 hPa 0,0 mm 0,0 km/h (0 Bft) S-SO 161 ° 0 min 0,000 mm 0,0 UV-I 0 W/m² 10,3 °C 11,6 °C 0,0 km/h (0 Bft)
09.10.2018 04:53 11,6 °C 92 % 1020,2 hPa 0,0 mm 0,0 km/h (0 Bft) S-SO 161 ° 0 min 0,000 mm 0,0 UV-I 0 W/m² 10,3 °C 11,6 °C 0,0 km/h (0 Bft)
09.10.2018 04:54 11,6 °C 92 % 1020,2 hPa 0,0 mm 0,0 km/h (0 Bft) S-SO 161 ° 0 min 0,000 mm 0,0 UV-I 0 W/m² 10,3 °C 11,6 °C 0,0 km/h (0 Bft)
09.10.2018 04:55 11,6 °C 92 % 1020,2 hPa 0,0 mm 0,0 km/h (0 Bft) S-SO 161 ° 0 min 0,000 mm 0,0 UV-I 0 W/m² 10,3 °C 11,6 °C 0,0 km/h (0 Bft)
09.10.2018 04:56 11,5 °C 92 % 1020,1 hPa 0,0 mm 0,0 km/h (0 Bft) S-SO 161 ° 0 min 0,000 mm 0,0 UV-I 0 W/m² 10,2 °C 11,5 °C 0,0 km/h (0 Bft)
09.10.2018 04:57 11,6 °C 92 % 1020,1 hPa 0,0 mm 0,0 km/h (0 Bft) S-SO 161 ° 0 min 0,000 mm 0,0 UV-I 0 W/m² 10,3 °C 11,6 °C 0,0 km/h (0 Bft)
09.10.2018 04:58 11,6 °C 92 % 1020,1 hPa 0,0 mm 0,0 km/h (0 Bft) S-SO 161 ° 0 min 0,000 mm 0,0 UV-I 0 W/m² 10,3 °C 11,6 °C 0,0 km/h (0 Bft)
09.10.2018 04:59 11,6 °C 92 % 1020,1 hPa 0,0 mm 0,0 km/h (0 Bft) S-SO 161 ° 0 min 0,000 mm 0,0 UV-I 0 W/m² 10,3 °C 11,6 °C 0,0 km/h (0 Bft)
09.10.2018 05:00 11,6 °C 92 % 1020,1 hPa 0,0 mm 0,0 km/h (0 Bft) S-SO 161 ° 0 min 0,000 mm 0,0 UV-I 0 W/m² 10,3 °C 11,6 °C 0,0 km/h (0 Bft)
09.10.2018 05:01 11,6 °C 92 % 1020,2 hPa 0,0 mm 0,7 km/h (0 Bft) S-SO 161 ° 0 min 0,000 mm 0,0 UV-I 0 W/m² 10,3 °C 11,6 °C 3,2 km/h (1 Bft)
09.10.2018 05:02 11,6 °C 92 % 1020,1 hPa 0,0 mm 0,0 km/h (0 Bft) S-SO 161 ° 0 min 0,000 mm 0,0 UV-I 0 W/m² 10,3 °C 11,6 °C 0,0 km/h (0 Bft)
09.10.2018 05:03 11,6 °C 92 % 1020,1 hPa 0,0 mm 0,0 km/h (0 Bft) S-SO 161 ° 0 min 0,000 mm 0,0 UV-I 0 W/m² 10,3 °C 11,6 °C 0,0 km/h (0 Bft)
09.10.2018 05:04 11,5 °C 92 % 1020,2 hPa 0,0 mm 0,0 km/h (0 Bft) S-SO 161 ° 0 min 0,000 mm 0,0 UV-I 0 W/m² 10,2 °C 11,5 °C 0,0 km/h (0 Bft)
09.10.2018 05:05 11,6 °C 92 % 1020,2 hPa 0,0 mm 0,0 km/h (0 Bft) S-SO 161 ° 0 min 0,000 mm 0,0 UV-I 0 W/m² 10,3 °C 11,6 °C 0,0 km/h (0 Bft)
09.10.2018 05:06 11,5 °C 92 % 1020,1 hPa 0,0 mm 0,0 km/h (0 Bft) S-SO 161 ° 0 min 0,000 mm 0,0 UV-I 0 W/m² 10,2 °C 11,5 °C 0,0 km/h (0 Bft)
09.10.2018 05:07 11,5 °C 92 % 1020,1 hPa 0,0 mm 0,0 km/h (0 Bft) S-SO 161 ° 0 min 0,000 mm 0,0 UV-I 0 W/m² 10,2 °C 11,5 °C 0,0 km/h (0 Bft)
09.10.2018 05:08 11,5 °C 92 % 1020,1 hPa 0,0 mm 0,0 km/h (0 Bft) S-SO 161 ° 0 min 0,000 mm 0,0 UV-I 0 W/m² 10,2 °C 11,5 °C 0,0 km/h (0 Bft)
09.10.2018 05:09 11,5 °C 92 % 1020,1 hPa 0,0 mm 0,0 km/h (0 Bft) S-SO 161 ° 0 min 0,000 mm 0,0 UV-I 0 W/m² 10,2 °C 11,5 °C 0,0 km/h (0 Bft)
09.10.2018 05:10 11,5 °C 92 % 1020,1 hPa 0,0 mm 0,0 km/h (0 Bft) S-SO 161 ° 0 min 0,000 mm 0,0 UV-I 0 W/m² 10,2 °C 11,5 °C 0,0 km/h (0 Bft)
09.10.2018 05:11 11,5 °C 92 % 1020,2 hPa 0,0 mm 0,0 km/h (0 Bft) S-SO 161 ° 0 min 0,000 mm 0,0 UV-I 0 W/m² 10,2 °C 11,5 °C 0,0 km/h (0 Bft)
09.10.2018 05:12 11,5 °C 92 % 1020,1 hPa 0,0 mm 0,0 km/h (0 Bft) S-SO 161 ° 0 min 0,000 mm 0,0 UV-I 0 W/m² 10,2 °C 11,5 °C 0,0 km/h (0 Bft)
09.10.2018 05:13 11,5 °C 92 % 1020,1 hPa 0,0 mm 0,0 km/h (0 Bft) S-SO 161 ° 0 min 0,000 mm 0,0 UV-I 0 W/m² 10,2 °C 11,5 °C 0,0 km/h (0 Bft)
09.10.2018 05:14 11,4 °C 92 % 1020,1 hPa 0,0 mm 0,0 km/h (0 Bft) S-SO 161 ° 0 min 0,000 mm 0,0 UV-I 0 W/m² 10,1 °C 11,4 °C 0,0 km/h (0 Bft)
09.10.2018 05:15 11,5 °C 92 % 1020,1 hPa 0,0 mm 0,0 km/h (0 Bft) S-SO 161 ° 0 min 0,000 mm 0,0 UV-I 0 W/m² 10,2 °C 11,5 °C 0,0 km/h (0 Bft)
09.10.2018 05:16 11,4 °C 92 % 1020,0 hPa 0,0 mm 0,0 km/h (0 Bft) S-SO 161 ° 0 min 0,000 mm 0,0 UV-I 0 W/m² 10,1 °C 11,4 °C 0,0 km/h (0 Bft)
09.10.2018 05:17 11,4 °C 92 % 1020,0 hPa 0,0 mm 0,0 km/h (0 Bft) S-SO 161 ° 0 min 0,000 mm 0,0 UV-I 0 W/m² 10,1 °C 11,4 °C 0,0 km/h (0 Bft)
09.10.2018 05:18 11,4 °C 92 % 1020,0 hPa 0,0 mm 0,0 km/h (0 Bft) S-SO 161 ° 0 min 0,000 mm 0,0 UV-I 0 W/m² 10,1 °C 11,4 °C 0,0 km/h (0 Bft)
09.10.2018 05:19 11,4 °C 92 % 1020,0 hPa 0,0 mm 0,0 km/h (0 Bft) S-SO 161 ° 0 min 0,000 mm 0,0 UV-I 0 W/m² 10,1 °C 11,4 °C 0,0 km/h (0 Bft)
09.10.2018 05:20 11,4 °C 92 % 1020,0 hPa 0,0 mm 0,0 km/h (0 Bft) S-SO 161 ° 0 min 0,000 mm 0,0 UV-I 0 W/m² 10,1 °C 11,4 °C 0,0 km/h (0 Bft)
09.10.2018 05:21 11,4 °C 92 % 1020,0 hPa 0,0 mm 0,0 km/h (0 Bft) S-SO 161 ° 0 min 0,000 mm 0,0 UV-I 0 W/m² 10,1 °C 11,4 °C 0,0 km/h (0 Bft)
09.10.2018 05:22 11,4 °C 92 % 1020,0 hPa 0,0 mm 0,0 km/h (0 Bft) S-SO 161 ° 0 min 0,000 mm 0,0 UV-I 0 W/m² 10,1 °C 11,4 °C 0,0 km/h (0 Bft)
09.10.2018 05:23 11,4 °C 92 % 1019,9 hPa 0,0 mm 0,0 km/h (0 Bft) S-SO 161 ° 0 min 0,000 mm 0,0 UV-I 0 W/m² 10,1 °C 11,4 °C 0,0 km/h (0 Bft)
09.10.2018 05:24 11,4 °C 92 % 1019,9 hPa 0,0 mm 0,0 km/h (0 Bft) S-SO 161 ° 0 min 0,000 mm 0,0 UV-I 0 W/m² 10,1 °C 11,4 °C 0,0 km/h (0 Bft)
09.10.2018 05:25 11,4 °C 92 % 1020,0 hPa 0,0 mm 0,0 km/h (0 Bft) S-SO 161 ° 0 min 0,000 mm 0,0 UV-I 0 W/m² 10,1 °C 11,4 °C 0,0 km/h (0 Bft)
09.10.2018 05:26 11,4 °C 92 % 1019,9 hPa 0,0 mm 0,0 km/h (0 Bft) S-SO 161 ° 0 min 0,000 mm 0,0 UV-I 0 W/m² 10,1 °C 11,4 °C 0,0 km/h (0 Bft)
09.10.2018 05:27 11,4 °C 92 % 1019,9 hPa 0,0 mm 0,0 km/h (0 Bft) S-SO 161 ° 0 min 0,000 mm 0,0 UV-I 0 W/m² 10,1 °C 11,4 °C 0,0 km/h (0 Bft)
09.10.2018 05:28 11,4 °C 92 % 1019,9 hPa 0,0 mm 0,0 km/h (0 Bft) S-SO 161 ° 0 min 0,000 mm 0,0 UV-I 0 W/m² 10,1 °C 11,4 °C 0,0 km/h (0 Bft)
09.10.2018 05:29 11,4 °C 92 % 1019,9 hPa 0,0 mm 0,0 km/h (0 Bft) S-SO 161 ° 0 min 0,000 mm 0,0 UV-I 0 W/m² 10,1 °C 11,4 °C 0,0 km/h (0 Bft)
09.10.2018 05:30 11,4 °C 92 % 1019,9 hPa 0,0 mm 0,0 km/h (0 Bft) S-SO 161 ° 0 min 0,000 mm 0,0 UV-I 0 W/m² 10,1 °C 11,4 °C 0,0 km/h (0 Bft)
09.10.2018 05:31 11,4 °C 92 % 1019,9 hPa 0,0 mm 0,0 km/h (0 Bft) S-SO 161 ° 0 min 0,000 mm 0,0 UV-I 0 W/m² 10,1 °C 11,4 °C 0,0 km/h (0 Bft)
09.10.2018 05:32 11,4 °C 92 % 1019,8 hPa 0,0 mm 0,0 km/h (0 Bft) S-SO 161 ° 0 min 0,000 mm 0,0 UV-I 0 W/m² 10,1 °C 11,4 °C 0,0 km/h (0 Bft)
09.10.2018 05:33 11,4 °C 92 % 1019,9 hPa 0,0 mm 0,0 km/h (0 Bft) S-SO 161 ° 0 min 0,000 mm 0,0 UV-I 0 W/m² 10,1 °C 11,4 °C 0,0 km/h (0 Bft)
09.10.2018 05:34 11,3 °C 92 % 1019,9 hPa 0,0 mm 0,0 km/h (0 Bft) S-SO 161 ° 0 min 0,000 mm 0,0 UV-I 0 W/m² 10,0 °C 11,3 °C 0,0 km/h (0 Bft)
09.10.2018 05:35 11,4 °C 92 % 1019,8 hPa 0,0 mm 0,0 km/h (0 Bft) S-SO 161 ° 0 min 0,000 mm 0,0 UV-I 0 W/m² 10,1 °C 11,4 °C 0,0 km/h (0 Bft)
09.10.2018 05:36 11,4 °C 92 % 1019,9 hPa 0,0 mm 0,0 km/h (0 Bft) S-SO 161 ° 0 min 0,000 mm 0,0 UV-I 0 W/m² 10,1 °C 11,4 °C 0,0 km/h (0 Bft)
09.10.2018 05:37 11,4 °C 92 % 1019,8 hPa 0,0 mm 0,0 km/h (0 Bft) S-SO 161 ° 0 min 0,000 mm 0,0 UV-I 0 W/m² 10,1 °C 11,4 °C 0,0 km/h (0 Bft)
09.10.2018 05:38 11,3 °C 92 % 1019,8 hPa 0,0 mm 0,0 km/h (0 Bft) S-SO 161 ° 0 min 0,000 mm 0,0 UV-I 0 W/m² 10,0 °C 11,3 °C 0,0 km/h (0 Bft)
09.10.2018 05:39 11,4 °C 92 % 1019,8 hPa 0,0 mm 0,0 km/h (0 Bft) S-SO 161 ° 0 min 0,000 mm 0,0 UV-I 0 W/m² 10,1 °C 11,4 °C 0,0 km/h (0 Bft)
09.10.2018 05:40 11,3 °C 92 % 1019,8 hPa 0,0 mm 0,0 km/h (0 Bft) S-SO 161 ° 0 min 0,000 mm 0,0 UV-I 0 W/m² 10,0 °C 11,3 °C 0,0 km/h (0 Bft)
09.10.2018 05:41 11,3 °C 92 % 1019,8 hPa 0,0 mm 0,0 km/h (0 Bft) S-SO 161 ° 0 min 0,000 mm 0,0 UV-I 0 W/m² 10,0 °C 11,3 °C 0,0 km/h (0 Bft)
09.10.2018 05:42 11,4 °C 92 % 1019,8 hPa 0,0 mm 0,0 km/h (0 Bft) S-SO 161 ° 0 min 0,000 mm 0,0 UV-I 0 W/m² 10,1 °C 11,4 °C 0,0 km/h (0 Bft)
09.10.2018 05:43 11,4 °C 92 % 1019,8 hPa 0,0 mm 0,7 km/h (0 Bft) SO 128 ° 0 min 0,000 mm 0,0 UV-I 0 W/m² 10,1 °C 11,4 °C 3,2 km/h (1 Bft)
09.10.2018 05:44 11,4 °C 93 % 1019,8 hPa 0,0 mm 0,0 km/h (0 Bft) SO 128 ° 0 min 0,000 mm 0,0 UV-I 0 W/m² 10,3 °C 11,4 °C 0,0 km/h (0 Bft)
09.10.2018 05:45 11,4 °C 93 % 1019,8 hPa 0,0 mm 0,7 km/h (0 Bft) W-SW 247 ° 0 min 0,000 mm 0,0 UV-I 0 W/m² 10,3 °C 11,4 °C 3,2 km/h (1 Bft)
09.10.2018 05:46 11,4 °C 92 % 1019,8 hPa 0,0 mm 0,6 km/h (0 Bft) W-SW 246 ° 0 min 0,000 mm 0,0 UV-I 0 W/m² 10,1 °C 11,4 °C 1,6 km/h (1 Bft)
09.10.2018 05:47 11,4 °C 92 % 1019,8 hPa 0,0 mm 0,0 km/h (0 Bft) W-SW 246 ° 0 min 0,000 mm 0,0 UV-I 0 W/m² 10,1 °C 11,4 °C 0,0 km/h (0 Bft)
09.10.2018 05:48 11,3 °C 92 % 1019,8 hPa 0,0 mm 0,0 km/h (0 Bft) W-SW 246 ° 0 min 0,000 mm 0,0 UV-I 0 W/m² 10,0 °C 11,3 °C 0,0 km/h (0 Bft)
09.10.2018 05:49 11,4 °C 92 % 1019,8 hPa 0,0 mm 0,0 km/h (0 Bft) W-SW 246 ° 0 min 0,000 mm 0,0 UV-I 0 W/m² 10,1 °C 11,4 °C 0,0 km/h (0 Bft)
09.10.2018 05:50 11,4 °C 93 % 1019,8 hPa 0,0 mm 0,0 km/h (0 Bft) W-SW 246 ° 0 min 0,000 mm 0,0 UV-I 0 W/m² 10,3 °C 11,4 °C 0,0 km/h (0 Bft)
09.10.2018 05:51 11,4 °C 93 % 1019,8 hPa 0,0 mm 0,0 km/h (0 Bft) W-SW 246 ° 0 min 0,000 mm 0,0 UV-I 0 W/m² 10,3 °C 11,4 °C 0,0 km/h (0 Bft)
09.10.2018 05:52 11,4 °C 92 % 1019,8 hPa 0,0 mm 0,0 km/h (0 Bft) W-SW 246 ° 0 min 0,000 mm 0,0 UV-I 0 W/m² 10,1 °C 11,4 °C 0,0 km/h (0 Bft)
09.10.2018 05:53 11,4 °C 92 % 1019,8 hPa 0,0 mm 0,0 km/h (0 Bft) W-SW 246 ° 0 min 0,000 mm 0,0 UV-I 0 W/m² 10,1 °C 11,4 °C 0,0 km/h (0 Bft)
09.10.2018 05:54 11,3 °C 92 % 1019,8 hPa 0,0 mm 0,0 km/h (0 Bft) W-SW 246 ° 0 min 0,000 mm 0,0 UV-I 0 W/m² 10,0 °C 11,3 °C 0,0 km/h (0 Bft)
09.10.2018 05:55 11,3 °C 92 % 1019,8 hPa 0,0 mm 0,0 km/h (0 Bft) W-SW 246 ° 0 min 0,000 mm 0,0 UV-I 0 W/m² 10,0 °C 11,3 °C 0,0 km/h (0 Bft)
09.10.2018 05:56 11,3 °C 92 % 1019,8 hPa 0,0 mm 0,0 km/h (0 Bft) W-SW 246 ° 0 min 0,000 mm 0,0 UV-I 0 W/m² 10,0 °C 11,3 °C 0,0 km/h (0 Bft)
09.10.2018 05:57 11,3 °C 92 % 1019,8 hPa 0,0 mm 0,0 km/h (0 Bft) W-SW 246 ° 0 min 0,000 mm 0,0 UV-I 0 W/m² 10,0 °C 11,3 °C 0,0 km/h (0 Bft)
09.10.2018 05:58 11,4 °C 92 % 1019,8 hPa 0,0 mm 0,0 km/h (0 Bft) W-SW 246 ° 0 min 0,000 mm 0,0 UV-I 0 W/m² 10,1 °C 11,4 °C 0,0 km/h (0 Bft)
09.10.2018 05:59 11,3 °C 92 % 1019,8 hPa 0,0 mm 0,0 km/h (0 Bft) W-SW 246 ° 0 min 0,000 mm 0,0 UV-I 0 W/m² 10,0 °C 11,3 °C 0,0 km/h (0 Bft)
09.10.2018 06:00 11,3 °C 92 % 1019,8 hPa 0,0 mm 0,0 km/h (0 Bft) W-SW 246 ° 0 min 0,000 mm 0,0 UV-I 0 W/m² 10,0 °C 11,3 °C 0,0 km/h (0 Bft)
09.10.2018 06:01 11,4 °C 93 % 1019,8 hPa 0,0 mm 0,0 km/h (0 Bft) W-SW 246 ° 0 min 0,000 mm 0,0 UV-I 0 W/m² 10,3 °C 11,4 °C 0,0 km/h (0 Bft)
09.10.2018 06:02 11,3 °C 92 % 1019,8 hPa 0,0 mm 0,0 km/h (0 Bft) W-SW 246 ° 0 min 0,000 mm 0,0 UV-I 0 W/m² 10,0 °C 11,3 °C 0,0 km/h (0 Bft)
09.10.2018 06:03 11,3 °C 92 % 1019,8 hPa 0,0 mm 0,0 km/h (0 Bft) W-SW 246 ° 0 min 0,000 mm 0,0 UV-I 0 W/m² 10,0 °C 11,3 °C 0,0 km/h (0 Bft)
09.10.2018 06:04 11,3 °C 92 % 1019,8 hPa 0,0 mm 0,0 km/h (0 Bft) W-SW 246 ° 0 min 0,000 mm 0,0 UV-I 0 W/m² 10,0 °C 11,3 °C 0,0 km/h (0 Bft)
09.10.2018 06:05 11,3 °C 92 % 1019,7 hPa 0,0 mm 0,0 km/h (0 Bft) W-SW 246 ° 0 min 0,000 mm 0,0 UV-I 0 W/m² 10,0 °C 11,3 °C 0,0 km/h (0 Bft)
09.10.2018 06:06 11,3 °C 93 % 1019,7 hPa 0,0 mm 0,0 km/h (0 Bft) W-SW 246 ° 0 min 0,000 mm 0,0 UV-I 0 W/m² 10,2 °C 11,3 °C 0,0 km/h (0 Bft)
09.10.2018 06:07 11,3 °C 92 % 1019,8 hPa 0,0 mm 0,0 km/h (0 Bft) W-SW 246 ° 0 min 0,000 mm 0,0 UV-I 0 W/m² 10,0 °C 11,3 °C 0,0 km/h (0 Bft)
09.10.2018 06:08 11,3 °C 92 % 1019,8 hPa 0,0 mm 0,0 km/h (0 Bft) W-SW 246 ° 0 min 0,000 mm 0,0 UV-I 0 W/m² 10,0 °C 11,3 °C 0,0 km/h (0 Bft)
09.10.2018 06:09 11,3 °C 92 % 1019,7 hPa 0,0 mm 0,0 km/h (0 Bft) W-SW 246 ° 0 min 0,000 mm 0,0 UV-I 0 W/m² 10,0 °C 11,3 °C 0,0 km/h (0 Bft)
09.10.2018 06:10 11,3 °C 92 % 1019,8 hPa 0,0 mm 0,0 km/h (0 Bft) W-SW 246 ° 0 min 0,000 mm 0,0 UV-I 0 W/m² 10,0 °C 11,3 °C 0,0 km/h (0 Bft)
09.10.2018 06:11 11,3 °C 92 % 1019,7 hPa 0,0 mm 0,0 km/h (0 Bft) W-SW 246 ° 0 min 0,000 mm 0,0 UV-I 0 W/m² 10,0 °C 11,3 °C 0,0 km/h (0 Bft)
09.10.2018 06:12 11,3 °C 92 % 1019,8 hPa 0,0 mm 0,0 km/h (0 Bft) W-SW 246 ° 0 min 0,000 mm 0,0 UV-I 0 W/m² 10,0 °C 11,3 °C 0,0 km/h (0 Bft)
09.10.2018 06:13 11,3 °C 92 % 1019,7 hPa 0,0 mm 0,0 km/h (0 Bft) W-SW 246 ° 0 min 0,000 mm 0,0 UV-I 0 W/m² 10,0 °C 11,3 °C 0,0 km/h (0 Bft)
09.10.2018 06:14 11,3 °C 92 % 1019,7 hPa 0,0 mm 0,0 km/h (0 Bft) W-SW 246 ° 0 min 0,000 mm 0,0 UV-I 0 W/m² 10,0 °C 11,3 °C 0,0 km/h (0 Bft)
09.10.2018 06:15 11,3 °C 92 % 1019,7 hPa 0,0 mm 0,0 km/h (0 Bft) W-SW 246 ° 0 min 0,000 mm 0,0 UV-I 0 W/m² 10,0 °C 11,3 °C 0,0 km/h (0 Bft)
09.10.2018 06:16 11,3 °C 92 % 1019,7 hPa 0,0 mm 0,1 km/h (0 Bft) W-SW 246 ° 0 min 0,000 mm 0,0 UV-I 0 W/m² 10,0 °C 11,3 °C 1,6 km/h (1 Bft)
09.10.2018 06:17 11,3 °C 92 % 1019,7 hPa 0,0 mm 0,7 km/h (0 Bft) W-SW 246 ° 0 min 0,000 mm 0,0 UV-I 0 W/m² 10,0 °C 11,3 °C 3,2 km/h (1 Bft)
09.10.2018 06:18 11,3 °C 92 % 1019,7 hPa 0,0 mm 0,6 km/h (0 Bft) W-SW 251 ° 0 min 0,000 mm 0,0 UV-I 0 W/m² 10,0 °C 11,3 °C 4,8 km/h (1 Bft)
09.10.2018 06:19 11,3 °C 92 % 1019,8 hPa 0,0 mm 0,0 km/h (0 Bft) W-SW 251 ° 0 min 0,000 mm 0,0 UV-I 0 W/m² 10,0 °C 11,3 °C 0,0 km/h (0 Bft)
09.10.2018 06:20 11,3 °C 92 % 1019,8 hPa 0,0 mm 0,0 km/h (0 Bft) W-SW 251 ° 0 min 0,000 mm 0,0 UV-I 0 W/m² 10,0 °C 11,3 °C 0,0 km/h (0 Bft)
09.10.2018 06:21 11,3 °C 92 % 1019,7 hPa 0,0 mm 0,0 km/h (0 Bft) W-SW 251 ° 0 min 0,000 mm 0,0 UV-I 0 W/m² 10,0 °C 11,3 °C 0,0 km/h (0 Bft)
09.10.2018 06:22 11,3 °C 92 % 1019,7 hPa 0,0 mm 0,0 km/h (0 Bft) W-SW 251 ° 0 min 0,000 mm 0,0 UV-I 0 W/m² 10,0 °C 11,3 °C 0,0 km/h (0 Bft)
09.10.2018 06:23 11,3 °C 92 % 1019,8 hPa 0,0 mm 0,0 km/h (0 Bft) W-SW 251 ° 0 min 0,000 mm 0,0 UV-I 0 W/m² 10,0 °C 11,3 °C 0,0 km/h (0 Bft)
09.10.2018 06:24 11,3 °C 92 % 1019,7 hPa 0,0 mm 0,0 km/h (0 Bft) W-SW 251 ° 0 min 0,000 mm 0,0 UV-I 0 W/m² 10,0 °C 11,3 °C 0,0 km/h (0 Bft)
09.10.2018 06:25 11,3 °C 92 % 1019,7 hPa 0,0 mm 0,0 km/h (0 Bft) W-SW 251 ° 0 min 0,000 mm 0,0 UV-I 0 W/m² 10,0 °C 11,3 °C 0,0 km/h (0 Bft)
09.10.2018 06:26 11,3 °C 92 % 1019,7 hPa 0,0 mm 0,0 km/h (0 Bft) W-SW 251 ° 0 min 0,000 mm 0,0 UV-I 0 W/m² 10,0 °C 11,3 °C 0,0 km/h (0 Bft)
09.10.2018 06:27 11,3 °C 92 % 1019,7 hPa 0,0 mm 0,0 km/h (0 Bft) W-SW 251 ° 0 min 0,000 mm 0,0 UV-I 0 W/m² 10,0 °C 11,3 °C 0,0 km/h (0 Bft)
09.10.2018 06:28 11,3 °C 92 % 1019,8 hPa 0,0 mm 0,0 km/h (0 Bft) W-SW 251 ° 0 min 0,000 mm 0,0 UV-I 0 W/m² 10,0 °C 11,3 °C 0,0 km/h (0 Bft)
09.10.2018 06:29 11,3 °C 92 % 1019,8 hPa 0,0 mm 0,0 km/h (0 Bft) W-SW 251 ° 0 min 0,000 mm 0,0 UV-I 0 W/m² 10,0 °C 11,3 °C 0,0 km/h (0 Bft)
09.10.2018 06:30 11,3 °C 92 % 1019,8 hPa 0,0 mm 0,0 km/h (0 Bft) W-SW 251 ° 0 min 0,000 mm 0,0 UV-I 0 W/m² 10,0 °C 11,3 °C 0,0 km/h (0 Bft)
09.10.2018 06:31 11,3 °C 92 % 1019,8 hPa 0,0 mm 0,0 km/h (0 Bft) W-SW 251 ° 0 min 0,000 mm 0,0 UV-I 0 W/m² 10,0 °C 11,3 °C 0,0 km/h (0 Bft)
09.10.2018 06:32 11,3 °C 92 % 1019,8 hPa 0,0 mm 0,0 km/h (0 Bft) W-SW 251 ° 0 min 0,000 mm 0,0 UV-I 0 W/m² 10,0 °C 11,3 °C 0,0 km/h (0 Bft)
09.10.2018 06:33 11,3 °C 92 % 1019,8 hPa 0,0 mm 0,0 km/h (0 Bft) W-SW 251 ° 0 min 0,000 mm 0,0 UV-I 0 W/m² 10,0 °C 11,3 °C 0,0 km/h (0 Bft)
09.10.2018 06:34 11,3 °C 92 % 1019,8 hPa 0,0 mm 0,0 km/h (0 Bft) W-SW 251 ° 0 min 0,000 mm 0,0 UV-I 0 W/m² 10,0 °C 11,3 °C 0,0 km/h (0 Bft)
09.10.2018 06:35 11,3 °C 92 % 1019,8 hPa 0,0 mm 0,0 km/h (0 Bft) W-SW 251 ° 0 min 0,000 mm 0,0 UV-I 0 W/m² 10,0 °C 11,3 °C 0,0 km/h (0 Bft)
09.10.2018 06:36 11,3 °C 92 % 1019,8 hPa 0,0 mm 0,0 km/h (0 Bft) W-SW 251 ° 0 min 0,000 mm 0,0 UV-I 0 W/m² 10,0 °C 11,3 °C 0,0 km/h (0 Bft)
09.10.2018 06:37 11,3 °C 92 % 1019,8 hPa 0,0 mm 0,0 km/h (0 Bft) W-SW 251 ° 0 min 0,000 mm 0,0 UV-I 0 W/m² 10,0 °C 11,3 °C 0,0 km/h (0 Bft)
09.10.2018 06:38 11,2 °C 92 % 1019,9 hPa 0,0 mm 0,0 km/h (0 Bft) W-SW 251 ° 0 min 0,000 mm 0,0 UV-I 0 W/m² 9,9 °C 11,2 °C 0,0 km/h (0 Bft)
09.10.2018 06:39 11,3 °C 92 % 1019,8 hPa 0,0 mm 0,0 km/h (0 Bft) W-SW 251 ° 0 min 0,000 mm 0,0 UV-I 0 W/m² 10,0 °C 11,3 °C 0,0 km/h (0 Bft)
09.10.2018 06:40 11,3 °C 92 % 1019,8 hPa 0,0 mm 0,0 km/h (0 Bft) W-SW 251 ° 0 min 0,000 mm 0,0 UV-I 0 W/m² 10,0 °C 11,3 °C 0,0 km/h (0 Bft)
09.10.2018 06:41 11,3 °C 92 % 1019,8 hPa 0,0 mm 0,0 km/h (0 Bft) W-SW 251 ° 0 min 0,000 mm 0,0 UV-I 0 W/m² 10,0 °C 11,3 °C 0,0 km/h (0 Bft)
09.10.2018 06:42 11,3 °C 92 % 1019,8 hPa 0,0 mm 0,0 km/h (0 Bft) W-SW 251 ° 0 min 0,000 mm 0,0 UV-I 0 W/m² 10,0 °C 11,3 °C 0,0 km/h (0 Bft)
09.10.2018 06:43 11,3 °C 92 % 1019,8 hPa 0,0 mm 0,6 km/h (0 Bft) W-SW 251 ° 0 min 0,000 mm 0,0 UV-I 0 W/m² 10,0 °C 11,3 °C 1,6 km/h (1 Bft)
09.10.2018 06:44 11,3 °C 92 % 1019,8 hPa 0,0 mm 1,5 km/h (1 Bft) W-SW 251 ° 0 min 0,000 mm 0,0 UV-I 0 W/m² 10,0 °C 11,3 °C 3,2 km/h (1 Bft)
09.10.2018 06:45 11,3 °C 92 % 1019,8 hPa 0,0 mm 0,9 km/h (0 Bft) W-SW 251 ° 0 min 0,000 mm 0,0 UV-I 0 W/m² 10,0 °C 11,3 °C 3,2 km/h (1 Bft)
09.10.2018 06:46 11,3 °C 92 % 1019,8 hPa 0,0 mm 1,3 km/h (1 Bft) W-SW 251 ° 0 min 0,000 mm 0,0 UV-I 0 W/m² 10,0 °C 11,3 °C 3,2 km/h (1 Bft)
09.10.2018 06:47 11,3 °C 92 % 1019,7 hPa 0,0 mm 0,5 km/h (0 Bft) W-SW 251 ° 0 min 0,000 mm 0,0 UV-I 0 W/m² 10,0 °C 11,3 °C 1,6 km/h (1 Bft)
09.10.2018 06:48 11,3 °C 92 % 1019,8 hPa 0,0 mm 1,4 km/h (1 Bft) W-SW 251 ° 0 min 0,000 mm 0,0 UV-I 0 W/m² 10,0 °C 11,3 °C 3,2 km/h (1 Bft)
09.10.2018 06:49 11,3 °C 92 % 1019,8 hPa 0,0 mm 0,0 km/h (0 Bft) W-SW 251 ° 0 min 0,000 mm 0,0 UV-I 0 W/m² 10,0 °C 11,3 °C 0,0 km/h (0 Bft)
09.10.2018 06:50 11,3 °C 91 % 1019,9 hPa 0,0 mm 0,0 km/h (0 Bft) W-SW 251 ° 0 min 0,000 mm 0,0 UV-I 0 W/m² 9,9 °C 11,3 °C 0,0 km/h (0 Bft)
09.10.2018 06:51 11,4 °C 91 % 1019,9 hPa 0,0 mm 0,0 km/h (0 Bft) W-SW 251 ° 0 min 0,000 mm 0,0 UV-I 0 W/m² 10,0 °C 11,4 °C 0,0 km/h (0 Bft)
09.10.2018 06:52 11,4 °C 91 % 1019,9 hPa 0,0 mm 0,0 km/h (0 Bft) W-SW 251 ° 0 min 0,000 mm 0,0 UV-I 0 W/m² 10,0 °C 11,4 °C 0,0 km/h (0 Bft)
09.10.2018 06:53 11,4 °C 91 % 1019,9 hPa 0,0 mm 0,0 km/h (0 Bft) W-SW 251 ° 0 min 0,000 mm 0,0 UV-I 0 W/m² 10,0 °C 11,4 °C 0,0 km/h (0 Bft)
09.10.2018 06:54 11,4 °C 91 % 1019,9 hPa 0,0 mm 0,0 km/h (0 Bft) W-SW 251 ° 0 min 0,000 mm 0,0 UV-I 0 W/m² 10,0 °C 11,4 °C 0,0 km/h (0 Bft)
09.10.2018 06:55 11,4 °C 91 % 1019,9 hPa 0,0 mm 0,0 km/h (0 Bft) W-SW 251 ° 0 min 0,000 mm 0,0 UV-I 0 W/m² 10,0 °C 11,4 °C 0,0 km/h (0 Bft)
09.10.2018 06:56 11,4 °C 91 % 1019,9 hPa 0,0 mm 0,0 km/h (0 Bft) W-SW 251 ° 0 min 0,000 mm 0,0 UV-I 0 W/m² 10,0 °C 11,4 °C 0,0 km/h (0 Bft)
09.10.2018 06:57 11,4 °C 91 % 1019,9 hPa 0,0 mm 0,0 km/h (0 Bft) W-SW 251 ° 0 min 0,000 mm 0,0 UV-I 0 W/m² 10,0 °C 11,4 °C 0,0 km/h (0 Bft)
09.10.2018 06:58 11,4 °C 91 % 1019,9 hPa 0,0 mm 0,0 km/h (0 Bft) W-SW 251 ° 0 min 0,000 mm 0,0 UV-I 0 W/m² 10,0 °C 11,4 °C 0,0 km/h (0 Bft)
09.10.2018 06:59 11,4 °C 91 % 1019,9 hPa 0,0 mm 0,0 km/h (0 Bft) W-SW 251 ° 0 min 0,000 mm 0,0 UV-I 0 W/m² 10,0 °C 11,4 °C 0,0 km/h (0 Bft)
09.10.2018 07:00 11,4 °C 91 % 1020,0 hPa 0,0 mm 0,0 km/h (0 Bft) W-SW 251 ° 0 min 0,000 mm 0,0 UV-I 0 W/m² 10,0 °C 11,4 °C 0,0 km/h (0 Bft)
09.10.2018 07:01 11,4 °C 91 % 1020,0 hPa 0,0 mm 0,0 km/h (0 Bft) W-SW 251 ° 0 min 0,000 mm 0,0 UV-I 0 W/m² 10,0 °C 11,4 °C 0,0 km/h (0 Bft)
09.10.2018 07:02 11,4 °C 91 % 1020,0 hPa 0,0 mm 0,0 km/h (0 Bft) W-SW 251 ° 0 min 0,000 mm 0,0 UV-I 0 W/m² 10,0 °C 11,4 °C 0,0 km/h (0 Bft)
09.10.2018 07:03 11,4 °C 91 % 1020,0 hPa 0,0 mm 0,0 km/h (0 Bft) W-SW 251 ° 0 min 0,000 mm 0,0 UV-I 0 W/m² 10,0 °C 11,4 °C 0,0 km/h (0 Bft)
09.10.2018 07:04 11,4 °C 91 % 1020,0 hPa 0,0 mm 0,0 km/h (0 Bft) W-SW 251 ° 0 min 0,000 mm 0,0 UV-I 0 W/m² 10,0 °C 11,4 °C 0,0 km/h (0 Bft)
09.10.2018 07:05 11,4 °C 91 % 1020,0 hPa 0,0 mm 0,0 km/h (0 Bft) W-SW 251 ° 0 min 0,000 mm 0,0 UV-I 0 W/m² 10,0 °C 11,4 °C 0,0 km/h (0 Bft)
09.10.2018 07:06 11,4 °C 91 % 1020,0 hPa 0,0 mm 0,0 km/h (0 Bft) W-SW 251 ° 0 min 0,000 mm 0,0 UV-I 0 W/m² 10,0 °C 11,4 °C 0,0 km/h (0 Bft)
09.10.2018 07:07 11,3 °C 91 % 1020,0 hPa 0,0 mm 0,0 km/h (0 Bft) W-SW 251 ° 0 min 0,000 mm 0,0 UV-I 0 W/m² 9,9 °C 11,3 °C 0,0 km/h (0 Bft)
09.10.2018 07:08 11,4 °C 91 % 1020,0 hPa 0,0 mm 0,0 km/h (0 Bft) W-SW 251 ° 0 min 0,000 mm 0,0 UV-I 0 W/m² 10,0 °C 11,4 °C 0,0 km/h (0 Bft)
09.10.2018 07:09 11,4 °C 91 % 1020,0 hPa 0,0 mm 0,0 km/h (0 Bft) W-SW 251 ° 0 min 0,000 mm 0,0 UV-I 0 W/m² 10,0 °C 11,4 °C 0,0 km/h (0 Bft)
09.10.2018 07:10 11,3 °C 91 % 1020,0 hPa 0,0 mm 0,0 km/h (0 Bft) W-SW 251 ° 0 min 0,000 mm 0,0 UV-I 0 W/m² 9,9 °C 11,3 °C 0,0 km/h (0 Bft)
09.10.2018 07:11 11,3 °C 91 % 1020,0 hPa 0,0 mm 0,0 km/h (0 Bft) W-SW 251 ° 0 min 0,000 mm 0,0 UV-I 0 W/m² 9,9 °C 11,3 °C 0,0 km/h (0 Bft)
09.10.2018 07:12 11,3 °C 91 % 1020,0 hPa 0,0 mm 0,0 km/h (0 Bft) W-SW 251 ° 0 min 0,000 mm 0,0 UV-I 0 W/m² 9,9 °C 11,3 °C 0,0 km/h (0 Bft)
09.10.2018 07:13 11,3 °C 91 % 1020,0 hPa 0,0 mm 0,0 km/h (0 Bft) W-SW 251 ° 0 min 0,000 mm 0,0 UV-I 0 W/m² 9,9 °C 11,3 °C 0,0 km/h (0 Bft)
09.10.2018 07:14 11,3 °C 91 % 1020,0 hPa 0,0 mm 0,0 km/h (0 Bft) W-SW 251 ° 0 min 0,000 mm 0,0 UV-I 0 W/m² 9,9 °C 11,3 °C 0,0 km/h (0 Bft)
09.10.2018 07:15 11,3 °C 91 % 1020,0 hPa 0,0 mm 0,0 km/h (0 Bft) W-SW 251 ° 0 min 0,000 mm 0,0 UV-I 0 W/m² 9,9 °C 11,3 °C 0,0 km/h (0 Bft)
09.10.2018 07:16 11,3 °C 92 % 1020,0 hPa 0,0 mm 0,0 km/h (0 Bft) W-SW 251 ° 0 min 0,000 mm 0,0 UV-I 0 W/m² 10,0 °C 11,3 °C 0,0 km/h (0 Bft)
09.10.2018 07:17 11,3 °C 92 % 1020,0 hPa 0,0 mm 0,0 km/h (0 Bft) W-SW 251 ° 0 min 0,000 mm 0,0 UV-I 0 W/m² 10,0 °C 11,3 °C 0,0 km/h (0 Bft)
09.10.2018 07:18 11,3 °C 92 % 1020,0 hPa 0,0 mm 0,0 km/h (0 Bft) W-SW 251 ° 0 min 0,000 mm 0,0 UV-I 0 W/m² 10,0 °C 11,3 °C 0,0 km/h (0 Bft)
09.10.2018 07:19 11,2 °C 92 % 1020,0 hPa 0,0 mm 0,0 km/h (0 Bft) W-SW 251 ° 0 min 0,000 mm 0,0 UV-I 0 W/m² 9,9 °C 11,2 °C 0,0 km/h (0 Bft)
09.10.2018 07:20 11,3 °C 92 % 1020,0 hPa 0,0 mm 0,0 km/h (0 Bft) W-SW 251 ° 0 min 0,000 mm 0,0 UV-I 0 W/m² 10,0 °C 11,3 °C 0,0 km/h (0 Bft)
09.10.2018 07:21 11,2 °C 92 % 1020,0 hPa 0,0 mm 0,0 km/h (0 Bft) W-SW 251 ° 0 min 0,000 mm 0,0 UV-I 0 W/m² 9,9 °C 11,2 °C 0,0 km/h (0 Bft)
09.10.2018 07:22 11,2 °C 92 % 1020,0 hPa 0,0 mm 0,0 km/h (0 Bft) W-SW 251 ° 0 min 0,000 mm 0,0 UV-I 0 W/m² 9,9 °C 11,2 °C 0,0 km/h (0 Bft)
09.10.2018 07:23 11,2 °C 92 % 1020,0 hPa 0,0 mm 0,0 km/h (0 Bft) W-SW 251 ° 0 min 0,000 mm 0,0 UV-I 0 W/m² 9,9 °C 11,2 °C 0,0 km/h (0 Bft)
09.10.2018 07:24 11,2 °C 92 % 1020,0 hPa 0,0 mm 0,0 km/h (0 Bft) W-SW 251 ° 0 min 0,000 mm 0,0 UV-I 0 W/m² 9,9 °C 11,2 °C 0,0 km/h (0 Bft)
09.10.2018 07:25 11,2 °C 92 % 1020,0 hPa 0,0 mm 0,0 km/h (0 Bft) W-SW 251 ° 0 min 0,000 mm 0,0 UV-I 0 W/m² 9,9 °C 11,2 °C 0,0 km/h (0 Bft)
09.10.2018 07:26 11,2 °C 92 % 1020,0 hPa 0,0 mm 0,0 km/h (0 Bft) W-SW 251 ° 0 min 0,000 mm 0,0 UV-I 0 W/m² 9,9 °C 11,2 °C 0,0 km/h (0 Bft)
09.10.2018 07:27 11,2 °C 92 % 1020,0 hPa 0,0 mm 0,0 km/h (0 Bft) W-SW 251 ° 0 min 0,000 mm 0,0 UV-I 0 W/m² 9,9 °C 11,2 °C 0,0 km/h (0 Bft)
09.10.2018 07:28 11,2 °C 92 % 1020,0 hPa 0,0 mm 0,0 km/h (0 Bft) W-SW 251 ° 0 min 0,000 mm 0,0 UV-I 0 W/m² 9,9 °C 11,2 °C 0,0 km/h (0 Bft)
09.10.2018 07:29 11,1 °C 92 % 1020,0 hPa 0,0 mm 0,0 km/h (0 Bft) W-SW 251 ° 0 min 0,000 mm 0,0 UV-I 0 W/m² 9,8 °C 11,1 °C 0,0 km/h (0 Bft)
09.10.2018 07:30 11,2 °C 92 % 1020,0 hPa 0,0 mm 0,0 km/h (0 Bft) W-SW 251 ° 0 min 0,000 mm 0,0 UV-I 0 W/m² 9,9 °C 11,2 °C 0,0 km/h (0 Bft)
09.10.2018 07:31 11,2 °C 92 % 1020,0 hPa 0,0 mm 0,0 km/h (0 Bft) W-SW 251 ° 0 min 0,000 mm 0,0 UV-I 0 W/m² 9,9 °C 11,2 °C 0,0 km/h (0 Bft)
09.10.2018 07:32 11,2 °C 92 % 1020,1 hPa 0,0 mm 0,0 km/h (0 Bft) W-SW 251 ° 0 min 0,000 mm 0,0 UV-I 0 W/m² 9,9 °C 11,2 °C 0,0 km/h (0 Bft)
09.10.2018 07:33 11,2 °C 92 % 1020,1 hPa 0,0 mm 0,0 km/h (0 Bft) W-SW 251 ° 0 min 0,000 mm 0,0 UV-I 0 W/m² 9,9 °C 11,2 °C 0,0 km/h (0 Bft)
09.10.2018 07:34 11,1 °C 92 % 1020,1 hPa 0,0 mm 0,0 km/h (0 Bft) W-SW 251 ° 0 min 0,000 mm 0,0 UV-I 0 W/m² 9,8 °C 11,1 °C 0,0 km/h (0 Bft)
09.10.2018 07:35 11,1 °C 92 % 1020,1 hPa 0,0 mm 0,0 km/h (0 Bft) W-SW 251 ° 0 min 0,000 mm 0,0 UV-I 0 W/m² 9,8 °C 11,1 °C 0,0 km/h (0 Bft)
09.10.2018 07:36 11,1 °C 92 % 1020,1 hPa 0,0 mm 0,0 km/h (0 Bft) W-SW 251 ° 0 min 0,000 mm 0,0 UV-I 0 W/m² 9,8 °C 11,1 °C 0,0 km/h (0 Bft)
09.10.2018 07:37 11,1 °C 92 % 1020,1 hPa 0,0 mm 0,0 km/h (0 Bft) W-SW 251 ° 0 min 0,000 mm 0,0 UV-I 0 W/m² 9,8 °C 11,1 °C 0,0 km/h (0 Bft)
09.10.2018 07:38 11,1 °C 92 % 1020,1 hPa 0,0 mm 0,0 km/h (0 Bft) W-SW 251 ° 0 min 0,000 mm 0,0 UV-I 5 W/m² 9,8 °C 11,1 °C 0,0 km/h (0 Bft)
09.10.2018 07:39 11,1 °C 92 % 1020,1 hPa 0,0 mm 0,0 km/h (0 Bft) W-SW 251 ° 0 min 0,000 mm 0,0 UV-I 5 W/m² 9,8 °C 11,1 °C 0,0 km/h (0 Bft)
09.10.2018 07:40 11,1 °C 92 % 1020,1 hPa 0,0 mm 0,0 km/h (0 Bft) W-SW 251 ° 0 min 0,000 mm 0,0 UV-I 5 W/m² 9,8 °C 11,1 °C 0,0 km/h (0 Bft)
09.10.2018 07:41 11,1 °C 92 % 1020,1 hPa 0,0 mm 0,0 km/h (0 Bft) W-SW 251 ° 0 min 0,000 mm 0,0 UV-I 5 W/m² 9,8 °C 11,1 °C 0,0 km/h (0 Bft)
09.10.2018 07:42 11,1 °C 92 % 1020,1 hPa 0,0 mm 0,0 km/h (0 Bft) W-SW 251 ° 0 min 0,000 mm 0,0 UV-I 5 W/m² 9,8 °C 11,1 °C 0,0 km/h (0 Bft)
09.10.2018 07:43 11,1 °C 92 % 1020,2 hPa 0,0 mm 0,0 km/h (0 Bft) W-SW 251 ° 0 min 0,000 mm 0,0 UV-I 7 W/m² 9,8 °C 11,1 °C 0,0 km/h (0 Bft)
09.10.2018 07:44 11,1 °C 92 % 1020,2 hPa 0,0 mm 0,0 km/h (0 Bft) W-SW 251 ° 0 min 0,000 mm 0,0 UV-I 7 W/m² 9,8 °C 11,1 °C 0,0 km/h (0 Bft)
09.10.2018 07:45 11,1 °C 92 % 1020,2 hPa 0,0 mm 0,0 km/h (0 Bft) W-SW 251 ° 0 min 0,000 mm 0,0 UV-I 7 W/m² 9,8 °C 11,1 °C 0,0 km/h (0 Bft)
09.10.2018 07:46 11,1 °C 92 % 1020,2 hPa 0,0 mm 0,0 km/h (0 Bft) W-SW 251 ° 0 min 0,000 mm 0,0 UV-I 7 W/m² 9,8 °C 11,1 °C 0,0 km/h (0 Bft)
09.10.2018 07:47 11,1 °C 92 % 1020,2 hPa 0,0 mm 0,0 km/h (0 Bft) W-SW 251 ° 0 min 0,000 mm 0,0 UV-I 7 W/m² 9,8 °C 11,1 °C 0,0 km/h (0 Bft)
09.10.2018 07:48 11,1 °C 92 % 1020,2 hPa 0,0 mm 0,0 km/h (0 Bft) W-SW 251 ° 0 min 0,000 mm 0,0 UV-I 9 W/m² 9,8 °C 11,1 °C 0,0 km/h (0 Bft)
09.10.2018 07:49 11,1 °C 92 % 1020,2 hPa 0,0 mm 0,0 km/h (0 Bft) W-SW 251 ° 0 min 0,000 mm 0,0 UV-I 9 W/m² 9,8 °C 11,1 °C 0,0 km/h (0 Bft)
09.10.2018 07:50 11,1 °C 92 % 1020,2 hPa 0,0 mm 0,0 km/h (0 Bft) W-SW 251 ° 0 min 0,000 mm 0,0 UV-I 9 W/m² 9,8 °C 11,1 °C 0,0 km/h (0 Bft)
09.10.2018 07:51 11,2 °C 92 % 1020,2 hPa 0,0 mm 0,0 km/h (0 Bft) W-SW 251 ° 0 min 0,000 mm 0,0 UV-I 9 W/m² 9,9 °C 11,2 °C 0,0 km/h (0 Bft)
09.10.2018 07:52 11,2 °C 92 % 1020,2 hPa 0,0 mm 0,0 km/h (0 Bft) W-SW 251 ° 0 min 0,000 mm 0,0 UV-I 11 W/m² 9,9 °C 11,2 °C 0,0 km/h (0 Bft)
09.10.2018 07:53 11,2 °C 92 % 1020,2 hPa 0,0 mm 0,0 km/h (0 Bft) W-SW 251 ° 0 min 0,000 mm 0,0 UV-I 11 W/m² 9,9 °C 11,2 °C 0,0 km/h (0 Bft)
09.10.2018 07:54 11,2 °C 92 % 1020,2 hPa 0,0 mm 0,0 km/h (0 Bft) W-SW 251 ° 0 min 0,000 mm 0,0 UV-I 11 W/m² 9,9 °C 11,2 °C 0,0 km/h (0 Bft)
09.10.2018 07:55 11,2 °C 92 % 1020,1 hPa 0,0 mm 0,0 km/h (0 Bft) W-SW 251 ° 0 min 0,000 mm 0,0 UV-I 11 W/m² 9,9 °C 11,2 °C 0,0 km/h (0 Bft)
09.10.2018 07:56 11,2 °C 92 % 1020,1 hPa 0,0 mm 0,0 km/h (0 Bft) W-SW 251 ° 0 min 0,000 mm 0,0 UV-I 11 W/m² 9,9 °C 11,2 °C 0,0 km/h (0 Bft)
09.10.2018 07:57 11,2 °C 91 % 1020,1 hPa 0,0 mm 0,0 km/h (0 Bft) W-SW 251 ° 0 min 0,000 mm 0,0 UV-I 12 W/m² 9,8 °C 11,2 °C 0,0 km/h (0 Bft)
09.10.2018 07:58 11,2 °C 92 % 1020,1 hPa 0,0 mm 0,0 km/h (0 Bft) W-SW 251 ° 0 min 0,000 mm 0,0 UV-I 12 W/m² 9,9 °C 11,2 °C 0,0 km/h (0 Bft)
09.10.2018 07:59 11,2 °C 92 % 1020,1 hPa 0,0 mm 0,0 km/h (0 Bft) W-SW 251 ° 0 min 0,000 mm 0,0 UV-I 14 W/m² 9,9 °C 11,2 °C 0,0 km/h (0 Bft)
09.10.2018 08:00 11,2 °C 92 % 1020,2 hPa 0,0 mm 0,4 km/h (0 Bft) W-SW 251 ° 0 min 0,000 mm 0,0 UV-I 14 W/m² 9,9 °C 11,2 °C 1,6 km/h (1 Bft)
09.10.2018 08:01 11,2 °C 92 % 1020,1 hPa 0,0 mm 0,0 km/h (0 Bft) W-SW 251 ° 0 min 0,000 mm 0,0 UV-I 14 W/m² 9,9 °C 11,2 °C 0,0 km/h (0 Bft)
09.10.2018 08:02 11,2 °C 92 % 1020,1 hPa 0,0 mm 0,0 km/h (0 Bft) W-SW 251 ° 0 min 0,000 mm 0,0 UV-I 16 W/m² 9,9 °C 11,2 °C 0,0 km/h (0 Bft)
09.10.2018 08:03 11,2 °C 92 % 1020,1 hPa 0,0 mm 0,0 km/h (0 Bft) W-SW 251 ° 0 min 0,000 mm 0,0 UV-I 16 W/m² 9,9 °C 11,2 °C 0,0 km/h (0 Bft)
09.10.2018 08:04 11,2 °C 92 % 1020,1 hPa 0,0 mm 0,0 km/h (0 Bft) W-SW 251 ° 0 min 0,000 mm 0,0 UV-I 18 W/m² 9,9 °C 11,2 °C 0,0 km/h (0 Bft)
09.10.2018 08:05 11,2 °C 92 % 1020,1 hPa 0,0 mm 0,0 km/h (0 Bft) W-SW 251 ° 0 min 0,000 mm 0,0 UV-I 18 W/m² 9,9 °C 11,2 °C 0,0 km/h (0 Bft)
09.10.2018 08:06 11,2 °C 92 % 1020,2 hPa 0,0 mm 0,0 km/h (0 Bft) W-SW 251 ° 0 min 0,000 mm 0,0 UV-I 18 W/m² 9,9 °C 11,2 °C 0,0 km/h (0 Bft)
09.10.2018 08:07 11,2 °C 92 % 1020,1 hPa 0,0 mm 0,0 km/h (0 Bft) W-SW 251 ° 0 min 0,000 mm 0,0 UV-I 19 W/m² 9,9 °C 11,2 °C 0,0 km/h (0 Bft)
09.10.2018 08:08 11,2 °C 92 % 1020,2 hPa 0,0 mm 0,0 km/h (0 Bft) W-SW 251 ° 0 min 0,000 mm 0,0 UV-I 21 W/m² 9,9 °C 11,2 °C 0,0 km/h (0 Bft)
09.10.2018 08:09 11,2 °C 92 % 1020,2 hPa 0,0 mm 0,0 km/h (0 Bft) W-SW 251 ° 0 min 0,000 mm 0,0 UV-I 21 W/m² 9,9 °C 11,2 °C 0,0 km/h (0 Bft)
09.10.2018 08:10 11,2 °C 92 % 1020,2 hPa 0,0 mm 0,0 km/h (0 Bft) W-SW 251 ° 0 min 0,000 mm 0,0 UV-I 23 W/m² 9,9 °C 11,2 °C 0,0 km/h (0 Bft)
09.10.2018 08:11 11,2 °C 92 % 1020,2 hPa 0,0 mm 0,0 km/h (0 Bft) W-SW 251 ° 0 min 0,000 mm 0,0 UV-I 23 W/m² 9,9 °C 11,2 °C 0,0 km/h (0 Bft)
09.10.2018 08:12 11,3 °C 92 % 1020,1 hPa 0,0 mm 0,0 km/h (0 Bft) W-SW 251 ° 0 min 0,000 mm 0,0 UV-I 25 W/m² 10,0 °C 11,3 °C 0,0 km/h (0 Bft)
09.10.2018 08:13 11,3 °C 92 % 1020,1 hPa 0,0 mm 0,0 km/h (0 Bft) W-SW 251 ° 0 min 0,000 mm 0,0 UV-I 25 W/m² 10,0 °C 11,3 °C 0,0 km/h (0 Bft)
09.10.2018 08:14 11,3 °C 92 % 1020,1 hPa 0,0 mm 0,0 km/h (0 Bft) W-SW 251 ° 0 min 0,000 mm 0,0 UV-I 26 W/m² 10,0 °C 11,3 °C 0,0 km/h (0 Bft)
09.10.2018 08:15 11,3 °C 92 % 1020,1 hPa 0,0 mm 0,0 km/h (0 Bft) W-SW 251 ° 0 min 0,000 mm 0,0 UV-I 28 W/m² 10,0 °C 11,3 °C 0,0 km/h (0 Bft)
09.10.2018 08:16 11,3 °C 92 % 1020,1 hPa 0,0 mm 0,0 km/h (0 Bft) W-SW 251 ° 0 min 0,000 mm 0,0 UV-I 30 W/m² 10,0 °C 11,3 °C 0,0 km/h (0 Bft)
09.10.2018 08:17 11,3 °C 92 % 1020,1 hPa 0,0 mm 0,0 km/h (0 Bft) W-SW 251 ° 0 min 0,000 mm 0,0 UV-I 30 W/m² 10,0 °C 11,3 °C 0,0 km/h (0 Bft)
09.10.2018 08:18 11,3 °C 92 % 1020,1 hPa 0,0 mm 0,0 km/h (0 Bft) W-SW 251 ° 0 min 0,000 mm 0,0 UV-I 30 W/m² 10,0 °C 11,3 °C 0,0 km/h (0 Bft)
09.10.2018 08:19 11,3 °C 92 % 1020,1 hPa 0,0 mm 0,0 km/h (0 Bft) W-SW 251 ° 0 min 0,000 mm 0,0 UV-I 33 W/m² 10,0 °C 11,3 °C 0,0 km/h (0 Bft)
09.10.2018 08:20 11,3 °C 92 % 1020,2 hPa 0,0 mm 0,0 km/h (0 Bft) W-SW 251 ° 0 min 0,000 mm 0,0 UV-I 35 W/m² 10,0 °C 11,3 °C 0,0 km/h (0 Bft)
09.10.2018 08:21 11,3 °C 92 % 1020,1 hPa 0,0 mm 0,0 km/h (0 Bft) W-SW 251 ° 0 min 0,000 mm 0,0 UV-I 35 W/m² 10,0 °C 11,3 °C 0,0 km/h (0 Bft)
09.10.2018 08:22 11,3 °C 92 % 1020,2 hPa 0,0 mm 0,0 km/h (0 Bft) W-SW 251 ° 0 min 0,000 mm 0,0 UV-I 37 W/m² 10,0 °C 11,3 °C 0,0 km/h (0 Bft)
09.10.2018 08:23 11,4 °C 92 % 1020,2 hPa 0,0 mm 0,8 km/h (0 Bft) W-SW 251 ° 0 min 0,000 mm 0,0 UV-I 37 W/m² 10,1 °C 11,4 °C 3,2 km/h (1 Bft)
09.10.2018 08:24 11,4 °C 92 % 1020,1 hPa 0,0 mm 0,0 km/h (0 Bft) W-SW 251 ° 0 min 0,000 mm 0,0 UV-I 37 W/m² 10,1 °C 11,4 °C 0,0 km/h (0 Bft)
09.10.2018 08:25 11,4 °C 91 % 1020,1 hPa 0,0 mm 0,2 km/h (0 Bft) W-SW 251 ° 0 min 0,000 mm 0,0 UV-I 39 W/m² 10,0 °C 11,4 °C 1,6 km/h (1 Bft)
09.10.2018 08:26 11,4 °C 91 % 1020,1 hPa 0,0 mm 0,1 km/h (0 Bft) W-SW 251 ° 0 min 0,000 mm 0,0 UV-I 42 W/m² 10,0 °C 11,4 °C 1,6 km/h (1 Bft)
09.10.2018 08:27 11,4 °C 91 % 1020,1 hPa 0,0 mm 0,0 km/h (0 Bft) W-SW 251 ° 0 min 0,000 mm 0,0 UV-I 44 W/m² 10,0 °C 11,4 °C 0,0 km/h (0 Bft)
09.10.2018 08:28 11,4 °C 91 % 1020,1 hPa 0,0 mm 0,0 km/h (0 Bft) W-SW 251 ° 0 min 0,000 mm 0,0 UV-I 47 W/m² 10,0 °C 11,4 °C 0,0 km/h (0 Bft)
09.10.2018 08:29 11,4 °C 91 % 1020,1 hPa 0,0 mm 0,0 km/h (0 Bft) W-SW 251 ° 0 min 0,000 mm 0,0 UV-I 49 W/m² 10,0 °C 11,4 °C 0,0 km/h (0 Bft)
09.10.2018 08:30 11,4 °C 91 % 1020,1 hPa 0,0 mm 0,0 km/h (0 Bft) W-SW 251 ° 0 min 0,000 mm 0,0 UV-I 49 W/m² 10,0 °C 11,4 °C 0,0 km/h (0 Bft)
09.10.2018 08:31 11,4 °C 91 % 1020,1 hPa 0,0 mm 0,0 km/h (0 Bft) W-SW 251 ° 0 min 0,000 mm 0,0 UV-I 51 W/m² 10,0 °C 11,4 °C 0,0 km/h (0 Bft)
09.10.2018 08:32 11,4 °C 91 % 1020,1 hPa 0,0 mm 0,0 km/h (0 Bft) W-SW 251 ° 0 min 0,000 mm 0,0 UV-I 51 W/m² 10,0 °C 11,4 °C 0,0 km/h (0 Bft)
09.10.2018 08:33 11,4 °C 91 % 1020,1 hPa 0,0 mm 0,0 km/h (0 Bft) W-SW 251 ° 0 min 0,000 mm 0,0 UV-I 51 W/m² 10,0 °C 11,4 °C 0,0 km/h (0 Bft)
09.10.2018 08:34 11,4 °C 91 % 1020,1 hPa 0,0 mm 0,0 km/h (0 Bft) W-SW 251 ° 0 min 0,000 mm 0,0 UV-I 51 W/m² 10,0 °C 11,4 °C 0,0 km/h (0 Bft)
09.10.2018 08:35 11,4 °C 91 % 1020,1 hPa 0,0 mm 0,0 km/h (0 Bft) W-SW 251 ° 0 min 0,000 mm 0,0 UV-I 51 W/m² 10,0 °C 11,4 °C 0,0 km/h (0 Bft)
09.10.2018 08:36 11,4 °C 91 % 1020,1 hPa 0,0 mm 0,0 km/h (0 Bft) W-SW 251 ° 0 min 0,000 mm 0,0 UV-I 51 W/m² 10,0 °C 11,4 °C 0,0 km/h (0 Bft)
09.10.2018 08:37 11,4 °C 91 % 1020,1 hPa 0,0 mm 0,0 km/h (0 Bft) W-SW 251 ° 0 min 0,000 mm 0,0 UV-I 53 W/m² 10,0 °C 11,4 °C 0,0 km/h (0 Bft)
09.10.2018 08:38 11,4 °C 91 % 1020,0 hPa 0,0 mm 0,6 km/h (0 Bft) W-SW 251 ° 0 min 0,000 mm 0,0 UV-I 54 W/m² 10,0 °C 11,4 °C 4,8 km/h (1 Bft)
09.10.2018 08:39 11,4 °C 91 % 1020,1 hPa 0,0 mm 1,1 km/h (1 Bft) W-SW 251 ° 0 min 0,000 mm 0,0 UV-I 56 W/m² 10,0 °C 11,4 °C 4,8 km/h (1 Bft)
09.10.2018 08:40 11,4 °C 91 % 1020,0 hPa 0,0 mm 0,1 km/h (0 Bft) W-SW 251 ° 0 min 0,000 mm 0,0 UV-I 58 W/m² 10,0 °C 11,4 °C 1,6 km/h (1 Bft)
09.10.2018 08:41 11,4 °C 91 % 1020,0 hPa 0,0 mm 0,5 km/h (0 Bft) W-SW 251 ° 0 min 0,000 mm 0,0 UV-I 58 W/m² 10,0 °C 11,4 °C 1,6 km/h (1 Bft)
09.10.2018 08:42 11,4 °C 91 % 1020,0 hPa 0,0 mm 0,3 km/h (0 Bft) W-SW 251 ° 0 min 0,000 mm 0,0 UV-I 58 W/m² 10,0 °C 11,4 °C 1,6 km/h (1 Bft)
09.10.2018 08:43 11,4 °C 91 % 1020,0 hPa 0,0 mm 0,1 km/h (0 Bft) W-SW 251 ° 0 min 0,000 mm 0,0 UV-I 60 W/m² 10,0 °C 11,4 °C 1,6 km/h (1 Bft)
09.10.2018 08:44 11,4 °C 91 % 1020,0 hPa 0,0 mm 0,0 km/h (0 Bft) W-SW 251 ° 0 min 0,000 mm 0,0 UV-I 60 W/m² 10,0 °C 11,4 °C 0,0 km/h (0 Bft)
09.10.2018 08:45 11,4 °C 91 % 1020,0 hPa 0,0 mm 0,9 km/h (0 Bft) O 96 ° 0 min 0,000 mm 0,0 UV-I 58 W/m² 10,0 °C 11,4 °C 4,8 km/h (1 Bft)
09.10.2018 08:46 11,4 °C 91 % 1020,0 hPa 0,0 mm 0,3 km/h (0 Bft) O 88 ° 0 min 0,000 mm 0,0 UV-I 58 W/m² 10,0 °C 11,4 °C 1,6 km/h (1 Bft)
09.10.2018 08:47 11,4 °C 91 % 1020,0 hPa 0,0 mm 0,2 km/h (0 Bft) O 88 ° 0 min 0,000 mm 0,0 UV-I 58 W/m² 10,0 °C 11,4 °C 1,6 km/h (1 Bft)
09.10.2018 08:48 11,4 °C 91 % 1020,1 hPa 0,0 mm 0,2 km/h (0 Bft) O 88 ° 0 min 0,000 mm 0,0 UV-I 60 W/m² 10,0 °C 11,4 °C 1,6 km/h (1 Bft)
09.10.2018 08:49 11,5 °C 91 % 1020,1 hPa 0,0 mm 0,0 km/h (0 Bft) O 88 ° 0 min 0,000 mm 0,0 UV-I 60 W/m² 10,1 °C 11,5 °C 0,0 km/h (0 Bft)
09.10.2018 08:50 11,5 °C 91 % 1020,1 hPa 0,0 mm 0,0 km/h (0 Bft) O 88 ° 0 min 0,000 mm 0,0 UV-I 60 W/m² 10,1 °C 11,5 °C 0,0 km/h (0 Bft)
09.10.2018 08:51 11,5 °C 91 % 1020,1 hPa 0,0 mm 0,0 km/h (0 Bft) O 88 ° 0 min 0,000 mm 0,0 UV-I 67 W/m² 10,1 °C 11,5 °C 0,0 km/h (0 Bft)
09.10.2018 08:52 11,5 °C 91 % 1020,1 hPa 0,0 mm 0,0 km/h (0 Bft) O 88 ° 0 min 0,000 mm 0,0 UV-I 69 W/m² 10,1 °C 11,5 °C 0,0 km/h (0 Bft)
09.10.2018 08:53 11,5 °C 90 % 1020,1 hPa 0,0 mm 0,0 km/h (0 Bft) O 88 ° 0 min 0,000 mm 0,0 UV-I 72 W/m² 9,9 °C 11,5 °C 0,0 km/h (0 Bft)
09.10.2018 08:54 11,5 °C 91 % 1020,2 hPa 0,0 mm 0,0 km/h (0 Bft) O 88 ° 0 min 0,000 mm 0,0 UV-I 76 W/m² 10,1 °C 11,5 °C 0,0 km/h (0 Bft)
09.10.2018 08:55 11,5 °C 91 % 1020,1 hPa 0,0 mm 0,0 km/h (0 Bft) O 88 ° 0 min 0,000 mm 0,5 UV-I 86 W/m² 10,1 °C 11,5 °C 0,0 km/h (0 Bft)
09.10.2018 08:56 11,5 °C 90 % 1020,1 hPa 0,0 mm 0,0 km/h (0 Bft) O 88 ° 0 min 0,000 mm 0,5 UV-I 86 W/m² 9,9 °C 11,5 °C 0,0 km/h (0 Bft)
09.10.2018 08:57 11,5 °C 91 % 1020,1 hPa 0,0 mm 0,0 km/h (0 Bft) O 88 ° 0 min 0,000 mm 0,5 UV-I 84 W/m² 10,1 °C 11,5 °C 0,0 km/h (0 Bft)
09.10.2018 08:58 11,5 °C 90 % 1020,1 hPa 0,0 mm 0,0 km/h (0 Bft) O 88 ° 0 min 0,000 mm 0,5 UV-I 88 W/m² 9,9 °C 11,5 °C 0,0 km/h (0 Bft)
09.10.2018 08:59 11,5 °C 90 % 1020,1 hPa 0,0 mm 0,0 km/h (0 Bft) O 88 ° 0 min 0,000 mm 0,5 UV-I 90 W/m² 9,9 °C 11,5 °C 0,0 km/h (0 Bft)
09.10.2018 09:00 11,5 °C 90 % 1020,2 hPa 0,0 mm 0,0 km/h (0 Bft) O 88 ° 0 min 0,000 mm 0,5 UV-I 90 W/m² 9,9 °C 11,5 °C 0,0 km/h (0 Bft)
09.10.2018 09:01 11,6 °C 90 % 1020,2 hPa 0,0 mm 0,1 km/h (0 Bft) O 88 ° 0 min 0,025 mm 0,5 UV-I 91 W/m² 10,0 °C 11,6 °C 1,6 km/h (1 Bft)
09.10.2018 09:02 11,6 °C 90 % 1020,2 hPa 0,0 mm 0,0 km/h (0 Bft) O 88 ° 0 min 0,000 mm 0,5 UV-I 93 W/m² 10,0 °C 11,6 °C 0,0 km/h (0 Bft)
09.10.2018 09:03 11,6 °C 90 % 1020,2 hPa 0,0 mm 0,4 km/h (0 Bft) O 88 ° 0 min 0,000 mm 0,5 UV-I 95 W/m² 10,0 °C 11,6 °C 1,6 km/h (1 Bft)
09.10.2018 09:04 11,7 °C 90 % 1020,2 hPa 0,0 mm 1,1 km/h (1 Bft) O 88 ° 0 min 0,000 mm 0,6 UV-I 93 W/m² 10,1 °C 11,7 °C 3,2 km/h (1 Bft)
09.10.2018 09:05 11,7 °C 91 % 1020,2 hPa 0,0 mm 0,3 km/h (0 Bft) O-SO 106 ° 0 min 0,000 mm 0,6 UV-I 98 W/m² 10,3 °C 11,7 °C 1,6 km/h (1 Bft)
09.10.2018 09:06 11,7 °C 90 % 1020,2 hPa 0,0 mm 0,6 km/h (0 Bft) O-SO 123 ° 0 min 0,000 mm 0,6 UV-I 104 W/m² 10,1 °C 11,7 °C 3,2 km/h (1 Bft)
09.10.2018 09:07 11,7 °C 90 % 1020,2 hPa 0,0 mm 0,2 km/h (0 Bft) O-SO 123 ° 0 min 0,000 mm 0,6 UV-I 107 W/m² 10,1 °C 11,7 °C 1,6 km/h (1 Bft)
09.10.2018 09:08 11,7 °C 90 % 1020,1 hPa 0,0 mm 0,8 km/h (0 Bft) O-SO 123 ° 0 min 0,000 mm 0,7 UV-I 107 W/m² 10,1 °C 11,7 °C 1,6 km/h (1 Bft)
09.10.2018 09:09 11,7 °C 90 % 1020,1 hPa 0,0 mm 0,0 km/h (0 Bft) O-SO 123 ° 0 min 0,000 mm 0,7 UV-I 114 W/m² 10,1 °C 11,7 °C 0,0 km/h (0 Bft)
09.10.2018 09:10 11,7 °C 90 % 1020,0 hPa 0,0 mm 0,0 km/h (0 Bft) O-SO 123 ° 0 min 0,000 mm 0,7 UV-I 120 W/m² 10,1 °C 11,7 °C 0,0 km/h (0 Bft)
09.10.2018 09:11 11,7 °C 90 % 1020,0 hPa 0,0 mm 0,4 km/h (0 Bft) O-SO 123 ° 0 min 0,000 mm 0,7 UV-I 123 W/m² 10,1 °C 11,7 °C 1,6 km/h (1 Bft)
09.10.2018 09:12 11,8 °C 90 % 1020,0 hPa 0,0 mm 1,7 km/h (1 Bft) SW 223 ° 0 min 0,000 mm 0,7 UV-I 128 W/m² 10,2 °C 11,8 °C 4,8 km/h (1 Bft)
09.10.2018 09:13 11,8 °C 90 % 1020,0 hPa 0,0 mm 0,6 km/h (0 Bft) W-SW 250 ° 0 min 0,000 mm 0,8 UV-I 132 W/m² 10,2 °C 11,8 °C 3,2 km/h (1 Bft)
09.10.2018 09:14 11,8 °C 90 % 1020,0 hPa 0,0 mm 1,4 km/h (1 Bft) W-SW 251 ° 0 min 0,000 mm 0,8 UV-I 128 W/m² 10,2 °C 11,8 °C 3,2 km/h (1 Bft)
09.10.2018 09:15 11,8 °C 90 % 1020,0 hPa 0,0 mm 0,7 km/h (0 Bft) W-SW 251 ° 0 min 0,000 mm 0,8 UV-I 118 W/m² 10,2 °C 11,8 °C 3,2 km/h (1 Bft)
09.10.2018 09:16 11,8 °C 89 % 1020,0 hPa 0,0 mm 2,9 km/h (1 Bft) W-SW 255 ° 0 min 0,000 mm 0,8 UV-I 114 W/m² 10,0 °C 11,8 °C 4,8 km/h (1 Bft)
09.10.2018 09:17 11,7 °C 89 % 1020,0 hPa 0,0 mm 1,8 km/h (1 Bft) W-SW 255 ° 0 min 0,000 mm 0,8 UV-I 127 W/m² 9,9 °C 11,7 °C 3,2 km/h (1 Bft)
09.10.2018 09:18 11,7 °C 89 % 1020,0 hPa 0,0 mm 0,8 km/h (0 Bft) W-SW 255 ° 0 min 0,000 mm 0,8 UV-I 135 W/m² 9,9 °C 11,7 °C 1,6 km/h (1 Bft)
09.10.2018 09:19 11,8 °C 90 % 1019,9 hPa 0,0 mm 2,3 km/h (1 Bft) W-SW 255 ° 0 min 0,000 mm 0,9 UV-I 146 W/m² 10,2 °C 11,8 °C 3,2 km/h (1 Bft)
09.10.2018 09:20 11,8 °C 90 % 1019,9 hPa 0,0 mm 0,6 km/h (0 Bft) W-SW 255 ° 0 min 0,000 mm 0,9 UV-I 141 W/m² 10,2 °C 11,8 °C 3,2 km/h (1 Bft)
09.10.2018 09:21 11,8 °C 89 % 1019,9 hPa 0,0 mm 0,0 km/h (0 Bft) W-SW 255 ° 0 min 0,000 mm 0,9 UV-I 125 W/m² 10,0 °C 11,8 °C 0,0 km/h (0 Bft)
09.10.2018 09:22 11,8 °C 89 % 1020,0 hPa 0,0 mm 0,0 km/h (0 Bft) W-SW 255 ° 0 min 0,000 mm 0,9 UV-I 118 W/m² 10,0 °C 11,8 °C 0,0 km/h (0 Bft)
09.10.2018 09:23 11,8 °C 89 % 1020,0 hPa 0,0 mm 0,1 km/h (0 Bft) W 263 ° 0 min 0,000 mm 0,9 UV-I 116 W/m² 10,0 °C 11,8 °C 1,6 km/h (1 Bft)
09.10.2018 09:24 11,8 °C 89 % 1020,0 hPa 0,0 mm 1,0 km/h (0 Bft) W 263 ° 0 min 0,000 mm 0,9 UV-I 111 W/m² 10,0 °C 11,8 °C 1,6 km/h (1 Bft)
09.10.2018 09:25 11,8 °C 89 % 1019,9 hPa 0,0 mm 0,6 km/h (0 Bft) W 263 ° 0 min 0,000 mm 0,9 UV-I 105 W/m² 10,0 °C 11,8 °C 1,6 km/h (1 Bft)
09.10.2018 09:26 11,8 °C 89 % 1020,0 hPa 0,0 mm 0,0 km/h (0 Bft) W 263 ° 0 min 0,000 mm 0,9 UV-I 98 W/m² 10,0 °C 11,8 °C 0,0 km/h (0 Bft)
09.10.2018 09:27 11,8 °C 89 % 1020,0 hPa 0,0 mm 0,0 km/h (0 Bft) W 263 ° 0 min 0,000 mm 0,9 UV-I 77 W/m² 10,0 °C 11,8 °C 0,0 km/h (0 Bft)
09.10.2018 09:28 11,7 °C 89 % 1020,0 hPa 0,0 mm 0,5 km/h (0 Bft) W 263 ° 0 min 0,000 mm 0,9 UV-I 70 W/m² 9,9 °C 11,7 °C 1,6 km/h (1 Bft)
09.10.2018 09:29 11,7 °C 89 % 1019,9 hPa 0,0 mm 0,5 km/h (0 Bft) W 263 ° 0 min 0,000 mm 0,9 UV-I 63 W/m² 9,9 °C 11,7 °C 3,2 km/h (1 Bft)
09.10.2018 09:30 11,7 °C 89 % 1019,9 hPa 0,0 mm 1,2 km/h (1 Bft) O 80 ° 0 min 0,000 mm 0,9 UV-I 56 W/m² 9,9 °C 11,7 °C 4,8 km/h (1 Bft)
09.10.2018 09:31 11,7 °C 89 % 1020,0 hPa 0,0 mm 2,3 km/h (1 Bft) O 86 ° 0 min 0,000 mm 0,9 UV-I 62 W/m² 9,9 °C 11,7 °C 4,8 km/h (1 Bft)
09.10.2018 09:32 11,6 °C 89 % 1020,0 hPa 0,0 mm 0,7 km/h (0 Bft) O 86 ° 0 min 0,000 mm 0,9 UV-I 67 W/m² 9,8 °C 11,6 °C 1,6 km/h (1 Bft)
09.10.2018 09:33 11,5 °C 89 % 1020,0 hPa 0,0 mm 1,9 km/h (1 Bft) O 86 ° 0 min 0,000 mm 0,9 UV-I 69 W/m² 9,8 °C 11,5 °C 4,8 km/h (1 Bft)
09.10.2018 09:34 11,4 °C 89 % 1020,0 hPa 0,0 mm 0,6 km/h (0 Bft) O-SO 113 ° 0 min 0,000 mm 1,0 UV-I 67 W/m² 9,7 °C 11,4 °C 1,6 km/h (1 Bft)
09.10.2018 09:35 11,4 °C 89 % 1020,0 hPa 0,0 mm 0,1 km/h (0 Bft) S-SW 192 ° 0 min 0,000 mm 1,0 UV-I 63 W/m² 9,7 °C 11,4 °C 1,6 km/h (1 Bft)
09.10.2018 09:36 11,4 °C 89 % 1020,0 hPa 0,0 mm 1,8 km/h (1 Bft) S-SW 212 ° 0 min 0,000 mm 1,0 UV-I 58 W/m² 9,7 °C 11,4 °C 3,2 km/h (1 Bft)
09.10.2018 09:37 11,3 °C 89 % 1020,0 hPa 0,0 mm 1,0 km/h (0 Bft) W-SW 255 ° 0 min 0,000 mm 0,0 UV-I 51 W/m² 9,6 °C 11,3 °C 3,2 km/h (1 Bft)
09.10.2018 09:38 11,3 °C 89 % 1020,0 hPa 0,0 mm 2,1 km/h (1 Bft) W-SW 253 ° 0 min 0,000 mm 0,0 UV-I 46 W/m² 9,6 °C 11,3 °C 4,8 km/h (1 Bft)
09.10.2018 09:39 11,3 °C 90 % 1020,0 hPa 0,0 mm 0,4 km/h (0 Bft) W-SW 253 ° 0 min 0,000 mm 0,0 UV-I 47 W/m² 9,7 °C 11,3 °C 3,2 km/h (1 Bft)
09.10.2018 09:40 11,3 °C 90 % 1020,0 hPa 0,0 mm 1,8 km/h (1 Bft) W-SW 257 ° 0 min 0,000 mm 0,0 UV-I 54 W/m² 9,7 °C 11,3 °C 4,8 km/h (1 Bft)
09.10.2018 09:41 11,3 °C 90 % 1020,0 hPa 0,0 mm 1,5 km/h (1 Bft) SW 227 ° 0 min 0,000 mm 1,0 UV-I 56 W/m² 9,7 °C 11,3 °C 4,8 km/h (1 Bft)
09.10.2018 09:42 11,2 °C 90 % 1020,0 hPa 0,0 mm 1,6 km/h (1 Bft) SW 227 ° 0 min 0,000 mm 1,0 UV-I 69 W/m² 9,6 °C 11,2 °C 3,2 km/h (1 Bft)
09.10.2018 09:43 11,2 °C 90 % 1019,9 hPa 0,0 mm 0,7 km/h (0 Bft) SW 227 ° 0 min 0,000 mm 1,0 UV-I 69 W/m² 9,6 °C 11,2 °C 1,6 km/h (1 Bft)
09.10.2018 09:44 11,2 °C 90 % 1020,0 hPa 0,0 mm 2,8 km/h (1 Bft) W-SW 249 ° 0 min 0,000 mm 1,1 UV-I 69 W/m² 9,6 °C 11,2 °C 6,4 km/h (2 Bft)
09.10.2018 09:45 11,2 °C 90 % 1020,0 hPa 0,0 mm 0,1 km/h (0 Bft) W-SW 249 ° 0 min 0,000 mm 1,1 UV-I 63 W/m² 9,6 °C 11,2 °C 1,6 km/h (1 Bft)
09.10.2018 09:46 11,2 °C 90 % 1020,0 hPa 0,0 mm 0,0 km/h (0 Bft) W-SW 249 ° 0 min 0,000 mm 1,1 UV-I 56 W/m² 9,6 °C 11,2 °C 0,0 km/h (0 Bft)
09.10.2018 09:47 11,3 °C 90 % 1020,0 hPa 0,0 mm 0,0 km/h (0 Bft) W-SW 249 ° 0 min 0,000 mm 0,0 UV-I 54 W/m² 9,7 °C 11,3 °C 0,0 km/h (0 Bft)
09.10.2018 09:48 11,3 °C 90 % 1020,1 hPa 0,0 mm 0,7 km/h (0 Bft) W-SW 249 ° 0 min 0,000 mm 0,0 UV-I 53 W/m² 9,7 °C 11,3 °C 1,6 km/h (1 Bft)
09.10.2018 09:49 11,3 °C 90 % 1020,0 hPa 0,0 mm 1,1 km/h (1 Bft) W 267 ° 0 min 0,000 mm 1,1 UV-I 56 W/m² 9,7 °C 11,3 °C 3,2 km/h (1 Bft)
09.10.2018 09:50 11,3 °C 90 % 1020,1 hPa 0,0 mm 0,0 km/h (0 Bft) W 267 ° 0 min 0,000 mm 1,1 UV-I 58 W/m² 9,7 °C 11,3 °C 0,0 km/h (0 Bft)
09.10.2018 09:51 11,4 °C 90 % 1020,1 hPa 0,0 mm 0,9 km/h (0 Bft) W 266 ° 0 min 0,000 mm 1,1 UV-I 69 W/m² 9,8 °C 11,4 °C 3,2 km/h (1 Bft)
09.10.2018 09:52 11,4 °C 90 % 1020,1 hPa 0,0 mm 2,8 km/h (1 Bft) W-SW 242 ° 0 min 0,000 mm 1,2 UV-I 79 W/m² 9,8 °C 11,4 °C 3,2 km/h (1 Bft)
09.10.2018 09:53 11,4 °C 90 % 1020,1 hPa 0,0 mm 3,4 km/h (1 Bft) W 262 ° 0 min 0,000 mm 1,2 UV-I 84 W/m² 9,8 °C 11,4 °C 4,8 km/h (1 Bft)
09.10.2018 09:54 11,4 °C 90 % 1020,1 hPa 0,0 mm 3,4 km/h (1 Bft) W 260 ° 0 min 0,000 mm 1,2 UV-I 70 W/m² 9,8 °C 11,4 °C 4,8 km/h (1 Bft)
09.10.2018 09:55 11,5 °C 90 % 1020,1 hPa 0,0 mm 2,3 km/h (1 Bft) W 260 ° 0 min 0,000 mm 1,2 UV-I 67 W/m² 9,9 °C 11,5 °C 4,8 km/h (1 Bft)
09.10.2018 09:56 11,5 °C 90 % 1020,1 hPa 0,0 mm 0,2 km/h (0 Bft) W 260 ° 0 min 0,000 mm 1,2 UV-I 63 W/m² 9,9 °C 11,5 °C 1,6 km/h (1 Bft)
09.10.2018 09:57 11,6 °C 90 % 1020,1 hPa 0,0 mm 0,1 km/h (0 Bft) W 260 ° 0 min 0,000 mm 1,2 UV-I 65 W/m² 10,0 °C 11,6 °C 1,6 km/h (1 Bft)
09.10.2018 09:58 11,6 °C 89 % 1020,2 hPa 0,0 mm 0,7 km/h (0 Bft) W 260 ° 0 min 0,000 mm 1,2 UV-I 70 W/m² 9,8 °C 11,6 °C 1,6 km/h (1 Bft)
09.10.2018 09:59 11,6 °C 89 % 1020,3 hPa 0,0 mm 1,5 km/h (1 Bft) W 260 ° 0 min 0,000 mm 1,2 UV-I 70 W/m² 9,8 °C 11,6 °C 3,2 km/h (1 Bft)
09.10.2018 10:00 11,6 °C 90 % 1020,2 hPa 0,0 mm 1,4 km/h (1 Bft) W 260 ° 0 min 0,000 mm 1,2 UV-I 67 W/m² 10,0 °C 11,6 °C 3,2 km/h (1 Bft)
09.10.2018 10:01 11,6 °C 89 % 1020,3 hPa 0,0 mm 0,7 km/h (0 Bft) W 260 ° 0 min 0,051 mm 1,2 UV-I 69 W/m² 9,8 °C 11,6 °C 1,6 km/h (1 Bft)
09.10.2018 10:02 11,6 °C 89 % 1020,3 hPa 0,0 mm 0,0 km/h (0 Bft) W 260 ° 0 min 0,000 mm 1,2 UV-I 69 W/m² 9,8 °C 11,6 °C 0,0 km/h (0 Bft)
09.10.2018 10:03 11,7 °C 89 % 1020,3 hPa 0,0 mm 0,2 km/h (0 Bft) W 260 ° 0 min 0,000 mm 1,2 UV-I 79 W/m² 9,9 °C 11,7 °C 1,6 km/h (1 Bft)
09.10.2018 10:04 11,6 °C 89 % 1020,2 hPa 0,0 mm 0,4 km/h (0 Bft) W 260 ° 0 min 0,000 mm 1,3 UV-I 84 W/m² 9,8 °C 11,6 °C 1,6 km/h (1 Bft)
09.10.2018 10:05 11,6 °C 89 % 1020,3 hPa 0,0 mm 0,1 km/h (0 Bft) W 260 ° 0 min 0,000 mm 1,3 UV-I 98 W/m² 9,8 °C 11,6 °C 1,6 km/h (1 Bft)
09.10.2018 10:06 11,6 °C 89 % 1020,3 hPa 0,0 mm 0,0 km/h (0 Bft) W 260 ° 0 min 0,000 mm 1,3 UV-I 134 W/m² 9,8 °C 11,6 °C 0,0 km/h (0 Bft)
09.10.2018 10:07 11,7 °C 89 % 1020,4 hPa 0,0 mm 2,4 km/h (1 Bft) N-NW 329 ° 0 min 0,000 mm 1,3 UV-I 144 W/m² 9,9 °C 11,7 °C 3,2 km/h (1 Bft)
09.10.2018 10:08 11,8 °C 89 % 1020,4 hPa 0,0 mm 0,1 km/h (0 Bft) N-NW 329 ° 0 min 0,000 mm 1,3 UV-I 134 W/m² 10,0 °C 11,8 °C 1,6 km/h (1 Bft)
09.10.2018 10:09 11,8 °C 89 % 1020,4 hPa 0,0 mm 0,1 km/h (0 Bft) N-NW 329 ° 0 min 0,000 mm 1,3 UV-I 134 W/m² 10,0 °C 11,8 °C 1,6 km/h (1 Bft)
09.10.2018 10:10 11,8 °C 89 % 1020,4 hPa 0,0 mm 0,3 km/h (0 Bft) N-NW 329 ° 0 min 0,000 mm 1,3 UV-I 135 W/m² 10,0 °C 11,8 °C 1,6 km/h (1 Bft)
09.10.2018 10:11 11,9 °C 89 % 1020,4 hPa 0,0 mm 1,9 km/h (1 Bft) N-NW 329 ° 0 min 0,000 mm 1,3 UV-I 128 W/m² 10,1 °C 11,9 °C 3,2 km/h (1 Bft)
09.10.2018 10:12 12,0 °C 89 % 1020,5 hPa 0,0 mm 1,9 km/h (1 Bft) N-NW 331 ° 0 min 0,000 mm 1,3 UV-I 132 W/m² 10,2 °C 12,0 °C 3,2 km/h (1 Bft)
09.10.2018 10:13 12,1 °C 89 % 1020,4 hPa 0,0 mm 0,7 km/h (0 Bft) N-NW 331 ° 0 min 0,000 mm 1,4 UV-I 151 W/m² 10,3 °C 12,1 °C 1,6 km/h (1 Bft)
09.10.2018 10:14 12,2 °C 89 % 1020,4 hPa 0,0 mm 0,1 km/h (0 Bft) N-NW 331 ° 0 min 0,000 mm 1,4 UV-I 153 W/m² 10,4 °C 12,2 °C 1,6 km/h (1 Bft)
09.10.2018 10:15 12,3 °C 88 % 1020,5 hPa 0,0 mm 2,1 km/h (1 Bft) NW 309 ° 0 min 0,000 mm 1,4 UV-I 169 W/m² 10,4 °C 12,3 °C 4,8 km/h (1 Bft)
09.10.2018 10:16 12,4 °C 88 % 1020,5 hPa 0,0 mm 1,2 km/h (1 Bft) N-NW 336 ° 0 min 0,000 mm 1,4 UV-I 200 W/m² 10,5 °C 12,4 °C 3,2 km/h (1 Bft)
09.10.2018 10:17 12,4 °C 88 % 1020,4 hPa 0,0 mm 4,0 km/h (1 Bft) W-NW 296 ° 0 min 0,000 mm 1,4 UV-I 227 W/m² 10,5 °C 12,4 °C 11,3 km/h (2 Bft)
09.10.2018 10:18 12,6 °C 88 % 1020,5 hPa 0,0 mm 3,8 km/h (1 Bft) N 360 ° 0 min 0,000 mm 1,4 UV-I 234 W/m² 10,7 °C 12,6 °C 9,7 km/h (2 Bft)
09.10.2018 10:19 12,7 °C 88 % 1020,4 hPa 0,0 mm 5,0 km/h (1 Bft) W 279 ° 0 min 0,000 mm 1,3 UV-I 220 W/m² 10,8 °C 12,7 °C 11,3 km/h (2 Bft)
09.10.2018 10:20 12,7 °C 88 % 1020,4 hPa 0,0 mm 6,3 km/h (2 Bft) W-NW 296 ° 0 min 0,000 mm 1,3 UV-I 193 W/m² 10,8 °C 12,7 °C 11,3 km/h (2 Bft)
09.10.2018 10:21 12,8 °C 87 % 1020,4 hPa 0,0 mm 5,4 km/h (1 Bft) W-NW 285 ° 0 min 0,000 mm 1,2 UV-I 172 W/m² 10,7 °C 12,8 °C 9,7 km/h (2 Bft)
09.10.2018 10:22 12,8 °C 88 % 1020,5 hPa 0,0 mm 6,4 km/h (2 Bft) NW 323 ° 0 min 0,000 mm 1,2 UV-I 163 W/m² 10,9 °C 12,8 °C 9,7 km/h (2 Bft)
09.10.2018 10:23 12,8 °C 88 % 1020,5 hPa 0,0 mm 2,5 km/h (1 Bft) N-NW 331 ° 0 min 0,000 mm 1,2 UV-I 158 W/m² 10,9 °C 12,8 °C 6,4 km/h (2 Bft)
09.10.2018 10:24 12,8 °C 87 % 1020,5 hPa 0,0 mm 3,4 km/h (1 Bft) NW 309 ° 0 min 0,000 mm 1,2 UV-I 144 W/m² 10,7 °C 12,8 °C 6,4 km/h (2 Bft)
09.10.2018 10:25 12,7 °C 87 % 1020,5 hPa 0,0 mm 1,6 km/h (1 Bft) NW 306 ° 0 min 0,000 mm 1,2 UV-I 137 W/m² 10,6 °C 12,7 °C 4,8 km/h (1 Bft)
09.10.2018 10:26 12,7 °C 87 % 1020,5 hPa 0,0 mm 2,9 km/h (1 Bft) NW 308 ° 0 min 0,000 mm 1,1 UV-I 132 W/m² 10,6 °C 12,7 °C 4,8 km/h (1 Bft)
09.10.2018 10:27 12,7 °C 88 % 1020,5 hPa 0,0 mm 2,5 km/h (1 Bft) NW 324 ° 0 min 0,000 mm 1,1 UV-I 125 W/m² 10,8 °C 12,7 °C 6,4 km/h (2 Bft)
09.10.2018 10:28 12,7 °C 88 % 1020,5 hPa 0,0 mm 1,9 km/h (1 Bft) N-NW 347 ° 0 min 0,000 mm 1,1 UV-I 111 W/m² 10,8 °C 12,7 °C 4,8 km/h (1 Bft)
09.10.2018 10:29 12,7 °C 88 % 1020,6 hPa 0,0 mm 1,2 km/h (1 Bft) N-NW 347 ° 0 min 0,000 mm 1,1 UV-I 118 W/m² 10,8 °C 12,7 °C 3,2 km/h (1 Bft)
09.10.2018 10:30 12,7 °C 87 % 1020,6 hPa 0,0 mm 2,3 km/h (1 Bft) NW 315 ° 0 min 0,000 mm 1,2 UV-I 130 W/m² 10,6 °C 12,7 °C 6,4 km/h (2 Bft)
09.10.2018 10:31 12,6 °C 87 % 1020,6 hPa 0,0 mm 3,0 km/h (1 Bft) NW 320 ° 0 min 0,000 mm 1,2 UV-I 139 W/m² 10,5 °C 12,6 °C 4,8 km/h (1 Bft)
09.10.2018 10:32 12,6 °C 87 % 1020,6 hPa 0,0 mm 1,2 km/h (1 Bft) N-NW 327 ° 0 min 0,000 mm 1,2 UV-I 139 W/m² 10,5 °C 12,6 °C 3,2 km/h (1 Bft)
09.10.2018 10:33 12,6 °C 87 % 1020,6 hPa 0,0 mm 1,7 km/h (1 Bft) N-NW 327 ° 0 min 0,000 mm 1,3 UV-I 148 W/m² 10,5 °C 12,6 °C 3,2 km/h (1 Bft)
09.10.2018 10:34 12,6 °C 87 % 1020,6 hPa 0,0 mm 1,9 km/h (1 Bft) N-NW 327 ° 0 min 0,000 mm 1,3 UV-I 149 W/m² 10,5 °C 12,6 °C 3,2 km/h (1 Bft)
09.10.2018 10:35 12,6 °C 87 % 1020,6 hPa 0,0 mm 1,8 km/h (1 Bft) N-NW 327 ° 0 min 0,000 mm 1,3 UV-I 149 W/m² 10,5 °C 12,6 °C 3,2 km/h (1 Bft)
09.10.2018 10:36 12,6 °C 87 % 1020,6 hPa 0,0 mm 1,3 km/h (1 Bft) N-NW 327 ° 0 min 0,000 mm 1,3 UV-I 149 W/m² 10,5 °C 12,6 °C 3,2 km/h (1 Bft)
09.10.2018 10:37 12,6 °C 87 % 1020,6 hPa 0,0 mm 0,3 km/h (0 Bft) N-NW 327 ° 0 min 0,000 mm 1,2 UV-I 148 W/m² 10,5 °C 12,6 °C 1,6 km/h (1 Bft)
09.10.2018 10:38 12,6 °C 88 % 1020,6 hPa 0,0 mm 0,5 km/h (0 Bft) N-NW 327 ° 0 min 0,000 mm 1,2 UV-I 146 W/m² 10,7 °C 12,6 °C 1,6 km/h (1 Bft)
09.10.2018 10:39 12,6 °C 87 % 1020,6 hPa 0,0 mm 0,0 km/h (0 Bft) N-NW 327 ° 0 min 0,000 mm 1,2 UV-I 144 W/m² 10,5 °C 12,6 °C 0,0 km/h (0 Bft)
09.10.2018 10:40 12,6 °C 88 % 1020,5 hPa 0,0 mm 1,7 km/h (1 Bft) N-NW 327 ° 0 min 0,000 mm 1,2 UV-I 144 W/m² 10,7 °C 12,6 °C 3,2 km/h (1 Bft)
09.10.2018 10:41 12,7 °C 88 % 1020,5 hPa 0,0 mm 3,2 km/h (1 Bft) N-NW 327 ° 0 min 0,000 mm 1,3 UV-I 141 W/m² 10,8 °C 12,7 °C 4,8 km/h (1 Bft)
09.10.2018 10:42 12,7 °C 88 % 1020,5 hPa 0,0 mm 0,7 km/h (0 Bft) N-NW 327 ° 0 min 0,000 mm 1,3 UV-I 144 W/m² 10,8 °C 12,7 °C 3,2 km/h (1 Bft)
09.10.2018 10:43 12,7 °C 88 % 1020,5 hPa 0,0 mm 1,1 km/h (1 Bft) N-NW 327 ° 0 min 0,000 mm 1,3 UV-I 137 W/m² 10,8 °C 12,7 °C 3,2 km/h (1 Bft)
09.10.2018 10:44 12,7 °C 88 % 1020,5 hPa 0,0 mm 1,5 km/h (1 Bft) N-NW 327 ° 0 min 0,000 mm 1,3 UV-I 137 W/m² 10,8 °C 12,7 °C 3,2 km/h (1 Bft)
09.10.2018 10:45 12,7 °C 88 % 1020,5 hPa 0,0 mm 1,7 km/h (1 Bft) N-NW 327 ° 0 min 0,000 mm 1,3 UV-I 142 W/m² 10,8 °C 12,7 °C 3,2 km/h (1 Bft)
09.10.2018 10:46 12,7 °C 88 % 1020,5 hPa 0,0 mm 1,7 km/h (1 Bft) N-NW 327 ° 0 min 0,000 mm 1,3 UV-I 156 W/m² 10,8 °C 12,7 °C 3,2 km/h (1 Bft)
09.10.2018 10:47 12,7 °C 88 % 1020,5 hPa 0,0 mm 0,1 km/h (0 Bft) N-NW 327 ° 0 min 0,000 mm 1,3 UV-I 158 W/m² 10,8 °C 12,7 °C 1,6 km/h (1 Bft)
09.10.2018 10:48 12,8 °C 88 % 1020,5 hPa 0,0 mm 0,2 km/h (0 Bft) N-NW 327 ° 0 min 0,000 mm 1,2 UV-I 156 W/m² 10,9 °C 12,8 °C 1,6 km/h (1 Bft)
09.10.2018 10:49 12,8 °C 89 % 1020,5 hPa 0,0 mm 0,2 km/h (0 Bft) N-NW 327 ° 0 min 0,000 mm 1,2 UV-I 158 W/m² 11,0 °C 12,8 °C 1,6 km/h (1 Bft)
09.10.2018 10:50 12,8 °C 88 % 1020,5 hPa 0,0 mm 0,8 km/h (0 Bft) N-NW 327 ° 0 min 0,000 mm 1,2 UV-I 158 W/m² 10,9 °C 12,8 °C 1,6 km/h (1 Bft)
09.10.2018 10:51 12,8 °C 88 % 1020,6 hPa 0,0 mm 0,8 km/h (0 Bft) N-NW 327 ° 0 min 0,000 mm 1,2 UV-I 158 W/m² 10,9 °C 12,8 °C 1,6 km/h (1 Bft)
09.10.2018 10:52 12,8 °C 87 % 1020,5 hPa 0,0 mm 0,0 km/h (0 Bft) N-NW 327 ° 0 min 0,000 mm 1,2 UV-I 163 W/m² 10,7 °C 12,8 °C 0,0 km/h (0 Bft)
09.10.2018 10:53 12,8 °C 88 % 1020,6 hPa 0,0 mm 0,8 km/h (0 Bft) N-NW 327 ° 0 min 0,000 mm 1,2 UV-I 163 W/m² 10,9 °C 12,8 °C 3,2 km/h (1 Bft)
09.10.2018 10:54 12,8 °C 87 % 1020,6 hPa 0,0 mm 1,2 km/h (1 Bft) N-NW 327 ° 0 min 0,000 mm 1,2 UV-I 167 W/m² 10,7 °C 12,8 °C 1,6 km/h (1 Bft)
09.10.2018 10:55 12,8 °C 87 % 1020,6 hPa 0,0 mm 1,1 km/h (1 Bft) N-NW 327 ° 0 min 0,000 mm 1,2 UV-I 172 W/m² 10,7 °C 12,8 °C 1,6 km/h (1 Bft)
09.10.2018 10:56 12,9 °C 88 % 1020,6 hPa 0,0 mm 1,3 km/h (1 Bft) N-NW 327 ° 0 min 0,000 mm 1,2 UV-I 174 W/m² 11,0 °C 12,9 °C 3,2 km/h (1 Bft)
09.10.2018 10:57 12,9 °C 87 % 1020,6 hPa 0,0 mm 0,1 km/h (0 Bft) N-NW 327 ° 0 min 0,000 mm 1,2 UV-I 174 W/m² 10,8 °C 12,9 °C 1,6 km/h (1 Bft)
09.10.2018 10:58 12,9 °C 88 % 1020,6 hPa 0,0 mm 2,3 km/h (1 Bft) N-NW 327 ° 0 min 0,000 mm 1,2 UV-I 176 W/m² 11,0 °C 12,9 °C 4,8 km/h (1 Bft)
09.10.2018 10:59 12,9 °C 88 % 1020,6 hPa 0,0 mm 1,4 km/h (1 Bft) N-NW 327 ° 0 min 0,000 mm 1,2 UV-I 174 W/m² 11,0 °C 12,9 °C 3,2 km/h (1 Bft)
09.10.2018 11:00 13,1 °C 88 % 1020,6 hPa 0,0 mm 0,0 km/h (0 Bft) N-NW 327 ° 0 min 0,000 mm 1,2 UV-I 171 W/m² 11,2 °C 13,1 °C 0,0 km/h (0 Bft)
09.10.2018 11:01 13,1 °C 88 % 1020,6 hPa 0,0 mm 0,3 km/h (0 Bft) N-NW 327 ° 0 min 0,076 mm 1,2 UV-I 167 W/m² 11,2 °C 13,1 °C 1,6 km/h (1 Bft)
09.10.2018 11:02 13,1 °C 87 % 1020,5 hPa 0,0 mm 0,1 km/h (0 Bft) N-NW 327 ° 0 min 0,000 mm 1,2 UV-I 163 W/m² 11,0 °C 13,1 °C 1,6 km/h (1 Bft)
09.10.2018 11:03 13,1 °C 87 % 1020,5 hPa 0,0 mm 0,0 km/h (0 Bft) N-NW 327 ° 0 min 0,000 mm 1,2 UV-I 169 W/m² 11,0 °C 13,1 °C 0,0 km/h (0 Bft)
09.10.2018 11:04 13,1 °C 87 % 1020,5 hPa 0,0 mm 0,0 km/h (0 Bft) N-NW 327 ° 0 min 0,000 mm 1,2 UV-I 179 W/m² 11,0 °C 13,1 °C 0,0 km/h (0 Bft)
09.10.2018 11:05 13,1 °C 87 % 1020,5 hPa 0,0 mm 0,3 km/h (0 Bft) N-NW 327 ° 0 min 0,000 mm 1,3 UV-I 183 W/m² 11,0 °C 13,1 °C 3,2 km/h (1 Bft)
09.10.2018 11:06 13,1 °C 87 % 1020,5 hPa 0,0 mm 2,7 km/h (1 Bft) S 178 ° 0 min 0,000 mm 1,3 UV-I 186 W/m² 11,0 °C 13,1 °C 4,8 km/h (1 Bft)
09.10.2018 11:07 13,1 °C 87 % 1020,5 hPa 0,0 mm 3,9 km/h (1 Bft) S 178 ° 0 min 0,000 mm 1,3 UV-I 188 W/m² 11,0 °C 13,1 °C 6,4 km/h (2 Bft)
09.10.2018 11:08 13,0 °C 86 % 1020,5 hPa 0,0 mm 1,5 km/h (1 Bft) S 178 ° 0 min 0,000 mm 1,3 UV-I 188 W/m² 10,7 °C 13,0 °C 3,2 km/h (1 Bft)
09.10.2018 11:09 12,9 °C 87 % 1020,5 hPa 0,0 mm 0,1 km/h (0 Bft) S 178 ° 0 min 0,000 mm 1,3 UV-I 188 W/m² 10,8 °C 12,9 °C 1,6 km/h (1 Bft)
09.10.2018 11:10 12,9 °C 87 % 1020,5 hPa 0,0 mm 0,0 km/h (0 Bft) S 178 ° 0 min 0,000 mm 1,3 UV-I 193 W/m² 10,8 °C 12,9 °C 0,0 km/h (0 Bft)
09.10.2018 11:11 12,9 °C 86 % 1020,5 hPa 0,0 mm 0,0 km/h (0 Bft) S 178 ° 0 min 0,000 mm 1,3 UV-I 190 W/m² 10,6 °C 12,9 °C 0,0 km/h (0 Bft)
09.10.2018 11:12 12,9 °C 87 % 1020,5 hPa 0,0 mm 0,0 km/h (0 Bft) S 178 ° 0 min 0,000 mm 1,3 UV-I 185 W/m² 10,8 °C 12,9 °C 0,0 km/h (0 Bft)
09.10.2018 11:13 13,0 °C 88 % 1020,5 hPa 0,0 mm 0,0 km/h (0 Bft) S 178 ° 0 min 0,000 mm 1,3 UV-I 185 W/m² 11,1 °C 13,0 °C 0,0 km/h (0 Bft)
09.10.2018 11:14 13,1 °C 88 % 1020,5 hPa 0,0 mm 0,0 km/h (0 Bft) S 178 ° 0 min 0,000 mm 1,3 UV-I 188 W/m² 11,2 °C 13,1 °C 0,0 km/h (0 Bft)
09.10.2018 11:15 13,1 °C 88 % 1020,5 hPa 0,0 mm 0,0 km/h (0 Bft) S 178 ° 0 min 0,000 mm 1,3 UV-I 190 W/m² 11,2 °C 13,1 °C 0,0 km/h (0 Bft)
09.10.2018 11:16 13,1 °C 87 % 1020,6 hPa 0,0 mm 0,0 km/h (0 Bft) S 178 ° 0 min 0,000 mm 1,3 UV-I 188 W/m² 11,0 °C 13,1 °C 0,0 km/h (0 Bft)
09.10.2018 11:17 13,1 °C 87 % 1020,6 hPa 0,0 mm 0,0 km/h (0 Bft) S 178 ° 0 min 0,000 mm 1,3 UV-I 188 W/m² 11,0 °C 13,1 °C 0,0 km/h (0 Bft)
09.10.2018 11:18 13,1 °C 87 % 1020,5 hPa 0,0 mm 0,0 km/h (0 Bft) S 178 ° 0 min 0,000 mm 1,3 UV-I 190 W/m² 11,0 °C 13,1 °C 0,0 km/h (0 Bft)
09.10.2018 11:19 13,1 °C 87 % 1020,5 hPa 0,0 mm 0,0 km/h (0 Bft) S 178 ° 0 min 0,000 mm 1,3 UV-I 192 W/m² 11,0 °C 13,1 °C 0,0 km/h (0 Bft)
09.10.2018 11:20 13,1 °C 87 % 1020,5 hPa 0,0 mm 1,1 km/h (1 Bft) W 274 ° 0 min 0,000 mm 1,3 UV-I 195 W/m² 11,0 °C 13,1 °C 3,2 km/h (1 Bft)
09.10.2018 11:21 13,2 °C 87 % 1020,5 hPa 0,0 mm 0,1 km/h (0 Bft) W 274 ° 0 min 0,000 mm 1,3 UV-I 199 W/m² 11,1 °C 13,2 °C 1,6 km/h (1 Bft)
09.10.2018 11:22 13,3 °C 87 % 1020,5 hPa 0,0 mm 0,8 km/h (0 Bft) W 275 ° 0 min 0,000 mm 1,3 UV-I 204 W/m² 11,2 °C 13,3 °C 3,2 km/h (1 Bft)
09.10.2018 11:23 13,4 °C 88 % 1020,5 hPa 0,0 mm 2,4 km/h (1 Bft) W-NW 285 ° 0 min 0,000 mm 1,4 UV-I 204 W/m² 11,5 °C 13,4 °C 4,8 km/h (1 Bft)
09.10.2018 11:24 13,4 °C 87 % 1020,6 hPa 0,0 mm 1,1 km/h (1 Bft) W-NW 285 ° 0 min 0,000 mm 1,4 UV-I 202 W/m² 11,3 °C 13,4 °C 3,2 km/h (1 Bft)
09.10.2018 11:25 13,4 °C 86 % 1020,6 hPa 0,0 mm 0,0 km/h (0 Bft) W-NW 285 ° 0 min 0,000 mm 1,4 UV-I 202 W/m² 11,1 °C 13,4 °C 0,0 km/h (0 Bft)
09.10.2018 11:26 13,3 °C 86 % 1020,5 hPa 0,0 mm 0,0 km/h (0 Bft) W-NW 285 ° 0 min 0,000 mm 1,4 UV-I 200 W/m² 11,0 °C 13,3 °C 0,0 km/h (0 Bft)
09.10.2018 11:27 13,4 °C 86 % 1020,5 hPa 0,0 mm 0,0 km/h (0 Bft) W-NW 285 ° 0 min 0,000 mm 1,4 UV-I 204 W/m² 11,1 °C 13,4 °C 0,0 km/h (0 Bft)
09.10.2018 11:28 13,5 °C 88 % 1020,5 hPa 0,0 mm 0,1 km/h (0 Bft) W-NW 285 ° 0 min 0,000 mm 1,4 UV-I 207 W/m² 11,6 °C 13,5 °C 1,6 km/h (1 Bft)
09.10.2018 11:29 13,6 °C 87 % 1020,6 hPa 0,0 mm 0,0 km/h (0 Bft) W-NW 285 ° 0 min 0,000 mm 1,4 UV-I 213 W/m² 11,5 °C 13,6 °C 0,0 km/h (0 Bft)
09.10.2018 11:30 13,4 °C 86 % 1020,5 hPa 0,0 mm 0,2 km/h (0 Bft) W-NW 285 ° 0 min 0,000 mm 1,5 UV-I 220 W/m² 11,1 °C 13,4 °C 1,6 km/h (1 Bft)
09.10.2018 11:31 13,4 °C 86 % 1020,6 hPa 0,0 mm 1,8 km/h (1 Bft) W-NW 288 ° 0 min 0,000 mm 1,5 UV-I 223 W/m² 11,1 °C 13,4 °C 4,8 km/h (1 Bft)
09.10.2018 11:32 13,3 °C 86 % 1020,6 hPa 0,0 mm 4,8 km/h (1 Bft) N 355 ° 0 min 0,000 mm 1,5 UV-I 225 W/m² 11,0 °C 13,3 °C 6,4 km/h (2 Bft)
09.10.2018 11:33 13,4 °C 86 % 1020,5 hPa 0,0 mm 4,2 km/h (1 Bft) N 355 ° 0 min 0,000 mm 1,5 UV-I 225 W/m² 11,1 °C 13,4 °C 6,4 km/h (2 Bft)
09.10.2018 11:34 13,5 °C 87 % 1020,6 hPa 0,0 mm 0,5 km/h (0 Bft) N 355 ° 0 min 0,000 mm 1,5 UV-I 223 W/m² 11,4 °C 13,5 °C 3,2 km/h (1 Bft)
09.10.2018 11:35 13,5 °C 87 % 1020,5 hPa 0,0 mm 0,1 km/h (0 Bft) N 355 ° 0 min 0,000 mm 1,5 UV-I 221 W/m² 11,4 °C 13,5 °C 1,6 km/h (1 Bft)
09.10.2018 11:36 13,6 °C 87 % 1020,5 hPa 0,0 mm 2,7 km/h (1 Bft) N 355 ° 0 min 0,000 mm 1,5 UV-I 221 W/m² 11,5 °C 13,6 °C 4,8 km/h (1 Bft)
09.10.2018 11:37 13,7 °C 87 % 1020,5 hPa 0,0 mm 2,3 km/h (1 Bft) N 355 ° 0 min 0,000 mm 1,5 UV-I 225 W/m² 11,6 °C 13,7 °C 3,2 km/h (1 Bft)
09.10.2018 11:38 13,7 °C 86 % 1020,5 hPa 0,0 mm 0,3 km/h (0 Bft) N 355 ° 0 min 0,000 mm 1,5 UV-I 229 W/m² 11,4 °C 13,7 °C 1,6 km/h (1 Bft)
09.10.2018 11:39 13,7 °C 86 % 1020,5 hPa 0,0 mm 2,7 km/h (1 Bft) N 355 ° 0 min 0,000 mm 1,6 UV-I 236 W/m² 11,4 °C 13,7 °C 4,8 km/h (1 Bft)
09.10.2018 11:40 13,7 °C 86 % 1020,5 hPa 0,0 mm 2,4 km/h (1 Bft) N 355 ° 0 min 0,000 mm 1,6 UV-I 236 W/m² 11,4 °C 13,7 °C 4,8 km/h (1 Bft)
09.10.2018 11:41 13,8 °C 86 % 1020,5 hPa 0,0 mm 3,0 km/h (1 Bft) N 355 ° 0 min 0,000 mm 1,7 UV-I 232 W/m² 11,5 °C 13,8 °C 4,8 km/h (1 Bft)
09.10.2018 11:42 13,8 °C 86 % 1020,5 hPa 0,0 mm 2,7 km/h (1 Bft) N 350 ° 0 min 0,000 mm 1,6 UV-I 225 W/m² 11,5 °C 13,8 °C 4,8 km/h (1 Bft)
09.10.2018 11:43 13,7 °C 86 % 1020,5 hPa 0,0 mm 1,8 km/h (1 Bft) N 350 ° 0 min 0,000 mm 1,7 UV-I 230 W/m² 11,4 °C 13,7 °C 3,2 km/h (1 Bft)
09.10.2018 11:44 13,7 °C 85 % 1020,5 hPa 0,0 mm 0,7 km/h (0 Bft) N 350 ° 0 min 0,000 mm 1,7 UV-I 234 W/m² 11,2 °C 13,7 °C 1,6 km/h (1 Bft)
09.10.2018 11:45 13,7 °C 85 % 1020,5 hPa 0,0 mm 1,3 km/h (1 Bft) N 350 ° 0 min 0,000 mm 1,7 UV-I 234 W/m² 11,2 °C 13,7 °C 3,2 km/h (1 Bft)
09.10.2018 11:46 13,7 °C 86 % 1020,5 hPa 0,0 mm 1,8 km/h (1 Bft) N 350 ° 0 min 0,000 mm 1,7 UV-I 232 W/m² 11,4 °C 13,7 °C 3,2 km/h (1 Bft)
09.10.2018 11:47 13,7 °C 86 % 1020,4 hPa 0,0 mm 0,0 km/h (0 Bft) N 350 ° 0 min 0,000 mm 1,7 UV-I 213 W/m² 11,4 °C 13,7 °C 0,0 km/h (0 Bft)
09.10.2018 11:48 13,6 °C 85 % 1020,4 hPa 0,0 mm 0,1 km/h (0 Bft) N 350 ° 0 min 0,000 mm 1,7 UV-I 232 W/m² 11,1 °C 13,6 °C 1,6 km/h (1 Bft)
09.10.2018 11:49 13,7 °C 86 % 1020,4 hPa 0,0 mm 0,6 km/h (0 Bft) N 351 ° 0 min 0,000 mm 1,8 UV-I 246 W/m² 11,4 °C 13,7 °C 3,2 km/h (1 Bft)
09.10.2018 11:50 13,8 °C 86 % 1020,4 hPa 0,0 mm 2,4 km/h (1 Bft) N 355 ° 0 min 0,000 mm 1,8 UV-I 253 W/m² 11,5 °C 13,8 °C 3,2 km/h (1 Bft)
09.10.2018 11:51 13,7 °C 86 % 1020,5 hPa 0,0 mm 0,2 km/h (0 Bft) N 355 ° 0 min 0,000 mm 1,8 UV-I 258 W/m² 11,4 °C 13,7 °C 1,6 km/h (1 Bft)
09.10.2018 11:52 13,7 °C 86 % 1020,4 hPa 0,0 mm 0,2 km/h (0 Bft) N 355 ° 0 min 0,000 mm 1,9 UV-I 264 W/m² 11,4 °C 13,7 °C 1,6 km/h (1 Bft)
09.10.2018 11:53 13,7 °C 86 % 1020,4 hPa 0,0 mm 2,6 km/h (1 Bft) N 355 ° 0 min 0,000 mm 1,9 UV-I 265 W/m² 11,4 °C 13,7 °C 6,4 km/h (2 Bft)
09.10.2018 11:54 13,8 °C 86 % 1020,3 hPa 0,0 mm 1,8 km/h (1 Bft) N 355 ° 0 min 0,000 mm 1,9 UV-I 264 W/m² 11,5 °C 13,8 °C 4,8 km/h (1 Bft)
09.10.2018 11:55 13,9 °C 87 % 1020,4 hPa 0,0 mm 2,4 km/h (1 Bft) N 355 ° 0 min 0,000 mm 1,9 UV-I 262 W/m² 11,8 °C 13,9 °C 6,4 km/h (2 Bft)
09.10.2018 11:56 13,9 °C 86 % 1020,4 hPa 0,0 mm 2,0 km/h (1 Bft) N 355 ° 0 min 0,000 mm 2,0 UV-I 265 W/m² 11,6 °C 13,9 °C 4,8 km/h (1 Bft)
09.10.2018 11:57 13,9 °C 85 % 1020,4 hPa 0,0 mm 4,8 km/h (1 Bft) O-NO 76 ° 0 min 0,000 mm 2,0 UV-I 262 W/m² 11,4 °C 13,9 °C 8,0 km/h (2 Bft)
09.10.2018 11:58 13,9 °C 86 % 1020,4 hPa 0,0 mm 2,3 km/h (1 Bft) O-NO 71 ° 0 min 0,000 mm 2,1 UV-I 283 W/m² 11,6 °C 13,9 °C 6,4 km/h (2 Bft)
09.10.2018 11:59 13,8 °C 86 % 1020,3 hPa 0,0 mm 0,4 km/h (0 Bft) O-NO 63 ° 0 min 0,000 mm 2,2 UV-I 292 W/m² 11,5 °C 13,8 °C 3,2 km/h (1 Bft)
09.10.2018 12:00 13,9 °C 86 % 1020,4 hPa 0,0 mm 0,8 km/h (0 Bft) N-NW 327 ° 0 min 0,000 mm 2,2 UV-I 302 W/m² 11,6 °C 13,9 °C 3,2 km/h (1 Bft)
09.10.2018 12:01 13,9 °C 86 % 1020,3 hPa 0,0 mm 3,5 km/h (1 Bft) N-NW 346 ° 0 min 0,102 mm 2,4 UV-I 353 W/m² 11,6 °C 13,9 °C 6,4 km/h (2 Bft)
09.10.2018 12:02 14,0 °C 86 % 1020,4 hPa 0,0 mm 4,6 km/h (1 Bft) N 5 ° 0 min 0,000 mm 2,5 UV-I 373 W/m² 11,7 °C 14,0 °C 6,4 km/h (2 Bft)
09.10.2018 12:03 14,1 °C 86 % 1020,4 hPa 0,0 mm 3,2 km/h (1 Bft) N 355 ° 0 min 0,000 mm 2,6 UV-I 339 W/m² 11,8 °C 14,1 °C 4,8 km/h (1 Bft)
09.10.2018 12:04 14,2 °C 85 % 1020,4 hPa 0,0 mm 1,1 km/h (1 Bft) N-NO 22 ° 0 min 0,000 mm 2,4 UV-I 325 W/m² 11,7 °C 14,2 °C 3,2 km/h (1 Bft)
09.10.2018 12:05 14,1 °C 84 % 1020,3 hPa 0,0 mm 2,3 km/h (1 Bft) NW 313 ° 0 min 0,000 mm 2,4 UV-I 304 W/m² 11,4 °C 14,1 °C 6,4 km/h (2 Bft)
09.10.2018 12:06 14,2 °C 85 % 1020,3 hPa 0,0 mm 5,0 km/h (1 Bft) N 355 ° 0 min 0,000 mm 2,8 UV-I 353 W/m² 11,7 °C 14,2 °C 6,4 km/h (2 Bft)
09.10.2018 12:07 14,2 °C 85 % 1020,3 hPa 0,0 mm 5,0 km/h (1 Bft) N-NO 17 ° 0 min 0,000 mm 2,4 UV-I 304 W/m² 11,7 °C 14,2 °C 8,0 km/h (2 Bft)
09.10.2018 12:08 14,2 °C 84 % 1020,3 hPa 0,0 mm 4,1 km/h (1 Bft) N 5 ° 0 min 0,000 mm 2,3 UV-I 271 W/m² 11,5 °C 14,2 °C 4,8 km/h (1 Bft)
09.10.2018 12:09 14,2 °C 84 % 1020,4 hPa 0,0 mm 3,6 km/h (1 Bft) N 360 ° 0 min 0,000 mm 3,0 UV-I 290 W/m² 11,5 °C 14,2 °C 4,8 km/h (1 Bft)
09.10.2018 12:10 14,2 °C 84 % 1020,3 hPa 0,0 mm 5,4 km/h (1 Bft) N 355 ° 0 min 0,000 mm 2,4 UV-I 283 W/m² 11,5 °C 14,2 °C 8,0 km/h (2 Bft)
09.10.2018 12:11 14,2 °C 85 % 1020,3 hPa 0,0 mm 2,9 km/h (1 Bft) N 355 ° 0 min 0,000 mm 2,4 UV-I 274 W/m² 11,7 °C 14,2 °C 4,8 km/h (1 Bft)
09.10.2018 12:12 14,2 °C 85 % 1020,4 hPa 0,0 mm 1,8 km/h (1 Bft) N 350 ° 0 min 0,000 mm 2,3 UV-I 253 W/m² 11,7 °C 14,2 °C 3,2 km/h (1 Bft)
09.10.2018 12:13 14,3 °C 85 % 1020,3 hPa 0,0 mm 1,3 km/h (1 Bft) N 9 ° 0 min 0,000 mm 2,3 UV-I 264 W/m² 11,8 °C 14,3 °C 3,2 km/h (1 Bft)
09.10.2018 12:14 14,2 °C 84 % 1020,3 hPa 0,0 mm 1,7 km/h (1 Bft) NO 45 ° 0 min 0,000 mm 2,3 UV-I 244 W/m² 11,5 °C 14,2 °C 3,2 km/h (1 Bft)
09.10.2018 12:15 14,1 °C 84 % 1020,3 hPa 0,0 mm 1,3 km/h (1 Bft) NO 45 ° 0 min 0,000 mm 2,5 UV-I 287 W/m² 11,4 °C 14,1 °C 3,2 km/h (1 Bft)
09.10.2018 12:16 14,0 °C 84 % 1020,4 hPa 0,0 mm 0,5 km/h (0 Bft) N-NO 13 ° 0 min 0,000 mm 2,5 UV-I 315 W/m² 11,3 °C 14,0 °C 1,6 km/h (1 Bft)
09.10.2018 12:17 13,9 °C 85 % 1020,3 hPa 0,0 mm 0,1 km/h (0 Bft) N-NO 13 ° 0 min 0,000 mm 3,4 UV-I 330 W/m² 11,4 °C 13,9 °C 1,6 km/h (1 Bft)
09.10.2018 12:18 14,1 °C 86 % 1020,3 hPa 0,0 mm 0,6 km/h (0 Bft) N-NO 13 ° 0 min 0,000 mm 2,5 UV-I 311 W/m² 11,8 °C 14,1 °C 1,6 km/h (1 Bft)
09.10.2018 12:19 14,1 °C 84 % 1020,3 hPa 0,0 mm 5,1 km/h (1 Bft) NO 37 ° 0 min 0,000 mm 2,5 UV-I 264 W/m² 11,4 °C 14,1 °C 8,0 km/h (2 Bft)
09.10.2018 12:20 14,0 °C 84 % 1020,3 hPa 0,0 mm 2,3 km/h (1 Bft) NO 37 ° 0 min 0,000 mm 2,7 UV-I 366 W/m² 11,3 °C 14,0 °C 4,8 km/h (1 Bft)
09.10.2018 12:21 14,0 °C 84 % 1020,3 hPa 0,0 mm 0,1 km/h (0 Bft) NO 37 ° 0 min 0,000 mm 2,6 UV-I 274 W/m² 11,3 °C 14,0 °C 1,6 km/h (1 Bft)
09.10.2018 12:22 13,9 °C 84 % 1020,4 hPa 0,0 mm 0,7 km/h (0 Bft) NO 37 ° 0 min 0,000 mm 3,3 UV-I 274 W/m² 11,2 °C 13,9 °C 1,6 km/h (1 Bft)
09.10.2018 12:23 14,1 °C 85 % 1020,3 hPa 0,0 mm 0,7 km/h (0 Bft) NO 37 ° 0 min 0,000 mm 2,4 UV-I 274 W/m² 11,6 °C 14,1 °C 4,8 km/h (1 Bft)
09.10.2018 12:24 14,2 °C 86 % 1020,3 hPa 0,0 mm 2,8 km/h (1 Bft) O 80 ° 0 min 0,000 mm 2,4 UV-I 225 W/m² 11,9 °C 14,2 °C 4,8 km/h (1 Bft)
09.10.2018 12:25 14,2 °C 85 % 1020,3 hPa 0,0 mm 1,2 km/h (1 Bft) NO 53 ° 0 min 0,000 mm 2,6 UV-I 260 W/m² 11,7 °C 14,2 °C 4,8 km/h (1 Bft)
09.10.2018 12:26 14,2 °C 84 % 1020,3 hPa 0,0 mm 1,3 km/h (1 Bft) O-NO 65 ° 0 min 0,000 mm 2,6 UV-I 336 W/m² 11,5 °C 14,2 °C 4,8 km/h (1 Bft)
09.10.2018 12:27 14,2 °C 84 % 1020,3 hPa 0,0 mm 2,3 km/h (1 Bft) O-NO 65 ° 0 min 0,000 mm 3,9 UV-I 336 W/m² 11,5 °C 14,2 °C 4,8 km/h (1 Bft)
09.10.2018 12:28 14,3 °C 84 % 1020,3 hPa 0,0 mm 2,8 km/h (1 Bft) N-NO 26 ° 0 min 0,000 mm 3,7 UV-I 336 W/m² 11,6 °C 14,3 °C 4,8 km/h (1 Bft)
09.10.2018 12:29 14,4 °C 84 % 1020,3 hPa 0,0 mm 6,8 km/h (2 Bft) N-NO 13 ° 0 min 0,000 mm 3,6 UV-I 578 W/m² 11,7 °C 14,4 °C 9,7 km/h (2 Bft)
09.10.2018 12:30 14,6 °C 83 % 1020,3 hPa 0,0 mm 7,2 km/h (2 Bft) O-NO 58 ° 0 min 0,000 mm 3,8 UV-I 578 W/m² 11,7 °C 14,6 °C 9,7 km/h (2 Bft)
09.10.2018 12:31 14,7 °C 82 % 1020,3 hPa 0,0 mm 2,3 km/h (1 Bft) O-NO 62 ° 0 min 0,000 mm 3,1 UV-I 371 W/m² 11,7 °C 14,7 °C 6,4 km/h (2 Bft)
09.10.2018 12:32 14,7 °C 82 % 1020,3 hPa 0,0 mm 1,8 km/h (1 Bft) O-NO 77 ° 0 min 0,000 mm 3,5 UV-I 381 W/m² 11,7 °C 14,7 °C 3,2 km/h (1 Bft)
09.10.2018 12:33 14,7 °C 82 % 1020,2 hPa 0,0 mm 1,5 km/h (1 Bft) NO 46 ° 0 min 0,000 mm 3,1 UV-I 424 W/m² 11,7 °C 14,7 °C 3,2 km/h (1 Bft)
09.10.2018 12:34 14,7 °C 83 % 1020,2 hPa 0,0 mm 1,6 km/h (1 Bft) NO 46 ° 0 min 0,000 mm 3,2 UV-I 385 W/m² 11,8 °C 14,7 °C 3,2 km/h (1 Bft)
09.10.2018 12:35 14,8 °C 83 % 1020,1 hPa 0,0 mm 5,0 km/h (1 Bft) O-SO 111 ° 0 min 0,000 mm 3,3 UV-I 385 W/m² 11,9 °C 14,8 °C 8,0 km/h (2 Bft)
09.10.2018 12:36 14,7 °C 81 % 1020,1 hPa 0,0 mm 3,8 km/h (1 Bft) SO 129 ° 0 min 0,000 mm 3,6 UV-I 385 W/m² 11,5 °C 14,7 °C 8,0 km/h (2 Bft)
09.10.2018 12:37 14,7 °C 81 % 1020,1 hPa 0,0 mm 1,5 km/h (1 Bft) O-SO 104 ° 0 min 0,000 mm 3,2 UV-I 596 W/m² 11,5 °C 14,7 °C 3,2 km/h (1 Bft)
09.10.2018 12:38 14,7 °C 82 % 1020,1 hPa 0,0 mm 4,7 km/h (1 Bft) O-NO 68 ° 1 min 0,000 mm 3,7 UV-I 650 W/m² 11,7 °C 14,7 °C 9,7 km/h (2 Bft)
09.10.2018 12:39 14,7 °C 82 % 1020,1 hPa 0,0 mm 0,8 km/h (0 Bft) O-NO 68 ° 1 min 0,000 mm 3,7 UV-I 615 W/m² 11,7 °C 14,7 °C 1,6 km/h (1 Bft)
09.10.2018 12:40 14,8 °C 83 % 1020,1 hPa 0,0 mm 5,0 km/h (1 Bft) O 86 ° 1 min 0,000 mm 3,7 UV-I 619 W/m² 11,9 °C 14,8 °C 6,4 km/h (2 Bft)
09.10.2018 12:41 14,8 °C 82 % 1020,0 hPa 0,0 mm 6,3 km/h (2 Bft) O 86 ° 1 min 0,000 mm 3,7 UV-I 615 W/m² 11,8 °C 14,8 °C 9,7 km/h (2 Bft)
09.10.2018 12:42 14,8 °C 82 % 1020,1 hPa 0,0 mm 6,2 km/h (2 Bft) O 95 ° 1 min 0,000 mm 3,8 UV-I 629 W/m² 11,8 °C 14,8 °C 11,3 km/h (2 Bft)
09.10.2018 12:43 14,8 °C 82 % 1020,1 hPa 0,0 mm 3,5 km/h (1 Bft) O-NO 68 ° 0 min 0,000 mm 3,6 UV-I 582 W/m² 11,8 °C 14,8 °C 6,4 km/h (2 Bft)
09.10.2018 12:44 14,8 °C 82 % 1020,1 hPa 0,0 mm 4,6 km/h (1 Bft) NO 47 ° 0 min 0,000 mm 3,2 UV-I 441 W/m² 11,8 °C 14,8 °C 9,7 km/h (2 Bft)
09.10.2018 12:45 14,8 °C 82 % 1020,1 hPa 0,0 mm 4,2 km/h (1 Bft) O 84 ° 0 min 0,000 mm 3,7 UV-I 441 W/m² 11,8 °C 14,8 °C 8,0 km/h (2 Bft)
09.10.2018 12:46 14,9 °C 82 % 1020,1 hPa 0,0 mm 3,0 km/h (1 Bft) O 84 ° 0 min 0,000 mm 2,7 UV-I 441 W/m² 11,9 °C 14,9 °C 6,4 km/h (2 Bft)
09.10.2018 12:47 14,9 °C 81 % 1020,1 hPa 0,0 mm 4,4 km/h (1 Bft) NO 46 ° 0 min 0,000 mm 2,3 UV-I 441 W/m² 11,7 °C 14,9 °C 6,4 km/h (2 Bft)
09.10.2018 12:48 14,9 °C 81 % 1020,1 hPa 0,0 mm 2,6 km/h (1 Bft) O 84 ° 0 min 0,000 mm 3,6 UV-I 441 W/m² 11,7 °C 14,9 °C 3,2 km/h (1 Bft)
09.10.2018 12:49 14,9 °C 82 % 1020,1 hPa 0,0 mm 1,3 km/h (1 Bft) O-SO 103 ° 0 min 0,000 mm 3,6 UV-I 441 W/m² 11,9 °C 14,9 °C 6,4 km/h (2 Bft)
09.10.2018 12:50 14,9 °C 81 % 1020,1 hPa 0,0 mm 4,5 km/h (1 Bft) O-NO 78 ° 0 min 0,000 mm 3,5 UV-I 570 W/m² 11,7 °C 14,9 °C 6,4 km/h (2 Bft)
09.10.2018 12:51 14,9 °C 81 % 1020,1 hPa 0,0 mm 0,5 km/h (0 Bft) O-NO 78 ° 0 min 0,000 mm 3,6 UV-I 599 W/m² 11,7 °C 14,9 °C 1,6 km/h (1 Bft)
09.10.2018 12:52 15,0 °C 81 % 1020,1 hPa 0,0 mm 0,9 km/h (0 Bft) O-SO 120 ° 0 min 0,000 mm 3,7 UV-I 585 W/m² 11,8 °C 15,0 °C 4,8 km/h (1 Bft)
09.10.2018 12:53 15,0 °C 82 % 1020,1 hPa 0,0 mm 4,0 km/h (1 Bft) O-NO 75 ° 0 min 0,000 mm 3,7 UV-I 591 W/m² 12,0 °C 15,0 °C 6,4 km/h (2 Bft)
09.10.2018 12:54 15,1 °C 82 % 1020,1 hPa 0,0 mm 1,5 km/h (1 Bft) O 93 ° 0 min 0,000 mm 3,7 UV-I 555 W/m² 12,0 °C 15,1 °C 3,2 km/h (1 Bft)
09.10.2018 12:55 15,2 °C 82 % 1020,0 hPa 0,0 mm 2,7 km/h (1 Bft) O 82 ° 1 min 0,000 mm 3,8 UV-I 612 W/m² 12,1 °C 15,2 °C 4,8 km/h (1 Bft)
09.10.2018 12:56 15,2 °C 81 % 1020,0 hPa 0,0 mm 3,3 km/h (1 Bft) O-NO 77 ° 1 min 0,000 mm 3,8 UV-I 603 W/m² 12,0 °C 15,2 °C 4,8 km/h (1 Bft)
09.10.2018 12:57 15,3 °C 81 % 1020,0 hPa 0,0 mm 3,8 km/h (1 Bft) O 96 ° 0 min 0,000 mm 3,7 UV-I 587 W/m² 12,1 °C 15,3 °C 6,4 km/h (2 Bft)
09.10.2018 12:58 15,4 °C 81 % 1020,0 hPa 0,0 mm 2,9 km/h (1 Bft) O 96 ° 1 min 0,000 mm 3,8 UV-I 622 W/m² 12,2 °C 15,4 °C 4,8 km/h (1 Bft)
09.10.2018 12:59 15,4 °C 80 % 1020,0 hPa 0,0 mm 0,2 km/h (0 Bft) O 96 ° 1 min 0,000 mm 3,9 UV-I 631 W/m² 12,0 °C 15,4 °C 1,6 km/h (1 Bft)
09.10.2018 13:00 15,4 °C 81 % 1020,0 hPa 0,0 mm 0,0 km/h (0 Bft) O 96 ° 1 min 0,000 mm 3,8 UV-I 615 W/m² 12,2 °C 15,4 °C 0,0 km/h (0 Bft)
09.10.2018 13:01 15,7 °C 80 % 1020,0 hPa 0,0 mm 0,9 km/h (0 Bft) N 11 ° 0 min 0,229 mm 3,8 UV-I 564 W/m² 12,3 °C 15,7 °C 1,6 km/h (1 Bft)
09.10.2018 13:02 15,8 °C 81 % 1020,0 hPa 0,0 mm 2,1 km/h (1 Bft) N 11 ° 1 min 0,000 mm 3,9 UV-I 619 W/m² 12,5 °C 15,8 °C 4,8 km/h (1 Bft)
09.10.2018 13:03 15,9 °C 80 % 1019,9 hPa 0,0 mm 1,7 km/h (1 Bft) N 10 ° 1 min 0,000 mm 3,8 UV-I 629 W/m² 12,5 °C 15,9 °C 3,2 km/h (1 Bft)
09.10.2018 13:04 16,1 °C 80 % 1019,9 hPa 0,0 mm 1,9 km/h (1 Bft) N-NO 30 ° 0 min 0,000 mm 3,7 UV-I 577 W/m² 12,6 °C 16,1 °C 3,2 km/h (1 Bft)
09.10.2018 13:05 16,1 °C 79 % 1019,9 hPa 0,0 mm 3,0 km/h (1 Bft) O 86 ° 1 min 0,000 mm 3,8 UV-I 621 W/m² 12,5 °C 16,1 °C 4,8 km/h (1 Bft)
09.10.2018 13:06 16,1 °C 78 % 1019,9 hPa 0,0 mm 1,9 km/h (1 Bft) N-NO 19 ° 1 min 0,000 mm 3,9 UV-I 645 W/m² 12,3 °C 16,1 °C 4,8 km/h (1 Bft)
09.10.2018 13:07 16,1 °C 80 % 1019,9 hPa 0,0 mm 5,5 km/h (1 Bft) O-NO 59 ° 1 min 0,000 mm 3,9 UV-I 628 W/m² 12,6 °C 16,1 °C 8,0 km/h (2 Bft)
09.10.2018 13:08 16,2 °C 79 % 1019,9 hPa 0,0 mm 2,5 km/h (1 Bft) O-NO 74 ° 1 min 0,000 mm 3,9 UV-I 643 W/m² 12,6 °C 16,2 °C 4,8 km/h (1 Bft)
09.10.2018 13:09 16,2 °C 78 % 1019,9 hPa 0,0 mm 0,6 km/h (0 Bft) O-NO 73 ° 1 min 0,000 mm 3,7 UV-I 605 W/m² 12,4 °C 16,2 °C 1,6 km/h (1 Bft)
09.10.2018 13:10 16,2 °C 79 % 1020,0 hPa 0,0 mm 3,9 km/h (1 Bft) N-NO 25 ° 0 min 0,000 mm 3,7 UV-I 592 W/m² 12,6 °C 16,2 °C 4,8 km/h (1 Bft)
09.10.2018 13:11 16,2 °C 78 % 1019,9 hPa 0,0 mm 1,7 km/h (1 Bft) N-NW 344 ° 0 min 0,000 mm 3,5 UV-I 520 W/m² 12,4 °C 16,2 °C 4,8 km/h (1 Bft)
09.10.2018 13:12 16,2 °C 78 % 1019,9 hPa 0,0 mm 5,1 km/h (1 Bft) N-NO 32 ° 0 min 0,000 mm 3,3 UV-I 520 W/m² 12,4 °C 16,2 °C 9,7 km/h (2 Bft)
09.10.2018 13:13 16,3 °C 78 % 1019,9 hPa 0,0 mm 10,9 km/h (2 Bft) N 349 ° 0 min 0,000 mm 3,5 UV-I 543 W/m² 12,5 °C 16,3 °C 14,5 km/h (3 Bft)
09.10.2018 13:14 16,3 °C 77 % 1019,8 hPa 0,0 mm 8,2 km/h (2 Bft) NO 53 ° 0 min 0,000 mm 3,5 UV-I 541 W/m² 12,3 °C 16,3 °C 12,9 km/h (3 Bft)
09.10.2018 13:15 16,3 °C 78 % 1019,8 hPa 0,0 mm 4,7 km/h (1 Bft) N 11 ° 0 min 0,000 mm 3,7 UV-I 540 W/m² 12,5 °C 16,3 °C 8,0 km/h (2 Bft)
09.10.2018 13:16 16,3 °C 78 % 1019,9 hPa 0,0 mm 5,0 km/h (1 Bft) NO 47 ° 1 min 0,000 mm 3,7 UV-I 601 W/m² 12,5 °C 16,3 °C 11,3 km/h (2 Bft)
09.10.2018 13:17 16,4 °C 78 % 1019,8 hPa 0,0 mm 3,8 km/h (1 Bft) NO 34 ° 1 min 0,000 mm 3,7 UV-I 621 W/m² 12,6 °C 16,4 °C 4,8 km/h (1 Bft)
09.10.2018 13:18 16,5 °C 79 % 1019,8 hPa 0,0 mm 5,0 km/h (1 Bft) NO 38 ° 0 min 0,000 mm 3,7 UV-I 596 W/m² 12,8 °C 16,5 °C 9,7 km/h (2 Bft)
09.10.2018 13:19 16,4 °C 77 % 1019,8 hPa 0,0 mm 4,2 km/h (1 Bft) NO 38 ° 0 min 0,000 mm 3,5 UV-I 529 W/m² 12,4 °C 16,4 °C 8,0 km/h (2 Bft)
09.10.2018 13:20 16,3 °C 77 % 1019,8 hPa 0,0 mm 3,7 km/h (1 Bft) NO 44 ° 0 min 0,000 mm 3,5 UV-I 529 W/m² 12,3 °C 16,3 °C 6,4 km/h (2 Bft)
09.10.2018 13:21 16,3 °C 77 % 1019,7 hPa 0,0 mm 1,8 km/h (1 Bft) NO 44 ° 0 min 0,000 mm 3,4 UV-I 529 W/m² 12,3 °C 16,3 °C 4,8 km/h (1 Bft)
09.10.2018 13:22 16,2 °C 78 % 1019,8 hPa 0,0 mm 2,3 km/h (1 Bft) N-NO 15 ° 0 min 0,000 mm 3,6 UV-I 548 W/m² 12,4 °C 16,2 °C 6,4 km/h (2 Bft)
09.10.2018 13:23 16,3 °C 80 % 1019,7 hPa 0,0 mm 6,0 km/h (2 Bft) NO 42 ° 0 min 0,000 mm 3,6 UV-I 563 W/m² 12,8 °C 16,3 °C 9,7 km/h (2 Bft)
09.10.2018 13:24 16,3 °C 79 % 1019,8 hPa 0,0 mm 3,2 km/h (1 Bft) N 5 ° 0 min 0,000 mm 3,6 UV-I 517 W/m² 12,6 °C 16,3 °C 6,4 km/h (2 Bft)
09.10.2018 13:25 16,3 °C 78 % 1019,8 hPa 0,0 mm 5,6 km/h (1 Bft) N 5 ° 0 min 0,000 mm 3,4 UV-I 512 W/m² 12,5 °C 16,3 °C 8,0 km/h (2 Bft)
09.10.2018 13:26 16,4 °C 78 % 1019,7 hPa 0,0 mm 4,5 km/h (1 Bft) NO 55 ° 0 min 0,000 mm 3,5 UV-I 526 W/m² 12,6 °C 16,4 °C 8,0 km/h (2 Bft)
09.10.2018 13:27 16,3 °C 79 % 1019,8 hPa 0,0 mm 5,6 km/h (1 Bft) O-NO 71 ° 0 min 0,000 mm 3,4 UV-I 534 W/m² 12,6 °C 16,3 °C 8,0 km/h (2 Bft)
09.10.2018 13:28 16,2 °C 78 % 1019,8 hPa 0,0 mm 3,9 km/h (1 Bft) O-NO 58 ° 0 min 0,000 mm 3,4 UV-I 494 W/m² 12,4 °C 16,2 °C 6,4 km/h (2 Bft)
09.10.2018 13:29 16,2 °C 79 % 1019,7 hPa 0,0 mm 3,6 km/h (1 Bft) O-NO 59 ° 0 min 0,000 mm 3,5 UV-I 566 W/m² 12,6 °C 16,2 °C 6,4 km/h (2 Bft)
09.10.2018 13:30 16,2 °C 79 % 1019,7 hPa 0,0 mm 3,4 km/h (1 Bft) O-NO 77 ° 0 min 0,000 mm 3,2 UV-I 517 W/m² 12,6 °C 16,2 °C 6,4 km/h (2 Bft)
09.10.2018 13:31 16,1 °C 79 % 1019,7 hPa 0,0 mm 4,3 km/h (1 Bft) O-NO 73 ° 0 min 0,000 mm 2,8 UV-I 517 W/m² 12,5 °C 16,1 °C 11,3 km/h (2 Bft)
09.10.2018 13:32 16,1 °C 79 % 1019,8 hPa 0,0 mm 5,7 km/h (1 Bft) O-NO 77 ° 1 min 0,000 mm 3,7 UV-I 612 W/m² 12,5 °C 16,1 °C 9,7 km/h (2 Bft)
09.10.2018 13:33 16,2 °C 80 % 1019,8 hPa 0,0 mm 6,0 km/h (2 Bft) NO 49 ° 0 min 0,000 mm 3,7 UV-I 584 W/m² 12,7 °C 16,2 °C 9,7 km/h (2 Bft)
09.10.2018 13:34 16,4 °C 81 % 1019,8 hPa 0,0 mm 3,1 km/h (1 Bft) O-NO 62 ° 1 min 0,000 mm 3,7 UV-I 649 W/m² 13,1 °C 16,4 °C 4,8 km/h (1 Bft)
09.10.2018 13:35 16,4 °C 79 % 1019,8 hPa 0,0 mm 1,5 km/h (1 Bft) O-NO 62 ° 0 min 0,000 mm 3,4 UV-I 571 W/m² 12,7 °C 16,4 °C 4,8 km/h (1 Bft)
09.10.2018 13:36 16,3 °C 78 % 1019,8 hPa 0,0 mm 6,8 km/h (2 Bft) O 94 ° 0 min 0,000 mm 3,4 UV-I 533 W/m² 12,5 °C 16,3 °C 12,9 km/h (3 Bft)
09.10.2018 13:37 16,2 °C 78 % 1019,7 hPa 0,0 mm 6,4 km/h (2 Bft) O-NO 60 ° 0 min 0,000 mm 3,3 UV-I 533 W/m² 12,4 °C 16,2 °C 9,7 km/h (2 Bft)
09.10.2018 13:38 16,1 °C 79 % 1019,7 hPa 0,0 mm 6,6 km/h (2 Bft) O 83 ° 0 min 0,000 mm 3,3 UV-I 439 W/m² 12,5 °C 16,1 °C 11,3 km/h (2 Bft)
09.10.2018 13:39 16,1 °C 79 % 1019,7 hPa 0,0 mm 4,2 km/h (1 Bft) O 79 ° 0 min 0,000 mm 3,1 UV-I 373 W/m² 12,5 °C 16,1 °C 6,4 km/h (2 Bft)
09.10.2018 13:40 16,1 °C 79 % 1019,8 hPa 0,0 mm 4,1 km/h (1 Bft) NO 35 ° 0 min 0,000 mm 3,4 UV-I 373 W/m² 12,5 °C 16,1 °C 6,4 km/h (2 Bft)
09.10.2018 13:41 16,1 °C 80 % 1019,7 hPa 0,0 mm 4,2 km/h (1 Bft) N 11 ° 1 min 0,000 mm 3,4 UV-I 601 W/m² 12,6 °C 16,1 °C 6,4 km/h (2 Bft)
09.10.2018 13:42 16,1 °C 80 % 1019,8 hPa 0,0 mm 7,4 km/h (2 Bft) NO 51 ° 0 min 0,000 mm 3,0 UV-I 490 W/m² 12,6 °C 16,1 °C 11,3 km/h (2 Bft)
09.10.2018 13:43 16,1 °C 79 % 1019,7 hPa 0,0 mm 3,0 km/h (1 Bft) O-NO 60 ° 0 min 0,000 mm 2,8 UV-I 397 W/m² 12,5 °C 16,1 °C 4,8 km/h (1 Bft)
09.10.2018 13:44 16,1 °C 80 % 1019,7 hPa 0,0 mm 6,1 km/h (2 Bft) NO 38 ° 0 min 0,000 mm 2,4 UV-I 397 W/m² 12,6 °C 16,1 °C 9,7 km/h (2 Bft)
09.10.2018 13:45 16,1 °C 79 % 1019,7 hPa 0,0 mm 4,8 km/h (1 Bft) N-NO 17 ° 0 min 0,000 mm 2,3 UV-I 223 W/m² 12,5 °C 16,1 °C 8,0 km/h (2 Bft)
09.10.2018 13:46 16,1 °C 80 % 1019,7 hPa 0,0 mm 1,9 km/h (1 Bft) NO 38 ° 0 min 0,000 mm 3,5 UV-I 223 W/m² 12,6 °C 16,1 °C 4,8 km/h (1 Bft)
09.10.2018 13:47 16,0 °C 80 % 1019,7 hPa 0,0 mm 1,8 km/h (1 Bft) O 96 ° 0 min 0,000 mm 3,4 UV-I 591 W/m² 12,5 °C 16,0 °C 6,4 km/h (2 Bft)
09.10.2018 13:48 15,9 °C 80 % 1019,7 hPa 0,0 mm 2,6 km/h (1 Bft) O 94 ° 0 min 0,000 mm 3,3 UV-I 536 W/m² 12,5 °C 15,9 °C 4,8 km/h (1 Bft)
09.10.2018 13:49 15,9 °C 81 % 1019,6 hPa 0,0 mm 2,9 km/h (1 Bft) NO 55 ° 0 min 0,000 mm 3,4 UV-I 589 W/m² 12,6 °C 15,9 °C 6,4 km/h (2 Bft)
09.10.2018 13:50 15,9 °C 80 % 1019,7 hPa 0,0 mm 7,3 km/h (2 Bft) N-NW 340 ° 0 min 0,000 mm 3,5 UV-I 589 W/m² 12,5 °C 15,9 °C 11,3 km/h (2 Bft)
09.10.2018 13:51 15,9 °C 80 % 1019,7 hPa 0,0 mm 3,7 km/h (1 Bft) NO 45 ° 0 min 0,000 mm 3,6 UV-I 589 W/m² 12,5 °C 15,9 °C 6,4 km/h (2 Bft)
09.10.2018 13:52 16,1 °C 80 % 1019,6 hPa 0,0 mm 1,2 km/h (1 Bft) NO 54 ° 1 min 0,000 mm 3,7 UV-I 643 W/m² 12,6 °C 16,1 °C 3,2 km/h (1 Bft)
09.10.2018 13:53 16,1 °C 80 % 1019,6 hPa 0,0 mm 7,7 km/h (2 Bft) O-NO 64 ° 0 min 0,000 mm 3,4 UV-I 582 W/m² 12,6 °C 16,1 °C 16,1 km/h (3 Bft)
09.10.2018 13:54 16,2 °C 80 % 1019,6 hPa 0,0 mm 5,0 km/h (1 Bft) O 82 ° 1 min 0,000 mm 3,4 UV-I 606 W/m² 12,7 °C 16,2 °C 8,0 km/h (2 Bft)
09.10.2018 13:55 16,2 °C 80 % 1019,6 hPa 0,0 mm 4,4 km/h (1 Bft) NO 51 ° 1 min 0,000 mm 3,6 UV-I 606 W/m² 12,7 °C 16,2 °C 6,4 km/h (2 Bft)
09.10.2018 13:56 16,2 °C 80 % 1019,6 hPa 0,0 mm 2,2 km/h (1 Bft) NO 51 ° 1 min 0,000 mm 3,6 UV-I 628 W/m² 12,7 °C 16,2 °C 3,2 km/h (1 Bft)
09.10.2018 13:57 16,3 °C 81 % 1019,6 hPa 0,0 mm 8,5 km/h (2 Bft) N-NO 26 ° 0 min 0,000 mm 3,4 UV-I 596 W/m² 13,0 °C 16,3 °C 11,3 km/h (2 Bft)
09.10.2018 13:58 16,3 °C 80 % 1019,6 hPa 0,0 mm 5,0 km/h (1 Bft) O-NO 65 ° 0 min 0,000 mm 3,3 UV-I 577 W/m² 12,8 °C 16,3 °C 9,7 km/h (2 Bft)
09.10.2018 13:59 16,3 °C 80 % 1019,6 hPa 0,0 mm 4,4 km/h (1 Bft) N-NO 28 ° 0 min 0,000 mm 3,3 UV-I 504 W/m² 12,8 °C 16,3 °C 6,4 km/h (2 Bft)
09.10.2018 14:00 16,3 °C 80 % 1019,6 hPa 0,0 mm 6,4 km/h (2 Bft) N-NO 32 ° 0 min 0,000 mm 3,2 UV-I 420 W/m² 12,8 °C 16,3 °C 9,7 km/h (2 Bft)
09.10.2018 14:01 16,2 °C 79 % 1019,6 hPa 0,0 mm 4,6 km/h (1 Bft) N-NO 26 ° 0 min 0,304 mm 2,9 UV-I 381 W/m² 12,6 °C 16,2 °C 8,0 km/h (2 Bft)
09.10.2018 14:02 16,3 °C 79 % 1019,6 hPa 0,0 mm 0,1 km/h (0 Bft) N-NO 26 ° 0 min 0,000 mm 3,1 UV-I 466 W/m² 12,6 °C 16,3 °C 1,6 km/h (1 Bft)
09.10.2018 14:03 16,2 °C 80 % 1019,6 hPa 0,0 mm 1,7 km/h (1 Bft) NO 51 ° 0 min 0,000 mm 3,2 UV-I 510 W/m² 12,7 °C 16,2 °C 3,2 km/h (1 Bft)
09.10.2018 14:04 16,1 °C 80 % 1019,6 hPa 0,0 mm 1,2 km/h (1 Bft) NO 51 ° 0 min 0,000 mm 3,4 UV-I 568 W/m² 12,6 °C 16,1 °C 3,2 km/h (1 Bft)
09.10.2018 14:05 16,1 °C 80 % 1019,6 hPa 0,0 mm 1,5 km/h (1 Bft) NO 49 ° 0 min 0,000 mm 3,4 UV-I 596 W/m² 12,6 °C 16,1 °C 3,2 km/h (1 Bft)
09.10.2018 14:06 16,1 °C 81 % 1019,6 hPa 0,0 mm 3,1 km/h (1 Bft) NO 51 ° 0 min 0,000 mm 3,3 UV-I 570 W/m² 12,8 °C 16,1 °C 4,8 km/h (1 Bft)
09.10.2018 14:07 16,1 °C 81 % 1019,6 hPa 0,0 mm 1,9 km/h (1 Bft) NO 50 ° 0 min 0,000 mm 2,9 UV-I 570 W/m² 12,8 °C 16,1 °C 3,2 km/h (1 Bft)
09.10.2018 14:08 16,2 °C 80 % 1019,6 hPa 0,0 mm 3,4 km/h (1 Bft) O-NO 71 ° 0 min 0,000 mm 3,0 UV-I 459 W/m² 12,7 °C 16,2 °C 4,8 km/h (1 Bft)
09.10.2018 14:09 16,3 °C 81 % 1019,6 hPa 0,0 mm 6,5 km/h (2 Bft) O 80 ° 0 min 0,000 mm 3,0 UV-I 436 W/m² 13,0 °C 16,3 °C 11,3 km/h (2 Bft)
09.10.2018 14:10 16,2 °C 80 % 1019,6 hPa 0,0 mm 3,7 km/h (1 Bft) O-NO 73 ° 0 min 0,000 mm 3,3 UV-I 529 W/m² 12,7 °C 16,2 °C 6,4 km/h (2 Bft)
09.10.2018 14:11 16,2 °C 80 % 1019,6 hPa 0,0 mm 2,0 km/h (1 Bft) NO 50 ° 0 min 0,000 mm 3,3 UV-I 478 W/m² 12,7 °C 16,2 °C 4,8 km/h (1 Bft)
09.10.2018 14:12 16,1 °C 80 % 1019,6 hPa 0,0 mm 3,0 km/h (1 Bft) N-NO 31 ° 0 min 0,000 mm 3,3 UV-I 570 W/m² 12,6 °C 16,1 °C 6,4 km/h (2 Bft)
09.10.2018 14:13 16,1 °C 80 % 1019,6 hPa 0,0 mm 8,1 km/h (2 Bft) NO 44 ° 0 min 0,000 mm 3,3 UV-I 570 W/m² 12,6 °C 16,1 °C 17,7 km/h (3 Bft)
09.10.2018 14:14 16,1 °C 80 % 1019,6 hPa 0,0 mm 5,5 km/h (1 Bft) N-NO 33 ° 0 min 0,000 mm 3,3 UV-I 580 W/m² 12,6 °C 16,1 °C 8,0 km/h (2 Bft)
09.10.2018 14:15 16,2 °C 80 % 1019,5 hPa 0,0 mm 2,5 km/h (1 Bft) O-NO 57 ° 0 min 0,000 mm 2,2 UV-I 580 W/m² 12,7 °C 16,2 °C 4,8 km/h (1 Bft)
09.10.2018 14:16 16,2 °C 80 % 1019,5 hPa 0,0 mm 7,0 km/h (2 Bft) O-NO 67 ° 0 min 0,000 mm 3,0 UV-I 151 W/m² 12,7 °C 16,2 °C 16,1 km/h (3 Bft)
09.10.2018 14:17 16,2 °C 79 % 1019,4 hPa 0,0 mm 5,3 km/h (1 Bft) NO 35 ° 0 min 0,000 mm 3,0 UV-I 570 W/m² 12,6 °C 16,2 °C 8,0 km/h (2 Bft)
09.10.2018 14:18 16,3 °C 80 % 1019,5 hPa 0,0 mm 6,4 km/h (2 Bft) NO 40 ° 0 min 0,000 mm 3,3 UV-I 557 W/m² 12,8 °C 16,3 °C 8,0 km/h (2 Bft)
09.10.2018 14:19 16,3 °C 80 % 1019,4 hPa 0,0 mm 9,7 km/h (2 Bft) O-NO 74 ° 0 min 0,000 mm 3,1 UV-I 540 W/m² 12,8 °C 16,3 °C 14,5 km/h (3 Bft)
09.10.2018 14:20 16,3 °C 79 % 1019,5 hPa 0,0 mm 2,4 km/h (1 Bft) N-NO 28 ° 0 min 0,000 mm 3,0 UV-I 513 W/m² 12,6 °C 16,3 °C 6,4 km/h (2 Bft)
09.10.2018 14:21 16,3 °C 80 % 1019,4 hPa 0,0 mm 8,0 km/h (2 Bft) NO 45 ° 0 min 0,000 mm 2,9 UV-I 464 W/m² 12,8 °C 16,3 °C 11,3 km/h (2 Bft)
09.10.2018 14:22 16,4 °C 80 % 1019,4 hPa 0,0 mm 2,2 km/h (1 Bft) O-NO 75 ° 0 min 0,000 mm 2,9 UV-I 471 W/m² 12,9 °C 16,4 °C 4,8 km/h (1 Bft)
09.10.2018 14:23 16,5 °C 80 % 1019,4 hPa 0,0 mm 3,4 km/h (1 Bft) NO 53 ° 0 min 0,000 mm 3,0 UV-I 496 W/m² 13,0 °C 16,5 °C 4,8 km/h (1 Bft)
09.10.2018 14:24 16,4 °C 79 % 1019,4 hPa 0,0 mm 2,5 km/h (1 Bft) O 88 ° 0 min 0,000 mm 2,3 UV-I 496 W/m² 12,7 °C 16,4 °C 4,8 km/h (1 Bft)
09.10.2018 14:25 16,3 °C 79 % 1019,4 hPa 0,0 mm 4,1 km/h (1 Bft) O-NO 70 ° 0 min 0,000 mm 3,0 UV-I 469 W/m² 12,6 °C 16,3 °C 6,4 km/h (2 Bft)
09.10.2018 14:26 16,3 °C 80 % 1019,4 hPa 0,0 mm 3,8 km/h (1 Bft) NO 42 ° 0 min 0,000 mm 3,0 UV-I 527 W/m² 12,8 °C 16,3 °C 6,4 km/h (2 Bft)
09.10.2018 14:27 16,2 °C 80 % 1019,3 hPa 0,0 mm 4,1 km/h (1 Bft) NO 55 ° 0 min 0,000 mm 3,0 UV-I 527 W/m² 12,7 °C 16,2 °C 6,4 km/h (2 Bft)
09.10.2018 14:28 16,2 °C 80 % 1019,4 hPa 0,0 mm 4,3 km/h (1 Bft) NO 55 ° 0 min 0,000 mm 3,1 UV-I 524 W/m² 12,7 °C 16,2 °C 6,4 km/h (2 Bft)
09.10.2018 14:29 16,3 °C 80 % 1019,4 hPa 0,0 mm 5,1 km/h (1 Bft) O-NO 57 ° 0 min 0,000 mm 3,0 UV-I 496 W/m² 12,8 °C 16,3 °C 8,0 km/h (2 Bft)
09.10.2018 14:30 16,3 °C 80 % 1019,4 hPa 0,0 mm 7,3 km/h (2 Bft) O-NO 63 ° 0 min 0,000 mm 2,9 UV-I 476 W/m² 12,8 °C 16,3 °C 9,7 km/h (2 Bft)
09.10.2018 14:31 16,3 °C 79 % 1019,3 hPa 0,0 mm 4,7 km/h (1 Bft) O 83 ° 0 min 0,000 mm 3,0 UV-I 476 W/m² 12,6 °C 16,3 °C 6,4 km/h (2 Bft)
09.10.2018 14:32 16,3 °C 79 % 1019,4 hPa 0,0 mm 4,5 km/h (1 Bft) NO 51 ° 0 min 0,000 mm 3,0 UV-I 527 W/m² 12,6 °C 16,3 °C 9,7 km/h (2 Bft)
09.10.2018 14:33 16,4 °C 79 % 1019,3 hPa 0,0 mm 6,9 km/h (2 Bft) NO 45 ° 0 min 0,000 mm 2,9 UV-I 489 W/m² 12,7 °C 16,4 °C 8,0 km/h (2 Bft)
09.10.2018 14:34 16,4 °C 79 % 1019,3 hPa 0,0 mm 4,0 km/h (1 Bft) N-NO 23 ° 0 min 0,000 mm 2,9 UV-I 499 W/m² 12,7 °C 16,4 °C 8,0 km/h (2 Bft)
09.10.2018 14:35 16,4 °C 80 % 1019,4 hPa 0,0 mm 3,5 km/h (1 Bft) NO 44 ° 0 min 0,000 mm 2,9 UV-I 494 W/m² 12,9 °C 16,4 °C 6,4 km/h (2 Bft)
09.10.2018 14:36 16,4 °C 80 % 1019,3 hPa 0,0 mm 6,4 km/h (2 Bft) O-NO 72 ° 0 min 0,000 mm 2,6 UV-I 475 W/m² 12,9 °C 16,4 °C 9,7 km/h (2 Bft)
09.10.2018 14:37 16,6 °C 79 % 1019,4 hPa 0,0 mm 4,9 km/h (1 Bft) O-NO 65 ° 0 min 0,000 mm 2,6 UV-I 473 W/m² 12,9 °C 16,6 °C 11,3 km/h (2 Bft)
09.10.2018 14:38 16,6 °C 80 % 1019,3 hPa 0,0 mm 4,8 km/h (1 Bft) O-NO 67 ° 0 min 0,000 mm 2,8 UV-I 476 W/m² 13,1 °C 16,6 °C 8,0 km/h (2 Bft)
09.10.2018 14:39 16,6 °C 79 % 1019,3 hPa 0,0 mm 4,8 km/h (1 Bft) O 90 ° 0 min 0,000 mm 2,7 UV-I 454 W/m² 12,9 °C 16,6 °C 8,0 km/h (2 Bft)
09.10.2018 14:40 16,6 °C 79 % 1019,3 hPa 0,0 mm 4,8 km/h (1 Bft) NO 45 ° 0 min 0,000 mm 2,7 UV-I 455 W/m² 12,9 °C 16,6 °C 8,0 km/h (2 Bft)
09.10.2018 14:41 16,6 °C 79 % 1019,3 hPa 0,0 mm 4,8 km/h (1 Bft) NO 45 ° 0 min 0,000 mm 2,6 UV-I 434 W/m² 12,9 °C 16,6 °C 8,0 km/h (2 Bft)
09.10.2018 14:42 16,5 °C 79 % 1019,3 hPa 0,0 mm 4,8 km/h (1 Bft) O-NO 67 ° 0 min 0,000 mm 2,4 UV-I 346 W/m² 12,8 °C 16,5 °C 8,0 km/h (2 Bft)
09.10.2018 14:43 16,4 °C 79 % 1019,3 hPa 0,0 mm 1,6 km/h (1 Bft) O 90 ° 0 min 0,000 mm 2,3 UV-I 302 W/m² 12,7 °C 16,4 °C 3,2 km/h (1 Bft)
09.10.2018 14:44 16,3 °C 79 % 1019,3 hPa 0,0 mm 4,8 km/h (1 Bft) O-NO 67 ° 0 min 0,000 mm 2,5 UV-I 390 W/m² 12,6 °C 16,3 °C 6,4 km/h (2 Bft)
09.10.2018 14:45 16,2 °C 79 % 1019,3 hPa 0,0 mm 1,6 km/h (1 Bft) O 90 ° 0 min 0,000 mm 2,5 UV-I 390 W/m² 12,6 °C 16,2 °C 6,4 km/h (2 Bft)
09.10.2018 14:46 16,2 °C 80 % 1019,2 hPa 0,0 mm 3,2 km/h (1 Bft) O-NO 67 ° 0 min 0,000 mm 2,6 UV-I 425 W/m² 12,7 °C 16,2 °C 4,8 km/h (1 Bft)
09.10.2018 14:47 16,1 °C 80 % 1019,2 hPa 0,0 mm 8,0 km/h (2 Bft) O-NO 67 ° 0 min 0,000 mm 2,5 UV-I 438 W/m² 12,6 °C 16,1 °C 12,9 km/h (3 Bft)
09.10.2018 14:48 16,2 °C 80 % 1019,2 hPa 0,0 mm 6,4 km/h (2 Bft) O-NO 67 ° 0 min 0,000 mm 2,6 UV-I 401 W/m² 12,7 °C 16,2 °C 9,7 km/h (2 Bft)
09.10.2018 14:49 16,2 °C 80 % 1019,2 hPa 0,0 mm 6,4 km/h (2 Bft) NO 45 ° 0 min 0,000 mm 2,6 UV-I 401 W/m² 12,7 °C 16,2 °C 11,3 km/h (2 Bft)
09.10.2018 14:50 16,3 °C 80 % 1019,1 hPa 0,0 mm 4,8 km/h (1 Bft) S-SO 157 ° 0 min 0,000 mm 2,7 UV-I 450 W/m² 12,8 °C 16,3 °C 9,7 km/h (2 Bft)
09.10.2018 14:51 16,3 °C 80 % 1019,1 hPa 0,0 mm 4,8 km/h (1 Bft) NO 45 ° 0 min 0,000 mm 2,7 UV-I 462 W/m² 12,8 °C 16,3 °C 6,4 km/h (2 Bft)
09.10.2018 14:52 16,4 °C 80 % 1019,1 hPa 0,0 mm 4,8 km/h (1 Bft) O 90 ° 0 min 0,000 mm 2,7 UV-I 506 W/m² 12,9 °C 16,4 °C 8,0 km/h (2 Bft)
09.10.2018 14:53 16,4 °C 79 % 1019,1 hPa 0,0 mm 6,4 km/h (2 Bft) NO 45 ° 0 min 0,000 mm 2,7 UV-I 494 W/m² 12,7 °C 16,4 °C 9,7 km/h (2 Bft)
09.10.2018 14:54 16,6 °C 80 % 1019,1 hPa 0,0 mm 4,8 km/h (1 Bft) NO 45 ° 0 min 0,000 mm 2,8 UV-I 494 W/m² 13,1 °C 16,6 °C 8,0 km/h (2 Bft)
09.10.2018 14:55 16,6 °C 79 % 1019,1 hPa 0,0 mm 6,4 km/h (2 Bft) NO 45 ° 0 min 0,000 mm 2,7 UV-I 497 W/m² 12,9 °C 16,6 °C 8,0 km/h (2 Bft)
09.10.2018 14:56 16,6 °C 80 % 1019,2 hPa 0,0 mm 4,8 km/h (1 Bft) NO 45 ° 0 min 0,000 mm 2,7 UV-I 504 W/m² 13,1 °C 16,6 °C 6,4 km/h (2 Bft)
09.10.2018 14:57 16,6 °C 79 % 1019,1 hPa 0,0 mm 4,8 km/h (1 Bft) NO 45 ° 0 min 0,000 mm 2,6 UV-I 478 W/m² 12,9 °C 16,6 °C 6,4 km/h (2 Bft)
09.10.2018 14:58 16,6 °C 79 % 1019,2 hPa 0,0 mm 4,8 km/h (1 Bft) N-NO 22 ° 0 min 0,000 mm 2,7 UV-I 503 W/m² 12,9 °C 16,6 °C 6,4 km/h (2 Bft)
09.10.2018 14:59 16,7 °C 79 % 1019,1 hPa 0,0 mm 4,8 km/h (1 Bft) NO 45 ° 0 min 0,000 mm 2,6 UV-I 464 W/m² 13,0 °C 16,7 °C 9,7 km/h (2 Bft)
09.10.2018 15:00 16,7 °C 80 % 1019,1 hPa 0,0 mm 3,2 km/h (1 Bft) O 90 ° 0 min 0,254 mm 2,5 UV-I 452 W/m² 13,2 °C 16,7 °C 4,8 km/h (1 Bft)
09.10.2018 15:01 16,7 °C 79 % 1019,1 hPa 0,0 mm 4,8 km/h (1 Bft) O-NO 67 ° 0 min 0,000 mm 2,5 UV-I 448 W/m² 13,0 °C 16,7 °C 9,7 km/h (2 Bft)
09.10.2018 15:02 16,7 °C 79 % 1019,1 hPa 0,0 mm 3,2 km/h (1 Bft) O-SO 112 ° 0 min 0,000 mm 2,4 UV-I 429 W/m² 13,0 °C 16,7 °C 8,0 km/h (2 Bft)
09.10.2018 15:03 16,7 °C 79 % 1019,0 hPa 0,0 mm 8,0 km/h (2 Bft) NO 45 ° 0 min 0,000 mm 2,3 UV-I 364 W/m² 13,0 °C 16,7 °C 11,3 km/h (2 Bft)
09.10.2018 15:04 16,8 °C 79 % 1019,0 hPa 0,0 mm 4,8 km/h (1 Bft) NO 45 ° 0 min 0,000 mm 2,4 UV-I 424 W/m² 13,1 °C 16,8 °C 8,0 km/h (2 Bft)
09.10.2018 15:06 16,8 °C 79 % 1019,0 hPa 0,0 mm 1,3 km/h (1 Bft) NO 55 ° 0 min 0,000 mm 2,5 UV-I 434 W/m² 13,1 °C 16,8 °C 3,2 km/h (1 Bft)
09.10.2018 15:07 16,8 °C 78 % 1019,0 hPa 0,0 mm 3,9 km/h (1 Bft) O-NO 72 ° 0 min 0,000 mm 2,5 UV-I 434 W/m² 12,9 °C 16,8 °C 6,4 km/h (2 Bft)
09.10.2018 15:08 16,8 °C 79 % 1019,0 hPa 0,0 mm 7,1 km/h (2 Bft) NO 52 ° 0 min 0,000 mm 2,3 UV-I 446 W/m² 13,1 °C 16,8 °C 12,9 km/h (3 Bft)
09.10.2018 15:09 16,8 °C 79 % 1019,0 hPa 0,0 mm 4,8 km/h (1 Bft) NO 42 ° 0 min 0,000 mm 2,5 UV-I 454 W/m² 13,1 °C 16,8 °C 6,4 km/h (2 Bft)
09.10.2018 15:10 16,9 °C 79 % 1019,0 hPa 0,0 mm 8,0 km/h (2 Bft) O-NO 69 ° 0 min 0,000 mm 2,4 UV-I 418 W/m² 13,2 °C 16,9 °C 14,5 km/h (3 Bft)
09.10.2018 15:11 16,8 °C 79 % 1019,0 hPa 0,0 mm 5,8 km/h (2 Bft) NO 36 ° 0 min 0,000 mm 2,4 UV-I 424 W/m² 13,1 °C 16,8 °C 12,9 km/h (3 Bft)
09.10.2018 15:12 16,8 °C 79 % 1018,9 hPa 0,0 mm 7,8 km/h (2 Bft) O 82 ° 0 min 0,000 mm 2,4 UV-I 441 W/m² 13,1 °C 16,8 °C 12,9 km/h (3 Bft)
09.10.2018 15:13 16,8 °C 79 % 1018,9 hPa 0,0 mm 3,4 km/h (1 Bft) O 85 ° 0 min 0,000 mm 2,4 UV-I 455 W/m² 13,1 °C 16,8 °C 6,4 km/h (2 Bft)
09.10.2018 15:14 16,8 °C 79 % 1019,0 hPa 0,0 mm 1,8 km/h (1 Bft) O 86 ° 0 min 0,000 mm 2,5 UV-I 459 W/m² 13,1 °C 16,8 °C 4,8 km/h (1 Bft)
09.10.2018 15:15 16,8 °C 79 % 1018,9 hPa 0,0 mm 4,7 km/h (1 Bft) O 82 ° 0 min 0,000 mm 2,3 UV-I 432 W/m² 13,1 °C 16,8 °C 8,0 km/h (2 Bft)
09.10.2018 15:16 16,8 °C 80 % 1018,9 hPa 0,0 mm 9,0 km/h (2 Bft) NO 49 ° 0 min 0,000 mm 2,4 UV-I 455 W/m² 13,3 °C 16,8 °C 14,5 km/h (3 Bft)
09.10.2018 15:17 16,7 °C 79 % 1019,0 hPa 0,0 mm 4,8 km/h (1 Bft) O-NO 61 ° 0 min 0,000 mm 2,4 UV-I 441 W/m² 13,0 °C 16,7 °C 6,4 km/h (2 Bft)
09.10.2018 15:18 16,7 °C 79 % 1019,0 hPa 0,0 mm 3,1 km/h (1 Bft) O-NO 61 ° 0 min 0,000 mm 2,3 UV-I 429 W/m² 13,0 °C 16,7 °C 6,4 km/h (2 Bft)
09.10.2018 15:19 16,7 °C 80 % 1019,0 hPa 0,0 mm 1,9 km/h (1 Bft) O 101 ° 0 min 0,000 mm 2,3 UV-I 408 W/m² 13,2 °C 16,7 °C 3,2 km/h (1 Bft)
09.10.2018 15:20 16,7 °C 80 % 1019,0 hPa 0,0 mm 3,2 km/h (1 Bft) N-NO 28 ° 0 min 0,000 mm 2,2 UV-I 399 W/m² 13,2 °C 16,7 °C 4,8 km/h (1 Bft)
09.10.2018 15:21 16,7 °C 81 % 1019,0 hPa 0,0 mm 1,9 km/h (1 Bft) O-NO 77 ° 0 min 0,000 mm 2,3 UV-I 422 W/m² 13,4 °C 16,7 °C 6,4 km/h (2 Bft)
09.10.2018 15:22 16,8 °C 81 % 1019,0 hPa 0,0 mm 7,6 km/h (2 Bft) NO 42 ° 0 min 0,000 mm 2,2 UV-I 397 W/m² 13,5 °C 16,8 °C 12,9 km/h (3 Bft)
09.10.2018 15:23 16,8 °C 79 % 1019,0 hPa 0,0 mm 8,6 km/h (2 Bft) N 5 ° 0 min 0,000 mm 2,3 UV-I 441 W/m² 13,1 °C 16,8 °C 12,9 km/h (3 Bft)
09.10.2018 15:24 16,8 °C 79 % 1019,0 hPa 0,0 mm 6,8 km/h (2 Bft) NO 55 ° 0 min 0,000 mm 2,3 UV-I 450 W/m² 13,1 °C 16,8 °C 8,0 km/h (2 Bft)
09.10.2018 15:25 16,8 °C 79 % 1019,0 hPa 0,0 mm 4,8 km/h (1 Bft) NO 48 ° 0 min 0,000 mm 2,3 UV-I 450 W/m² 13,1 °C 16,8 °C 9,7 km/h (2 Bft)
09.10.2018 15:26 16,8 °C 79 % 1019,0 hPa 0,0 mm 7,7 km/h (2 Bft) O-NO 69 ° 0 min 0,000 mm 2,3 UV-I 443 W/m² 13,1 °C 16,8 °C 9,7 km/h (2 Bft)
09.10.2018 15:27 16,7 °C 80 % 1019,0 hPa 0,0 mm 5,8 km/h (2 Bft) NO 40 ° 0 min 0,000 mm 2,3 UV-I 448 W/m² 13,2 °C 16,7 °C 8,0 km/h (2 Bft)
09.10.2018 15:28 16,8 °C 81 % 1019,0 hPa 0,0 mm 3,8 km/h (1 Bft) O-NO 65 ° 0 min 0,000 mm 2,2 UV-I 432 W/m² 13,5 °C 16,8 °C 14,5 km/h (3 Bft)
09.10.2018 15:29 16,8 °C 80 % 1018,9 hPa 0,0 mm 5,2 km/h (1 Bft) NO 40 ° 0 min 0,000 mm 2,2 UV-I 438 W/m² 13,3 °C 16,8 °C 14,5 km/h (3 Bft)
09.10.2018 15:30 16,8 °C 80 % 1018,9 hPa 0,0 mm 5,8 km/h (2 Bft) N-NO 22 ° 0 min 0,000 mm 2,2 UV-I 413 W/m² 13,3 °C 16,8 °C 9,7 km/h (2 Bft)
09.10.2018 15:31 16,8 °C 80 % 1019,0 hPa 0,0 mm 5,6 km/h (1 Bft) NO 46 ° 0 min 0,000 mm 2,2 UV-I 418 W/m² 13,3 °C 16,8 °C 8,0 km/h (2 Bft)
09.10.2018 15:32 16,9 °C 80 % 1018,9 hPa 0,0 mm 7,6 km/h (2 Bft) NO 41 ° 0 min 0,000 mm 2,2 UV-I 418 W/m² 13,4 °C 16,9 °C 9,7 km/h (2 Bft)
09.10.2018 15:33 16,8 °C 79 % 1018,9 hPa 0,0 mm 8,5 km/h (2 Bft) NO 52 ° 0 min 0,000 mm 2,1 UV-I 415 W/m² 13,1 °C 16,8 °C 12,9 km/h (3 Bft)
09.10.2018 15:34 16,8 °C 79 % 1018,9 hPa 0,0 mm 7,9 km/h (2 Bft) NO 34 ° 0 min 0,000 mm 2,1 UV-I 401 W/m² 13,1 °C 16,8 °C 11,3 km/h (2 Bft)
09.10.2018 15:35 16,8 °C 79 % 1018,9 hPa 0,0 mm 3,0 km/h (1 Bft) NO 48 ° 0 min 0,000 mm 2,2 UV-I 425 W/m² 13,1 °C 16,8 °C 4,8 km/h (1 Bft)
09.10.2018 15:36 16,8 °C 80 % 1018,9 hPa 0,0 mm 3,6 km/h (1 Bft) N-NO 24 ° 0 min 0,000 mm 2,1 UV-I 424 W/m² 13,3 °C 16,8 °C 9,7 km/h (2 Bft)
09.10.2018 15:37 16,9 °C 81 % 1018,9 hPa 0,0 mm 5,0 km/h (1 Bft) SO 136 ° 0 min 0,000 mm 2,1 UV-I 418 W/m² 13,6 °C 16,9 °C 8,0 km/h (2 Bft)
09.10.2018 15:38 16,9 °C 80 % 1018,9 hPa 0,0 mm 4,6 km/h (1 Bft) NO 49 ° 0 min 0,000 mm 2,1 UV-I 406 W/m² 13,4 °C 16,9 °C 9,7 km/h (2 Bft)
09.10.2018 15:39 16,8 °C 80 % 1019,0 hPa 0,0 mm 5,9 km/h (2 Bft) O-NO 68 ° 0 min 0,000 mm 2,1 UV-I 408 W/m² 13,3 °C 16,8 °C 9,7 km/h (2 Bft)
09.10.2018 15:40 16,7 °C 80 % 1018,9 hPa 0,0 mm 3,6 km/h (1 Bft) O 101 ° 0 min 0,000 mm 2,0 UV-I 401 W/m² 13,2 °C 16,7 °C 6,4 km/h (2 Bft)
09.10.2018 15:41 16,7 °C 80 % 1018,9 hPa 0,0 mm 6,5 km/h (2 Bft) NO 38 ° 0 min 0,000 mm 2,0 UV-I 410 W/m² 13,2 °C 16,7 °C 9,7 km/h (2 Bft)
09.10.2018 15:42 16,6 °C 80 % 1018,9 hPa 0,0 mm 3,7 km/h (1 Bft) N 5 ° 0 min 0,000 mm 2,0 UV-I 394 W/m² 13,1 °C 16,6 °C 8,0 km/h (2 Bft)
09.10.2018 15:43 16,7 °C 81 % 1018,9 hPa 0,0 mm 4,3 km/h (1 Bft) N-NO 17 ° 0 min 0,000 mm 2,0 UV-I 394 W/m² 13,4 °C 16,7 °C 8,0 km/h (2 Bft)
09.10.2018 15:44 16,7 °C 81 % 1018,9 hPa 0,0 mm 3,0 km/h (1 Bft) NO 36 ° 0 min 0,000 mm 2,0 UV-I 388 W/m² 13,4 °C 16,7 °C 6,4 km/h (2 Bft)
09.10.2018 15:45 16,8 °C 81 % 1018,8 hPa 0,0 mm 6,7 km/h (2 Bft) N-NO 14 ° 0 min 0,000 mm 1,9 UV-I 359 W/m² 13,5 °C 16,8 °C 8,0 km/h (2 Bft)
09.10.2018 15:46 16,7 °C 80 % 1018,8 hPa 0,0 mm 5,5 km/h (1 Bft) O-NO 61 ° 0 min 0,000 mm 1,9 UV-I 353 W/m² 13,2 °C 16,7 °C 8,0 km/h (2 Bft)
09.10.2018 15:47 16,7 °C 80 % 1018,8 hPa 0,0 mm 5,7 km/h (1 Bft) O-NO 57 ° 0 min 0,000 mm 1,8 UV-I 316 W/m² 13,2 °C 16,7 °C 9,7 km/h (2 Bft)
09.10.2018 15:48 16,7 °C 80 % 1018,8 hPa 0,0 mm 2,9 km/h (1 Bft) O 90 ° 0 min 0,000 mm 1,8 UV-I 315 W/m² 13,2 °C 16,7 °C 4,8 km/h (1 Bft)
09.10.2018 15:49 16,7 °C 80 % 1018,8 hPa 0,0 mm 1,6 km/h (1 Bft) O 90 ° 0 min 0,000 mm 1,9 UV-I 392 W/m² 13,2 °C 16,7 °C 4,8 km/h (1 Bft)
09.10.2018 15:50 16,7 °C 81 % 1018,8 hPa 0,0 mm 3,3 km/h (1 Bft) O-SO 105 ° 0 min 0,000 mm 1,9 UV-I 390 W/m² 13,4 °C 16,7 °C 6,4 km/h (2 Bft)
09.10.2018 15:51 16,7 °C 81 % 1018,8 hPa 0,0 mm 6,2 km/h (2 Bft) NO 55 ° 0 min 0,000 mm 1,9 UV-I 388 W/m² 13,4 °C 16,7 °C 9,7 km/h (2 Bft)
09.10.2018 15:52 16,7 °C 81 % 1018,8 hPa 0,0 mm 3,3 km/h (1 Bft) O 82 ° 0 min 0,000 mm 1,9 UV-I 385 W/m² 13,4 °C 16,7 °C 4,8 km/h (1 Bft)
09.10.2018 15:53 16,7 °C 81 % 1018,8 hPa 0,0 mm 4,6 km/h (1 Bft) O 83 ° 0 min 0,000 mm 1,9 UV-I 383 W/m² 13,4 °C 16,7 °C 8,0 km/h (2 Bft)
09.10.2018 15:54 16,7 °C 81 % 1018,9 hPa 0,0 mm 3,4 km/h (1 Bft) NO 42 ° 0 min 0,000 mm 1,9 UV-I 380 W/m² 13,4 °C 16,7 °C 6,4 km/h (2 Bft)
09.10.2018 15:55 16,7 °C 80 % 1018,9 hPa 0,0 mm 4,6 km/h (1 Bft) NO 53 ° 0 min 0,000 mm 1,8 UV-I 378 W/m² 13,2 °C 16,7 °C 8,0 km/h (2 Bft)
09.10.2018 15:56 16,7 °C 80 % 1018,8 hPa 0,0 mm 6,0 km/h (2 Bft) O-NO 67 ° 0 min 0,000 mm 1,8 UV-I 378 W/m² 13,2 °C 16,7 °C 8,0 km/h (2 Bft)
09.10.2018 15:57 16,7 °C 80 % 1018,9 hPa 0,0 mm 8,1 km/h (2 Bft) NO 36 ° 0 min 0,000 mm 1,8 UV-I 373 W/m² 13,2 °C 16,7 °C 14,5 km/h (3 Bft)
09.10.2018 15:58 16,7 °C 81 % 1018,9 hPa 0,0 mm 6,2 km/h (2 Bft) O-NO 67 ° 0 min 0,000 mm 1,8 UV-I 373 W/m² 13,4 °C 16,7 °C 11,3 km/h (2 Bft)
09.10.2018 15:59 16,8 °C 80 % 1018,8 hPa 0,0 mm 5,4 km/h (1 Bft) O 93 ° 0 min 0,000 mm 1,8 UV-I 371 W/m² 13,3 °C 16,8 °C 9,7 km/h (2 Bft)
09.10.2018 16:00 16,7 °C 80 % 1018,8 hPa 0,0 mm 6,6 km/h (2 Bft) O-NO 57 ° 0 min 0,000 mm 1,8 UV-I 367 W/m² 13,2 °C 16,7 °C 8,0 km/h (2 Bft)
09.10.2018 16:01 16,7 °C 80 % 1018,8 hPa 0,0 mm 4,3 km/h (1 Bft) NO 54 ° 0 min 0,229 mm 1,8 UV-I 367 W/m² 13,2 °C 16,7 °C 8,0 km/h (2 Bft)
09.10.2018 16:02 16,7 °C 80 % 1018,8 hPa 0,0 mm 3,4 km/h (1 Bft) N 5 ° 0 min 0,000 mm 1,7 UV-I 364 W/m² 13,2 °C 16,7 °C 4,8 km/h (1 Bft)
09.10.2018 16:03 16,8 °C 80 % 1018,8 hPa 0,0 mm 4,0 km/h (1 Bft) O 83 ° 0 min 0,000 mm 1,7 UV-I 350 W/m² 13,3 °C 16,8 °C 4,8 km/h (1 Bft)
09.10.2018 16:04 16,7 °C 80 % 1018,8 hPa 0,0 mm 3,1 km/h (1 Bft) O-NO 62 ° 0 min 0,000 mm 1,7 UV-I 352 W/m² 13,2 °C 16,7 °C 4,8 km/h (1 Bft)
09.10.2018 16:05 16,7 °C 81 % 1018,7 hPa 0,0 mm 4,7 km/h (1 Bft) O-NO 78 ° 0 min 0,000 mm 1,7 UV-I 352 W/m² 13,4 °C 16,7 °C 12,9 km/h (3 Bft)
09.10.2018 16:06 16,8 °C 80 % 1018,7 hPa 0,0 mm 3,2 km/h (1 Bft) O 84 ° 0 min 0,000 mm 1,7 UV-I 352 W/m² 13,3 °C 16,8 °C 9,7 km/h (2 Bft)
09.10.2018 16:07 16,7 °C 81 % 1018,7 hPa 0,0 mm 6,7 km/h (2 Bft) NO 53 ° 0 min 0,000 mm 1,6 UV-I 346 W/m² 13,4 °C 16,7 °C 12,9 km/h (3 Bft)
09.10.2018 16:08 16,7 °C 80 % 1018,7 hPa 0,0 mm 8,0 km/h (2 Bft) O 80 ° 0 min 0,000 mm 1,6 UV-I 346 W/m² 13,2 °C 16,7 °C 12,9 km/h (3 Bft)
09.10.2018 16:09 16,7 °C 80 % 1018,7 hPa 0,0 mm 4,4 km/h (1 Bft) O-NO 61 ° 0 min 0,000 mm 1,6 UV-I 346 W/m² 13,2 °C 16,7 °C 8,0 km/h (2 Bft)
09.10.2018 16:10 16,6 °C 80 % 1018,7 hPa 0,0 mm 3,8 km/h (1 Bft) O-NO 78 ° 0 min 0,000 mm 1,6 UV-I 345 W/m² 13,1 °C 16,6 °C 8,0 km/h (2 Bft)
09.10.2018 16:11 16,7 °C 81 % 1018,6 hPa 0,0 mm 4,9 km/h (1 Bft) O 80 ° 0 min 0,000 mm 1,5 UV-I 341 W/m² 13,4 °C 16,7 °C 6,4 km/h (2 Bft)
09.10.2018 16:12 16,6 °C 81 % 1018,6 hPa 0,0 mm 3,9 km/h (1 Bft) O-NO 62 ° 0 min 0,000 mm 1,5 UV-I 330 W/m² 13,3 °C 16,6 °C 8,0 km/h (2 Bft)
09.10.2018 16:13 16,7 °C 82 % 1018,6 hPa 0,0 mm 2,3 km/h (1 Bft) O-NO 67 ° 0 min 0,000 mm 1,3 UV-I 330 W/m² 13,6 °C 16,7 °C 4,8 km/h (1 Bft)
09.10.2018 16:14 16,6 °C 81 % 1018,6 hPa 0,0 mm 1,2 km/h (1 Bft) O-NO 69 ° 0 min 0,000 mm 1,2 UV-I 128 W/m² 13,3 °C 16,6 °C 3,2 km/h (1 Bft)
09.10.2018 16:15 16,7 °C 81 % 1018,6 hPa 0,0 mm 5,6 km/h (1 Bft) O 96 ° 0 min 0,000 mm 1,2 UV-I 102 W/m² 13,4 °C 16,7 °C 11,3 km/h (2 Bft)
09.10.2018 16:16 16,7 °C 81 % 1018,6 hPa 0,0 mm 6,2 km/h (2 Bft) NO 46 ° 0 min 0,000 mm 1,1 UV-I 72 W/m² 13,4 °C 16,7 °C 11,3 km/h (2 Bft)
09.10.2018 16:17 16,7 °C 81 % 1018,6 hPa 0,0 mm 5,9 km/h (2 Bft) O-NO 65 ° 0 min 0,000 mm 0,0 UV-I 53 W/m² 13,4 °C 16,7 °C 11,3 km/h (2 Bft)
09.10.2018 16:18 16,6 °C 81 % 1018,6 hPa 0,0 mm 6,1 km/h (2 Bft) O-NO 61 ° 0 min 0,000 mm 0,0 UV-I 51 W/m² 13,3 °C 16,6 °C 8,0 km/h (2 Bft)
09.10.2018 16:19 16,6 °C 81 % 1018,6 hPa 0,0 mm 4,0 km/h (1 Bft) O 80 ° 0 min 0,000 mm 0,0 UV-I 51 W/m² 13,3 °C 16,6 °C 6,4 km/h (2 Bft)
09.10.2018 16:20 16,6 °C 81 % 1018,7 hPa 0,0 mm 4,2 km/h (1 Bft) NO 38 ° 0 min 0,000 mm 1,0 UV-I 46 W/m² 13,3 °C 16,6 °C 6,4 km/h (2 Bft)
09.10.2018 16:21 16,6 °C 82 % 1018,7 hPa 0,0 mm 2,5 km/h (1 Bft) NO 46 ° 0 min 0,000 mm 0,0 UV-I 47 W/m² 13,5 °C 16,6 °C 4,8 km/h (1 Bft)
09.10.2018 16:22 16,7 °C 82 % 1018,7 hPa 0,0 mm 4,4 km/h (1 Bft) O 88 ° 0 min 0,000 mm 0,0 UV-I 40 W/m² 13,6 °C 16,7 °C 9,7 km/h (2 Bft)
09.10.2018 16:23 16,7 °C 82 % 1018,7 hPa 0,0 mm 8,0 km/h (2 Bft) NO 38 ° 0 min 0,000 mm 0,0 UV-I 35 W/m² 13,6 °C 16,7 °C 12,9 km/h (3 Bft)
09.10.2018 16:24 16,6 °C 81 % 1018,7 hPa 0,0 mm 6,1 km/h (2 Bft) O-SO 116 ° 0 min 0,000 mm 0,0 UV-I 39 W/m² 13,3 °C 16,6 °C 9,7 km/h (2 Bft)
09.10.2018 16:25 16,6 °C 82 % 1018,7 hPa 0,0 mm 4,7 km/h (1 Bft) O-NO 73 ° 0 min 0,000 mm 0,0 UV-I 39 W/m² 13,5 °C 16,6 °C 6,4 km/h (2 Bft)
09.10.2018 16:26 16,6 °C 82 % 1018,7 hPa 0,0 mm 6,8 km/h (2 Bft) NO 44 ° 0 min 0,000 mm 0,0 UV-I 35 W/m² 13,5 °C 16,6 °C 9,7 km/h (2 Bft)
09.10.2018 16:27 16,6 °C 81 % 1018,7 hPa 0,0 mm 4,6 km/h (1 Bft) N-NO 23 ° 0 min 0,000 mm 0,0 UV-I 37 W/m² 13,3 °C 16,6 °C 6,4 km/h (2 Bft)
09.10.2018 16:28 16,5 °C 82 % 1018,6 hPa 0,0 mm 4,8 km/h (1 Bft) N-NO 30 ° 0 min 0,000 mm 0,0 UV-I 39 W/m² 13,4 °C 16,5 °C 8,0 km/h (2 Bft)
09.10.2018 16:29 16,6 °C 82 % 1018,6 hPa 0,0 mm 5,7 km/h (1 Bft) NO 46 ° 0 min 0,000 mm 0,0 UV-I 35 W/m² 13,5 °C 16,6 °C 6,4 km/h (2 Bft)
09.10.2018 16:30 16,5 °C 81 % 1018,6 hPa 0,0 mm 3,1 km/h (1 Bft) NO 45 ° 0 min 0,000 mm 0,0 UV-I 35 W/m² 13,2 °C 16,5 °C 4,8 km/h (1 Bft)
09.10.2018 16:31 16,6 °C 82 % 1018,6 hPa 0,0 mm 3,5 km/h (1 Bft) N-NO 17 ° 0 min 0,000 mm 0,0 UV-I 44 W/m² 13,5 °C 16,6 °C 8,0 km/h (2 Bft)
09.10.2018 16:32 16,5 °C 81 % 1018,7 hPa 0,0 mm 3,6 km/h (1 Bft) N-NO 12 ° 0 min 0,000 mm 0,9 UV-I 60 W/m² 13,2 °C 16,5 °C 6,4 km/h (2 Bft)
09.10.2018 16:33 16,5 °C 81 % 1018,7 hPa 0,0 mm 2,0 km/h (1 Bft) N-NO 22 ° 0 min 0,000 mm 0,0 UV-I 47 W/m² 13,2 °C 16,5 °C 6,4 km/h (2 Bft)
09.10.2018 16:34 16,4 °C 82 % 1018,7 hPa 0,0 mm 7,8 km/h (2 Bft) N-NW 344 ° 0 min 0,000 mm 0,0 UV-I 44 W/m² 13,3 °C 16,4 °C 12,9 km/h (3 Bft)
09.10.2018 16:35 16,4 °C 81 % 1018,7 hPa 0,0 mm 4,5 km/h (1 Bft) N-NO 32 ° 0 min 0,000 mm 0,0 UV-I 49 W/m² 13,1 °C 16,4 °C 8,0 km/h (2 Bft)
09.10.2018 16:36 16,4 °C 81 % 1018,7 hPa 0,0 mm 5,1 km/h (1 Bft) N-NO 31 ° 0 min 0,000 mm 0,9 UV-I 62 W/m² 13,1 °C 16,4 °C 8,0 km/h (2 Bft)
09.10.2018 16:37 16,4 °C 81 % 1018,6 hPa 0,0 mm 4,9 km/h (1 Bft) NO 36 ° 0 min 0,000 mm 0,9 UV-I 62 W/m² 13,1 °C 16,4 °C 8,0 km/h (2 Bft)
09.10.2018 16:38 16,4 °C 81 % 1018,6 hPa 0,0 mm 5,3 km/h (1 Bft) NO 49 ° 0 min 0,000 mm 0,9 UV-I 49 W/m² 13,1 °C 16,4 °C 9,7 km/h (2 Bft)
09.10.2018 16:39 16,3 °C 81 % 1018,6 hPa 0,0 mm 7,3 km/h (2 Bft) O-NO 62 ° 0 min 0,000 mm 0,0 UV-I 46 W/m² 13,0 °C 16,3 °C 14,5 km/h (3 Bft)
09.10.2018 16:40 16,3 °C 81 % 1018,7 hPa 0,0 mm 8,2 km/h (2 Bft) N 10 ° 0 min 0,000 mm 0,0 UV-I 44 W/m² 13,0 °C 16,3 °C 12,9 km/h (3 Bft)
09.10.2018 16:41 16,3 °C 81 % 1018,7 hPa 0,0 mm 1,2 km/h (1 Bft) NO 55 ° 0 min 0,000 mm 0,0 UV-I 42 W/m² 13,0 °C 16,3 °C 4,8 km/h (1 Bft)
09.10.2018 16:42 16,3 °C 81 % 1018,7 hPa 0,0 mm 6,3 km/h (2 Bft) O-NO 74 ° 0 min 0,000 mm 0,0 UV-I 42 W/m² 13,0 °C 16,3 °C 12,9 km/h (3 Bft)
09.10.2018 16:43 16,2 °C 81 % 1018,6 hPa 0,0 mm 5,9 km/h (2 Bft) NO 53 ° 0 min 0,000 mm 0,0 UV-I 42 W/m² 12,9 °C 16,2 °C 9,7 km/h (2 Bft)
09.10.2018 16:44 16,2 °C 82 % 1018,7 hPa 0,0 mm 5,1 km/h (1 Bft) O-NO 71 ° 0 min 0,000 mm 0,0 UV-I 44 W/m² 13,1 °C 16,2 °C 9,7 km/h (2 Bft)
09.10.2018 16:45 16,2 °C 82 % 1018,7 hPa 0,0 mm 5,3 km/h (1 Bft) NO 50 ° 0 min 0,000 mm 0,0 UV-I 47 W/m² 13,1 °C 16,2 °C 9,7 km/h (2 Bft)
09.10.2018 16:46 16,2 °C 82 % 1018,6 hPa 0,0 mm 1,5 km/h (1 Bft) NO 47 ° 0 min 0,000 mm 0,0 UV-I 53 W/m² 13,1 °C 16,2 °C 4,8 km/h (1 Bft)
09.10.2018 16:47 16,3 °C 82 % 1018,6 hPa 0,0 mm 3,8 km/h (1 Bft) NO 35 ° 0 min 0,000 mm 0,8 UV-I 62 W/m² 13,2 °C 16,3 °C 8,0 km/h (2 Bft)
09.10.2018 16:48 16,3 °C 82 % 1018,7 hPa 0,0 mm 4,4 km/h (1 Bft) N-NO 24 ° 0 min 0,000 mm 0,8 UV-I 72 W/m² 13,2 °C 16,3 °C 8,0 km/h (2 Bft)
09.10.2018 16:49 16,3 °C 82 % 1018,6 hPa 0,0 mm 3,9 km/h (1 Bft) N 355 ° 0 min 0,000 mm 0,8 UV-I 86 W/m² 13,2 °C 16,3 °C 6,4 km/h (2 Bft)
09.10.2018 16:50 16,4 °C 82 % 1018,6 hPa 0,0 mm 2,7 km/h (1 Bft) O-NO 61 ° 0 min 0,000 mm 0,8 UV-I 100 W/m² 13,3 °C 16,4 °C 6,4 km/h (2 Bft)
09.10.2018 16:51 16,4 °C 82 % 1018,6 hPa 0,0 mm 4,0 km/h (1 Bft) N-NO 22 ° 0 min 0,000 mm 0,8 UV-I 107 W/m² 13,3 °C 16,4 °C 6,4 km/h (2 Bft)
09.10.2018 16:52 16,4 °C 82 % 1018,7 hPa 0,0 mm 2,4 km/h (1 Bft) O 80 ° 0 min 0,000 mm 0,8 UV-I 111 W/m² 13,3 °C 16,4 °C 4,8 km/h (1 Bft)
09.10.2018 16:53 16,4 °C 82 % 1018,6 hPa 0,0 mm 3,0 km/h (1 Bft) N-NO 32 ° 0 min 0,000 mm 0,7 UV-I 102 W/m² 13,3 °C 16,4 °C 4,8 km/h (1 Bft)
09.10.2018 16:54 16,4 °C 82 % 1018,7 hPa 0,0 mm 2,5 km/h (1 Bft) N-NO 12 ° 0 min 0,000 mm 0,7 UV-I 93 W/m² 13,3 °C 16,4 °C 8,0 km/h (2 Bft)
09.10.2018 16:55 16,4 °C 82 % 1018,7 hPa 0,0 mm 5,1 km/h (1 Bft) N 350 ° 0 min 0,000 mm 0,7 UV-I 93 W/m² 13,3 °C 16,4 °C 9,7 km/h (2 Bft)
09.10.2018 16:56 16,4 °C 82 % 1018,7 hPa 0,0 mm 7,6 km/h (2 Bft) N-NO 22 ° 0 min 0,000 mm 0,7 UV-I 72 W/m² 13,3 °C 16,4 °C 11,3 km/h (2 Bft)
09.10.2018 16:57 16,4 °C 82 % 1018,6 hPa 0,0 mm 5,8 km/h (2 Bft) O-NO 63 ° 0 min 0,000 mm 0,7 UV-I 67 W/m² 13,3 °C 16,4 °C 8,0 km/h (2 Bft)
09.10.2018 16:58 16,3 °C 82 % 1018,7 hPa 0,0 mm 3,5 km/h (1 Bft) O 94 ° 0 min 0,000 mm 0,7 UV-I 63 W/m² 13,2 °C 16,3 °C 4,8 km/h (1 Bft)
09.10.2018 16:59 16,3 °C 82 % 1018,7 hPa 0,0 mm 6,0 km/h (2 Bft) O-NO 63 ° 0 min 0,000 mm 0,6 UV-I 60 W/m² 13,2 °C 16,3 °C 8,0 km/h (2 Bft)
09.10.2018 17:00 16,2 °C 82 % 1018,7 hPa 0,0 mm 8,0 km/h (2 Bft) O-NO 61 ° 0 min 0,000 mm 0,6 UV-I 60 W/m² 13,1 °C 16,2 °C 11,3 km/h (2 Bft)
09.10.2018 17:01 16,1 °C 82 % 1018,7 hPa 0,0 mm 5,4 km/h (1 Bft) O 84 ° 0 min 0,076 mm 0,6 UV-I 72 W/m² 13,0 °C 16,1 °C 11,3 km/h (2 Bft)
09.10.2018 17:02 16,0 °C 82 % 1018,7 hPa 0,0 mm 3,7 km/h (1 Bft) O-NO 62 ° 0 min 0,000 mm 0,6 UV-I 76 W/m² 12,9 °C 16,0 °C 6,4 km/h (2 Bft)
09.10.2018 17:03 15,9 °C 83 % 1018,7 hPa 0,0 mm 5,6 km/h (1 Bft) O 87 ° 0 min 0,000 mm 0,6 UV-I 77 W/m² 13,0 °C 15,9 °C 9,7 km/h (2 Bft)
09.10.2018 17:04 15,8 °C 83 % 1018,8 hPa 0,0 mm 6,0 km/h (2 Bft) O-NO 65 ° 0 min 0,000 mm 0,6 UV-I 79 W/m² 12,9 °C 15,8 °C 11,3 km/h (2 Bft)
09.10.2018 17:05 15,8 °C 83 % 1018,8 hPa 0,0 mm 5,7 km/h (1 Bft) O-NO 76 ° 0 min 0,000 mm 0,6 UV-I 84 W/m² 12,9 °C 15,8 °C 9,7 km/h (2 Bft)
09.10.2018 17:06 15,7 °C 83 % 1018,8 hPa 0,0 mm 3,5 km/h (1 Bft) O-NO 78 ° 0 min 0,000 mm 0,6 UV-I 90 W/m² 12,8 °C 15,7 °C 6,4 km/h (2 Bft)
09.10.2018 17:07 15,7 °C 84 % 1018,8 hPa 0,0 mm 2,6 km/h (1 Bft) N-NO 22 ° 0 min 0,000 mm 0,6 UV-I 93 W/m² 13,0 °C 15,7 °C 4,8 km/h (1 Bft)
09.10.2018 17:08 15,7 °C 84 % 1018,8 hPa 0,0 mm 0,8 km/h (0 Bft) N-NO 22 ° 0 min 0,000 mm 0,6 UV-I 91 W/m² 13,0 °C 15,7 °C 3,2 km/h (1 Bft)
09.10.2018 17:09 15,7 °C 84 % 1018,8 hPa 0,0 mm 3,8 km/h (1 Bft) N 5 ° 0 min 0,000 mm 0,5 UV-I 91 W/m² 13,0 °C 15,7 °C 8,0 km/h (2 Bft)
09.10.2018 17:10 15,7 °C 84 % 1018,8 hPa 0,0 mm 4,8 km/h (1 Bft) O-NO 71 ° 0 min 0,000 mm 0,5 UV-I 90 W/m² 13,0 °C 15,7 °C 6,4 km/h (2 Bft)
09.10.2018 17:11 15,7 °C 84 % 1018,8 hPa 0,0 mm 3,1 km/h (1 Bft) NO 38 ° 0 min 0,000 mm 0,5 UV-I 88 W/m² 13,0 °C 15,7 °C 4,8 km/h (1 Bft)
09.10.2018 17:12 15,7 °C 84 % 1018,8 hPa 0,0 mm 1,6 km/h (1 Bft) NO 38 ° 0 min 0,000 mm 0,5 UV-I 83 W/m² 13,0 °C 15,7 °C 4,8 km/h (1 Bft)
09.10.2018 17:13 15,7 °C 85 % 1018,8 hPa 0,0 mm 0,0 km/h (0 Bft) NO 38 ° 0 min 0,000 mm 0,5 UV-I 76 W/m² 13,2 °C 15,7 °C 0,0 km/h (0 Bft)
09.10.2018 17:14 15,7 °C 84 % 1018,8 hPa 0,0 mm 2,0 km/h (1 Bft) NO 38 ° 0 min 0,000 mm 0,5 UV-I 72 W/m² 13,0 °C 15,7 °C 4,8 km/h (1 Bft)
09.10.2018 17:15 15,7 °C 84 % 1018,8 hPa 0,0 mm 2,6 km/h (1 Bft) NO 38 ° 0 min 0,000 mm 0,0 UV-I 70 W/m² 13,0 °C 15,7 °C 3,2 km/h (1 Bft)
09.10.2018 17:16 15,7 °C 84 % 1018,9 hPa 0,0 mm 1,8 km/h (1 Bft) NO 38 ° 0 min 0,000 mm 0,0 UV-I 67 W/m² 13,0 °C 15,7 °C 3,2 km/h (1 Bft)
09.10.2018 17:17 15,7 °C 84 % 1018,9 hPa 0,0 mm 1,8 km/h (1 Bft) NO 38 ° 0 min 0,000 mm 0,0 UV-I 69 W/m² 13,0 °C 15,7 °C 3,2 km/h (1 Bft)
09.10.2018 17:18 15,6 °C 84 % 1018,9 hPa 0,0 mm 3,1 km/h (1 Bft) NO 38 ° 0 min 0,000 mm 0,0 UV-I 69 W/m² 12,9 °C 15,6 °C 6,4 km/h (2 Bft)
09.10.2018 17:19 15,7 °C 84 % 1018,9 hPa 0,0 mm 1,1 km/h (1 Bft) NO 38 ° 0 min 0,000 mm 0,0 UV-I 67 W/m² 13,0 °C 15,7 °C 1,6 km/h (1 Bft)
09.10.2018 17:20 15,7 °C 84 % 1018,9 hPa 0,0 mm 1,5 km/h (1 Bft) O-NO 72 ° 0 min 0,000 mm 0,0 UV-I 67 W/m² 13,0 °C 15,7 °C 4,8 km/h (1 Bft)
09.10.2018 17:21 15,7 °C 84 % 1018,8 hPa 0,0 mm 2,8 km/h (1 Bft) NO 41 ° 0 min 0,000 mm 0,0 UV-I 67 W/m² 13,0 °C 15,7 °C 4,8 km/h (1 Bft)
09.10.2018 17:22 15,7 °C 84 % 1018,9 hPa 0,0 mm 2,2 km/h (1 Bft) O-NO 65 ° 0 min 0,000 mm 0,0 UV-I 63 W/m² 13,0 °C 15,7 °C 6,4 km/h (2 Bft)
09.10.2018 17:23 15,7 °C 84 % 1018,9 hPa 0,0 mm 4,2 km/h (1 Bft) O-NO 70 ° 0 min 0,000 mm 0,0 UV-I 63 W/m² 13,0 °C 15,7 °C 6,4 km/h (2 Bft)
09.10.2018 17:24 15,7 °C 85 % 1018,9 hPa 0,0 mm 4,8 km/h (1 Bft) O 82 ° 0 min 0,000 mm 0,0 UV-I 63 W/m² 13,2 °C 15,7 °C 6,4 km/h (2 Bft)
09.10.2018 17:25 15,7 °C 84 % 1018,9 hPa 0,0 mm 2,2 km/h (1 Bft) O 80 ° 0 min 0,000 mm 0,0 UV-I 63 W/m² 13,0 °C 15,7 °C 3,2 km/h (1 Bft)
09.10.2018 17:26 15,6 °C 84 % 1019,0 hPa 0,0 mm 3,9 km/h (1 Bft) O 83 ° 0 min 0,000 mm 0,0 UV-I 62 W/m² 12,9 °C 15,6 °C 6,4 km/h (2 Bft)
09.10.2018 17:27 15,6 °C 84 % 1019,0 hPa 0,0 mm 3,7 km/h (1 Bft) O-NO 74 ° 0 min 0,000 mm 0,0 UV-I 60 W/m² 12,9 °C 15,6 °C 6,4 km/h (2 Bft)
09.10.2018 17:28 15,6 °C 84 % 1019,0 hPa 0,0 mm 0,9 km/h (0 Bft) O-NO 57 ° 0 min 0,000 mm 0,0 UV-I 60 W/m² 12,9 °C 15,6 °C 6,4 km/h (2 Bft)
09.10.2018 17:29 15,6 °C 84 % 1019,0 hPa 0,0 mm 5,1 km/h (1 Bft) O-NO 74 ° 0 min 0,000 mm 0,0 UV-I 60 W/m² 12,9 °C 15,6 °C 11,3 km/h (2 Bft)
09.10.2018 17:30 15,5 °C 84 % 1019,0 hPa 0,0 mm 4,4 km/h (1 Bft) NO 36 ° 0 min 0,000 mm 0,0 UV-I 60 W/m² 12,8 °C 15,5 °C 6,4 km/h (2 Bft)
09.10.2018 17:31 15,4 °C 84 % 1018,9 hPa 0,0 mm 2,3 km/h (1 Bft) NO 49 ° 0 min 0,000 mm 0,0 UV-I 58 W/m² 12,7 °C 15,4 °C 4,8 km/h (1 Bft)
09.10.2018 17:32 15,4 °C 84 % 1018,9 hPa 0,0 mm 0,7 km/h (0 Bft) NO 49 ° 0 min 0,000 mm 0,0 UV-I 54 W/m² 12,7 °C 15,4 °C 3,2 km/h (1 Bft)
09.10.2018 17:33 15,4 °C 84 % 1018,9 hPa 0,0 mm 1,7 km/h (1 Bft) NO 49 ° 0 min 0,000 mm 0,0 UV-I 53 W/m² 12,7 °C 15,4 °C 3,2 km/h (1 Bft)
09.10.2018 17:34 15,4 °C 84 % 1018,9 hPa 0,0 mm 4,5 km/h (1 Bft) NO 55 ° 0 min 0,000 mm 0,0 UV-I 53 W/m² 12,7 °C 15,4 °C 6,4 km/h (2 Bft)
09.10.2018 17:35 15,4 °C 84 % 1019,0 hPa 0,0 mm 1,1 km/h (1 Bft) NO 55 ° 0 min 0,000 mm 0,0 UV-I 51 W/m² 12,7 °C 15,4 °C 4,8 km/h (1 Bft)
09.10.2018 17:36 15,4 °C 85 % 1018,9 hPa 0,0 mm 2,7 km/h (1 Bft) NO 55 ° 0 min 0,000 mm 0,0 UV-I 47 W/m² 12,9 °C 15,4 °C 4,8 km/h (1 Bft)
09.10.2018 17:37 15,4 °C 85 % 1019,0 hPa 0,0 mm 0,2 km/h (0 Bft) NO 55 ° 0 min 0,000 mm 0,0 UV-I 47 W/m² 12,9 °C 15,4 °C 1,6 km/h (1 Bft)
09.10.2018 17:38 15,4 °C 85 % 1019,0 hPa 0,0 mm 0,0 km/h (0 Bft) NO 55 ° 0 min 0,000 mm 0,0 UV-I 46 W/m² 12,9 °C 15,4 °C 0,0 km/h (0 Bft)
09.10.2018 17:39 15,3 °C 85 % 1019,0 hPa 0,0 mm 3,2 km/h (1 Bft) NO 51 ° 0 min 0,000 mm 0,0 UV-I 42 W/m² 12,8 °C 15,3 °C 4,8 km/h (1 Bft)
09.10.2018 17:40 15,3 °C 85 % 1018,9 hPa 0,0 mm 3,2 km/h (1 Bft) NO 46 ° 0 min 0,000 mm 0,0 UV-I 42 W/m² 12,8 °C 15,3 °C 4,8 km/h (1 Bft)
09.10.2018 17:41 15,3 °C 85 % 1019,0 hPa 0,0 mm 3,0 km/h (1 Bft) O-NO 59 ° 0 min 0,000 mm 0,0 UV-I 44 W/m² 12,8 °C 15,3 °C 4,8 km/h (1 Bft)
09.10.2018 17:42 15,3 °C 85 % 1019,0 hPa 0,0 mm 2,5 km/h (1 Bft) N-NO 33 ° 0 min 0,000 mm 0,0 UV-I 44 W/m² 12,8 °C 15,3 °C 4,8 km/h (1 Bft)
09.10.2018 17:43 15,3 °C 85 % 1019,0 hPa 0,0 mm 2,0 km/h (1 Bft) N-NO 33 ° 0 min 0,000 mm 0,0 UV-I 47 W/m² 12,8 °C 15,3 °C 4,8 km/h (1 Bft)
09.10.2018 17:44 15,2 °C 85 % 1019,0 hPa 0,0 mm 2,8 km/h (1 Bft) N-NO 33 ° 0 min 0,000 mm 0,0 UV-I 49 W/m² 12,7 °C 15,2 °C 4,8 km/h (1 Bft)
09.10.2018 17:45 15,2 °C 85 % 1019,0 hPa 0,0 mm 2,6 km/h (1 Bft) NO 34 ° 0 min 0,000 mm 0,0 UV-I 51 W/m² 12,7 °C 15,2 °C 4,8 km/h (1 Bft)
09.10.2018 17:46 15,2 °C 85 % 1018,9 hPa 0,0 mm 3,3 km/h (1 Bft) NO 34 ° 0 min 0,000 mm 0,0 UV-I 53 W/m² 12,7 °C 15,2 °C 4,8 km/h (1 Bft)
09.10.2018 17:47 15,3 °C 85 % 1018,9 hPa 0,0 mm 1,5 km/h (1 Bft) O-NO 76 ° 0 min 0,000 mm 0,0 UV-I 53 W/m² 12,8 °C 15,3 °C 3,2 km/h (1 Bft)
09.10.2018 17:48 15,2 °C 85 % 1018,9 hPa 0,0 mm 1,0 km/h (0 Bft) O-NO 76 ° 0 min 0,000 mm 0,0 UV-I 54 W/m² 12,7 °C 15,2 °C 3,2 km/h (1 Bft)
09.10.2018 17:49 15,2 °C 85 % 1019,0 hPa 0,0 mm 3,5 km/h (1 Bft) O 92 ° 0 min 0,000 mm 0,0 UV-I 54 W/m² 12,7 °C 15,2 °C 6,4 km/h (2 Bft)
09.10.2018 17:50 15,2 °C 85 % 1018,9 hPa 0,0 mm 3,9 km/h (1 Bft) O-NO 61 ° 0 min 0,000 mm 0,0 UV-I 53 W/m² 12,7 °C 15,2 °C 4,8 km/h (1 Bft)
09.10.2018 17:51 15,1 °C 85 % 1018,9 hPa 0,0 mm 2,3 km/h (1 Bft) O-NO 61 ° 0 min 0,000 mm 0,0 UV-I 51 W/m² 12,6 °C 15,1 °C 3,2 km/h (1 Bft)
09.10.2018 17:52 15,1 °C 85 % 1018,9 hPa 0,0 mm 1,3 km/h (1 Bft) O-NO 61 ° 0 min 0,000 mm 0,0 UV-I 51 W/m² 12,6 °C 15,1 °C 3,2 km/h (1 Bft)
09.10.2018 17:53 15,1 °C 85 % 1018,9 hPa 0,0 mm 2,3 km/h (1 Bft) NO 44 ° 0 min 0,000 mm 0,0 UV-I 51 W/m² 12,6 °C 15,1 °C 8,0 km/h (2 Bft)
09.10.2018 17:54 15,1 °C 85 % 1019,0 hPa 0,0 mm 2,2 km/h (1 Bft) NO 44 ° 0 min 0,000 mm 0,0 UV-I 49 W/m² 12,6 °C 15,1 °C 6,4 km/h (2 Bft)
09.10.2018 17:55 15,1 °C 85 % 1018,9 hPa 0,0 mm 2,1 km/h (1 Bft) NO 44 ° 0 min 0,000 mm 0,0 UV-I 49 W/m² 12,6 °C 15,1 °C 8,0 km/h (2 Bft)
09.10.2018 17:56 15,1 °C 85 % 1018,9 hPa 0,0 mm 4,2 km/h (1 Bft) NO 38 ° 0 min 0,000 mm 0,0 UV-I 49 W/m² 12,6 °C 15,1 °C 6,4 km/h (2 Bft)
09.10.2018 17:57 15,1 °C 85 % 1018,9 hPa 0,0 mm 4,2 km/h (1 Bft) O 82 ° 0 min 0,000 mm 0,0 UV-I 47 W/m² 12,6 °C 15,1 °C 6,4 km/h (2 Bft)
09.10.2018 17:58 15,1 °C 85 % 1018,9 hPa 0,0 mm 8,0 km/h (2 Bft) NO 43 ° 0 min 0,000 mm 0,0 UV-I 44 W/m² 12,6 °C 15,1 °C 11,3 km/h (2 Bft)
09.10.2018 17:59 15,0 °C 85 % 1019,0 hPa 0,0 mm 2,9 km/h (1 Bft) O-NO 72 ° 0 min 0,000 mm 0,0 UV-I 42 W/m² 12,5 °C 15,0 °C 8,0 km/h (2 Bft)
09.10.2018 18:00 15,0 °C 85 % 1018,9 hPa 0,0 mm 6,2 km/h (2 Bft) NO 35 ° 0 min 0,051 mm 0,0 UV-I 35 W/m² 12,5 °C 15,0 °C 9,7 km/h (2 Bft)
09.10.2018 18:01 15,0 °C 86 % 1018,9 hPa 0,0 mm 4,4 km/h (1 Bft) NO 40 ° 0 min 0,000 mm 0,0 UV-I 33 W/m² 12,7 °C 15,0 °C 6,4 km/h (2 Bft)
09.10.2018 18:02 15,0 °C 86 % 1018,9 hPa 0,0 mm 6,5 km/h (2 Bft) NO 40 ° 0 min 0,000 mm 0,0 UV-I 32 W/m² 12,7 °C 15,0 °C 8,0 km/h (2 Bft)
09.10.2018 18:03 15,0 °C 85 % 1018,9 hPa 0,0 mm 5,0 km/h (1 Bft) NO 55 ° 0 min 0,000 mm 0,0 UV-I 32 W/m² 12,5 °C 15,0 °C 6,4 km/h (2 Bft)
09.10.2018 18:04 15,0 °C 86 % 1018,9 hPa 0,0 mm 2,6 km/h (1 Bft) NO 55 ° 0 min 0,000 mm 0,0 UV-I 30 W/m² 12,7 °C 15,0 °C 4,8 km/h (1 Bft)
09.10.2018 18:05 15,0 °C 86 % 1018,9 hPa 0,0 mm 4,3 km/h (1 Bft) NO 53 ° 0 min 0,000 mm 0,0 UV-I 30 W/m² 12,7 °C 15,0 °C 6,4 km/h (2 Bft)
09.10.2018 18:06 15,0 °C 86 % 1018,9 hPa 0,0 mm 5,6 km/h (1 Bft) NO 49 ° 0 min 0,000 mm 0,0 UV-I 28 W/m² 12,7 °C 15,0 °C 8,0 km/h (2 Bft)
09.10.2018 18:07 14,9 °C 86 % 1019,0 hPa 0,0 mm 5,5 km/h (1 Bft) O-NO 63 ° 0 min 0,000 mm 0,0 UV-I 26 W/m² 12,6 °C 14,9 °C 8,0 km/h (2 Bft)
09.10.2018 18:08 14,9 °C 86 % 1018,9 hPa 0,0 mm 6,5 km/h (2 Bft) NO 45 ° 0 min 0,000 mm 0,0 UV-I 25 W/m² 12,6 °C 14,9 °C 9,7 km/h (2 Bft)
09.10.2018 18:09 14,9 °C 86 % 1018,9 hPa 0,0 mm 4,5 km/h (1 Bft) NO 38 ° 0 min 0,000 mm 0,0 UV-I 23 W/m² 12,6 °C 14,9 °C 8,0 km/h (2 Bft)
09.10.2018 18:10 14,9 °C 86 % 1018,9 hPa 0,0 mm 4,6 km/h (1 Bft) O-NO 58 ° 0 min 0,000 mm 0,0 UV-I 21 W/m² 12,6 °C 14,9 °C 8,0 km/h (2 Bft)
09.10.2018 18:11 14,8 °C 86 % 1018,9 hPa 0,0 mm 4,9 km/h (1 Bft) NO 55 ° 0 min 0,000 mm 0,0 UV-I 21 W/m² 12,5 °C 14,8 °C 6,4 km/h (2 Bft)
09.10.2018 18:12 14,8 °C 86 % 1019,0 hPa 0,0 mm 1,7 km/h (1 Bft) NO 55 ° 0 min 0,000 mm 0,0 UV-I 19 W/m² 12,5 °C 14,8 °C 4,8 km/h (1 Bft)
09.10.2018 18:13 14,8 °C 86 % 1018,9 hPa 0,0 mm 1,1 km/h (1 Bft) NO 34 ° 0 min 0,000 mm 0,0 UV-I 19 W/m² 12,5 °C 14,8 °C 4,8 km/h (1 Bft)
09.10.2018 18:14 14,8 °C 86 % 1019,0 hPa 0,0 mm 3,5 km/h (1 Bft) O-NO 58 ° 0 min 0,000 mm 0,0 UV-I 18 W/m² 12,5 °C 14,8 °C 6,4 km/h (2 Bft)
09.10.2018 18:15 14,7 °C 86 % 1018,9 hPa 0,0 mm 4,7 km/h (1 Bft) NO 53 ° 0 min 0,000 mm 0,0 UV-I 16 W/m² 12,4 °C 14,7 °C 9,7 km/h (2 Bft)
09.10.2018 18:16 14,7 °C 87 % 1018,9 hPa 0,0 mm 3,3 km/h (1 Bft) NO 53 ° 0 min 0,000 mm 0,0 UV-I 16 W/m² 12,6 °C 14,7 °C 4,8 km/h (1 Bft)
09.10.2018 18:17 14,6 °C 87 % 1019,0 hPa 0,0 mm 2,7 km/h (1 Bft) NO 54 ° 0 min 0,000 mm 0,0 UV-I 14 W/m² 12,5 °C 14,6 °C 6,4 km/h (2 Bft)
09.10.2018 18:18 14,6 °C 87 % 1019,0 hPa 0,0 mm 2,6 km/h (1 Bft) O-NO 65 ° 0 min 0,000 mm 0,0 UV-I 12 W/m² 12,5 °C 14,6 °C 4,8 km/h (1 Bft)
09.10.2018 18:19 14,4 °C 87 % 1019,0 hPa 0,0 mm 3,2 km/h (1 Bft) NO 40 ° 0 min 0,000 mm 0,0 UV-I 12 W/m² 12,3 °C 14,4 °C 6,4 km/h (2 Bft)
09.10.2018 18:20 14,4 °C 87 % 1018,9 hPa 0,0 mm 4,5 km/h (1 Bft) NO 53 ° 0 min 0,000 mm 0,0 UV-I 12 W/m² 12,3 °C 14,4 °C 6,4 km/h (2 Bft)
09.10.2018 18:21 14,4 °C 88 % 1018,9 hPa 0,0 mm 5,3 km/h (1 Bft) O-NO 68 ° 0 min 0,000 mm 0,0 UV-I 12 W/m² 12,4 °C 14,4 °C 6,4 km/h (2 Bft)
09.10.2018 18:22 14,3 °C 88 % 1019,0 hPa 0,0 mm 3,1 km/h (1 Bft) O-NO 57 ° 0 min 0,000 mm 0,0 UV-I 11 W/m² 12,3 °C 14,3 °C 6,4 km/h (2 Bft)
09.10.2018 18:23 14,3 °C 88 % 1019,0 hPa 0,0 mm 0,4 km/h (0 Bft) O-NO 57 ° 0 min 0,000 mm 0,0 UV-I 11 W/m² 12,3 °C 14,3 °C 3,2 km/h (1 Bft)
09.10.2018 18:24 14,2 °C 88 % 1019,0 hPa 0,0 mm 0,0 km/h (0 Bft) O-NO 57 ° 0 min 0,000 mm 0,0 UV-I 11 W/m² 12,2 °C 14,2 °C 0,0 km/h (0 Bft)
09.10.2018 18:25 14,2 °C 88 % 1019,0 hPa 0,0 mm 0,7 km/h (0 Bft) O-NO 57 ° 0 min 0,000 mm 0,0 UV-I 11 W/m² 12,2 °C 14,2 °C 3,2 km/h (1 Bft)
09.10.2018 18:26 14,1 °C 88 % 1019,0 hPa 0,0 mm 1,9 km/h (1 Bft) O-NO 57 ° 0 min 0,000 mm 0,0 UV-I 9 W/m² 12,1 °C 14,1 °C 3,2 km/h (1 Bft)
09.10.2018 18:27 14,1 °C 88 % 1019,0 hPa 0,0 mm 0,7 km/h (0 Bft) O-NO 58 ° 0 min 0,000 mm 0,0 UV-I 9 W/m² 12,1 °C 14,1 °C 3,2 km/h (1 Bft)
09.10.2018 18:28 14,1 °C 88 % 1019,0 hPa 0,0 mm 0,0 km/h (0 Bft) O-NO 58 ° 0 min 0,000 mm 0,0 UV-I 9 W/m² 12,1 °C 14,1 °C 0,0 km/h (0 Bft)
09.10.2018 18:29 13,9 °C 88 % 1019,0 hPa 0,0 mm 0,0 km/h (0 Bft) O-NO 58 ° 0 min 0,000 mm 0,0 UV-I 7 W/m² 11,9 °C 13,9 °C 0,0 km/h (0 Bft)
09.10.2018 18:30 13,9 °C 88 % 1019,0 hPa 0,0 mm 0,0 km/h (0 Bft) O-NO 58 ° 0 min 0,000 mm 0,0 UV-I 7 W/m² 11,9 °C 13,9 °C 0,0 km/h (0 Bft)
09.10.2018 18:31 13,9 °C 89 % 1019,0 hPa 0,0 mm 1,9 km/h (1 Bft) O-NO 70 ° 0 min 0,000 mm 0,0 UV-I 7 W/m² 12,1 °C 13,9 °C 4,8 km/h (1 Bft)
09.10.2018 18:32 13,8 °C 89 % 1019,0 hPa 0,0 mm 2,0 km/h (1 Bft) O 81 ° 0 min 0,000 mm 0,0 UV-I 5 W/m² 12,0 °C 13,8 °C 3,2 km/h (1 Bft)
09.10.2018 18:33 13,8 °C 89 % 1019,0 hPa 0,0 mm 0,0 km/h (0 Bft) O 81 ° 0 min 0,000 mm 0,0 UV-I 5 W/m² 12,0 °C 13,8 °C 0,0 km/h (0 Bft)
09.10.2018 18:34 13,8 °C 89 % 1019,0 hPa 0,0 mm 0,4 km/h (0 Bft) O 81 ° 0 min 0,000 mm 0,0 UV-I 5 W/m² 12,0 °C 13,8 °C 1,6 km/h (1 Bft)
09.10.2018 18:35 13,8 °C 89 % 1019,0 hPa 0,0 mm 0,0 km/h (0 Bft) O 81 ° 0 min 0,000 mm 0,0 UV-I 5 W/m² 12,0 °C 13,8 °C 0,0 km/h (0 Bft)
09.10.2018 18:36 13,8 °C 89 % 1019,0 hPa 0,0 mm 0,0 km/h (0 Bft) O 81 ° 0 min 0,000 mm 0,0 UV-I 5 W/m² 12,0 °C 13,8 °C 0,0 km/h (0 Bft)
09.10.2018 18:37 13,8 °C 89 % 1019,0 hPa 0,0 mm 1,7 km/h (1 Bft) O-SO 115 ° 0 min 0,000 mm 0,0 UV-I 0 W/m² 12,0 °C 13,8 °C 4,8 km/h (1 Bft)
09.10.2018 18:38 13,7 °C 89 % 1019,0 hPa 0,0 mm 0,8 km/h (0 Bft) O-SO 116 ° 0 min 0,000 mm 0,0 UV-I 0 W/m² 11,9 °C 13,7 °C 3,2 km/h (1 Bft)
09.10.2018 18:39 13,7 °C 89 % 1019,0 hPa 0,0 mm 1,3 km/h (1 Bft) O-SO 116 ° 0 min 0,000 mm 0,0 UV-I 0 W/m² 11,9 °C 13,7 °C 3,2 km/h (1 Bft)
09.10.2018 18:40 13,7 °C 89 % 1018,9 hPa 0,0 mm 0,2 km/h (0 Bft) O-SO 116 ° 0 min 0,000 mm 0,0 UV-I 0 W/m² 11,9 °C 13,7 °C 1,6 km/h (1 Bft)
09.10.2018 18:41 13,7 °C 89 % 1018,9 hPa 0,0 mm 0,5 km/h (0 Bft) O-SO 116 ° 0 min 0,000 mm 0,0 UV-I 0 W/m² 11,9 °C 13,7 °C 1,6 km/h (1 Bft)
09.10.2018 18:42 13,6 °C 89 % 1018,9 hPa 0,0 mm 0,5 km/h (0 Bft) O-SO 116 ° 0 min 0,000 mm 0,0 UV-I 0 W/m² 11,8 °C 13,6 °C 1,6 km/h (1 Bft)
09.10.2018 18:43 13,6 °C 89 % 1018,9 hPa 0,0 mm 0,3 km/h (0 Bft) O-SO 116 ° 0 min 0,000 mm 0,0 UV-I 0 W/m² 11,8 °C 13,6 °C 1,6 km/h (1 Bft)
09.10.2018 18:44 13,6 °C 89 % 1018,9 hPa 0,0 mm 0,6 km/h (0 Bft) O-SO 105 ° 0 min 0,000 mm 0,0 UV-I 0 W/m² 11,8 °C 13,6 °C 3,2 km/h (1 Bft)
09.10.2018 18:45 13,5 °C 90 % 1018,9 hPa 0,0 mm 0,3 km/h (0 Bft) O-SO 109 ° 0 min 0,000 mm 0,0 UV-I 0 W/m² 11,9 °C 13,5 °C 1,6 km/h (1 Bft)
09.10.2018 18:46 13,4 °C 90 % 1018,9 hPa 0,0 mm 0,0 km/h (0 Bft) O-SO 109 ° 0 min 0,000 mm 0,0 UV-I 0 W/m² 11,8 °C 13,4 °C 0,0 km/h (0 Bft)
09.10.2018 18:47 13,4 °C 90 % 1018,9 hPa 0,0 mm 1,0 km/h (0 Bft) O-SO 109 ° 0 min 0,000 mm 0,0 UV-I 0 W/m² 11,8 °C 13,4 °C 3,2 km/h (1 Bft)
09.10.2018 18:48 13,4 °C 89 % 1018,9 hPa 0,0 mm 0,0 km/h (0 Bft) O-SO 109 ° 0 min 0,000 mm 0,0 UV-I 0 W/m² 11,6 °C 13,4 °C 0,0 km/h (0 Bft)
09.10.2018 18:49 13,4 °C 90 % 1018,9 hPa 0,0 mm 1,0 km/h (0 Bft) O-SO 109 ° 0 min 0,000 mm 0,0 UV-I 0 W/m² 11,8 °C 13,4 °C 3,2 km/h (1 Bft)
09.10.2018 18:50 13,3 °C 90 % 1018,9 hPa 0,0 mm 0,9 km/h (0 Bft) O-SO 109 ° 0 min 0,000 mm 0,0 UV-I 0 W/m² 11,7 °C 13,3 °C 3,2 km/h (1 Bft)
09.10.2018 18:51 13,3 °C 90 % 1018,9 hPa 0,0 mm 0,0 km/h (0 Bft) O-SO 109 ° 0 min 0,000 mm 0,0 UV-I 0 W/m² 11,7 °C 13,3 °C 0,0 km/h (0 Bft)
09.10.2018 18:52 13,2 °C 90 % 1018,9 hPa 0,0 mm 0,1 km/h (0 Bft) O-SO 109 ° 0 min 0,000 mm 0,0 UV-I 0 W/m² 11,6 °C 13,2 °C 1,6 km/h (1 Bft)
09.10.2018 18:53 13,2 °C 90 % 1018,9 hPa 0,0 mm 0,2 km/h (0 Bft) O-SO 109 ° 0 min 0,000 mm 0,0 UV-I 0 W/m² 11,6 °C 13,2 °C 1,6 km/h (1 Bft)
09.10.2018 18:54 13,1 °C 90 % 1018,9 hPa 0,0 mm 0,0 km/h (0 Bft) O-SO 109 ° 0 min 0,000 mm 0,0 UV-I 0 W/m² 11,5 °C 13,1 °C 0,0 km/h (0 Bft)
09.10.2018 18:55 13,1 °C 90 % 1018,8 hPa 0,0 mm 0,0 km/h (0 Bft) O-SO 109 ° 0 min 0,000 mm 0,0 UV-I 0 W/m² 11,5 °C 13,1 °C 0,0 km/h (0 Bft)
09.10.2018 18:56 13,0 °C 90 % 1018,9 hPa 0,0 mm 0,0 km/h (0 Bft) O-SO 109 ° 0 min 0,000 mm 0,0 UV-I 0 W/m² 11,4 °C 13,0 °C 0,0 km/h (0 Bft)
09.10.2018 18:57 12,9 °C 90 % 1018,9 hPa 0,0 mm 0,0 km/h (0 Bft) O-SO 109 ° 0 min 0,000 mm 0,0 UV-I 0 W/m² 11,3 °C 12,9 °C 0,0 km/h (0 Bft)
09.10.2018 18:58 12,9 °C 90 % 1018,9 hPa 0,0 mm 0,0 km/h (0 Bft) O-SO 109 ° 0 min 0,000 mm 0,0 UV-I 0 W/m² 11,3 °C 12,9 °C 0,0 km/h (0 Bft)
09.10.2018 18:59 12,8 °C 91 % 1018,9 hPa 0,0 mm 0,0 km/h (0 Bft) O-SO 109 ° 0 min 0,000 mm 0,0 UV-I 0 W/m² 11,4 °C 12,8 °C 0,0 km/h (0 Bft)
09.10.2018 19:00 12,8 °C 91 % 1018,9 hPa 0,0 mm 0,0 km/h (0 Bft) O-SO 109 ° 0 min 0,000 mm 0,0 UV-I 0 W/m² 11,4 °C 12,8 °C 0,0 km/h (0 Bft)
09.10.2018 19:01 12,8 °C 91 % 1018,9 hPa 0,0 mm 0,0 km/h (0 Bft) O-SO 109 ° 0 min 0,000 mm 0,0 UV-I 0 W/m² 11,4 °C 12,8 °C 0,0 km/h (0 Bft)
09.10.2018 19:02 12,8 °C 91 % 1018,9 hPa 0,0 mm 0,0 km/h (0 Bft) O-SO 109 ° 0 min 0,000 mm 0,0 UV-I 0 W/m² 11,4 °C 12,8 °C 0,0 km/h (0 Bft)
09.10.2018 19:03 12,7 °C 91 % 1018,9 hPa 0,0 mm 0,0 km/h (0 Bft) O-SO 109 ° 0 min 0,000 mm 0,0 UV-I 0 W/m² 11,3 °C 12,7 °C 0,0 km/h (0 Bft)
09.10.2018 19:04 12,7 °C 91 % 1018,9 hPa 0,0 mm 0,0 km/h (0 Bft) O-SO 109 ° 0 min 0,000 mm 0,0 UV-I 0 W/m² 11,3 °C 12,7 °C 0,0 km/h (0 Bft)
09.10.2018 19:05 12,7 °C 91 % 1018,8 hPa 0,0 mm 0,0 km/h (0 Bft) O-SO 109 ° 0 min 0,000 mm 0,0 UV-I 0 W/m² 11,3 °C 12,7 °C 0,0 km/h (0 Bft)
09.10.2018 19:06 12,7 °C 91 % 1018,9 hPa 0,0 mm 0,9 km/h (0 Bft) O-SO 109 ° 0 min 0,000 mm 0,0 UV-I 0 W/m² 11,3 °C 12,7 °C 3,2 km/h (1 Bft)
09.10.2018 19:07 12,7 °C 91 % 1018,9 hPa 0,0 mm 0,1 km/h (0 Bft) O-SO 109 ° 0 min 0,000 mm 0,0 UV-I 0 W/m² 11,3 °C 12,7 °C 1,6 km/h (1 Bft)
09.10.2018 19:08 12,6 °C 91 % 1019,0 hPa 0,0 mm 0,0 km/h (0 Bft) O-SO 109 ° 0 min 0,000 mm 0,0 UV-I 0 W/m² 11,2 °C 12,6 °C 0,0 km/h (0 Bft)
09.10.2018 19:09 12,6 °C 91 % 1018,9 hPa 0,0 mm 0,0 km/h (0 Bft) O-SO 109 ° 0 min 0,000 mm 0,0 UV-I 0 W/m² 11,2 °C 12,6 °C 0,0 km/h (0 Bft)
09.10.2018 19:10 12,6 °C 91 % 1018,9 hPa 0,0 mm 0,5 km/h (0 Bft) O-SO 109 ° 0 min 0,000 mm 0,0 UV-I 0 W/m² 11,2 °C 12,6 °C 1,6 km/h (1 Bft)
09.10.2018 19:11 12,4 °C 91 % 1019,0 hPa 0,0 mm 0,0 km/h (0 Bft) O-SO 109 ° 0 min 0,000 mm 0,0 UV-I 0 W/m² 11,0 °C 12,4 °C 0,0 km/h (0 Bft)
09.10.2018 19:12 12,4 °C 91 % 1019,0 hPa 0,0 mm 0,2 km/h (0 Bft) O-SO 109 ° 0 min 0,000 mm 0,0 UV-I 0 W/m² 11,0 °C 12,4 °C 1,6 km/h (1 Bft)
09.10.2018 19:13 12,4 °C 91 % 1018,9 hPa 0,0 mm 0,0 km/h (0 Bft) O-SO 109 ° 0 min 0,000 mm 0,0 UV-I 0 W/m² 11,0 °C 12,4 °C 0,0 km/h (0 Bft)
09.10.2018 19:14 12,4 °C 92 % 1018,9 hPa 0,0 mm 0,0 km/h (0 Bft) O-SO 109 ° 0 min 0,000 mm 0,0 UV-I 0 W/m² 11,1 °C 12,4 °C 0,0 km/h (0 Bft)
09.10.2018 19:15 12,4 °C 92 % 1019,0 hPa 0,0 mm 0,0 km/h (0 Bft) O-SO 109 ° 0 min 0,000 mm 0,0 UV-I 0 W/m² 11,1 °C 12,4 °C 0,0 km/h (0 Bft)
09.10.2018 19:16 12,3 °C 91 % 1019,0 hPa 0,0 mm 0,4 km/h (0 Bft) O-SO 109 ° 0 min 0,000 mm 0,0 UV-I 0 W/m² 10,9 °C 12,3 °C 1,6 km/h (1 Bft)
09.10.2018 19:17 12,3 °C 91 % 1018,9 hPa 0,0 mm 0,0 km/h (0 Bft) O-SO 109 ° 0 min 0,000 mm 0,0 UV-I 0 W/m² 10,9 °C 12,3 °C 0,0 km/h (0 Bft)
09.10.2018 19:18 12,3 °C 92 % 1018,9 hPa 0,0 mm 0,0 km/h (0 Bft) O-SO 109 ° 0 min 0,000 mm 0,0 UV-I 0 W/m² 11,0 °C 12,3 °C 0,0 km/h (0 Bft)
09.10.2018 19:19 12,3 °C 92 % 1018,9 hPa 0,0 mm 0,0 km/h (0 Bft) O-SO 109 ° 0 min 0,000 mm 0,0 UV-I 0 W/m² 11,0 °C 12,3 °C 0,0 km/h (0 Bft)
09.10.2018 19:20 12,3 °C 92 % 1018,9 hPa 0,0 mm 0,0 km/h (0 Bft) O-SO 109 ° 0 min 0,000 mm 0,0 UV-I 0 W/m² 11,0 °C 12,3 °C 0,0 km/h (0 Bft)
09.10.2018 19:21 12,3 °C 92 % 1018,9 hPa 0,0 mm 0,0 km/h (0 Bft) O-SO 109 ° 0 min 0,000 mm 0,0 UV-I 0 W/m² 11,0 °C 12,3 °C 0,0 km/h (0 Bft)
09.10.2018 19:22 12,3 °C 92 % 1018,9 hPa 0,0 mm 0,1 km/h (0 Bft) O-SO 109 ° 0 min 0,000 mm 0,0 UV-I 0 W/m² 11,0 °C 12,3 °C 1,6 km/h (1 Bft)
09.10.2018 19:23 12,3 °C 92 % 1018,9 hPa 0,0 mm 1,0 km/h (0 Bft) O-SO 109 ° 0 min 0,000 mm 0,0 UV-I 0 W/m² 11,0 °C 12,3 °C 1,6 km/h (1 Bft)
09.10.2018 19:24 12,3 °C 92 % 1018,9 hPa 0,0 mm 0,1 km/h (0 Bft) O-SO 109 ° 0 min 0,000 mm 0,0 UV-I 0 W/m² 11,0 °C 12,3 °C 1,6 km/h (1 Bft)
09.10.2018 19:25 12,3 °C 92 % 1018,9 hPa 0,0 mm 0,0 km/h (0 Bft) O-SO 109 ° 0 min 0,000 mm 0,0 UV-I 0 W/m² 11,0 °C 12,3 °C 0,0 km/h (0 Bft)
09.10.2018 19:26 12,2 °C 91 % 1018,9 hPa 0,0 mm 0,0 km/h (0 Bft) O-SO 109 ° 0 min 0,000 mm 0,0 UV-I 0 W/m² 10,8 °C 12,2 °C 0,0 km/h (0 Bft)
09.10.2018 19:27 12,1 °C 91 % 1018,9 hPa 0,0 mm 0,0 km/h (0 Bft) O-SO 109 ° 0 min 0,000 mm 0,0 UV-I 0 W/m² 10,7 °C 12,1 °C 0,0 km/h (0 Bft)
09.10.2018 19:28 12,0 °C 91 % 1018,9 hPa 0,0 mm 0,0 km/h (0 Bft) O-SO 109 ° 0 min 0,000 mm 0,0 UV-I 0 W/m² 10,6 °C 12,0 °C 0,0 km/h (0 Bft)
09.10.2018 19:29 12,0 °C 92 % 1018,9 hPa 0,0 mm 0,0 km/h (0 Bft) O-SO 109 ° 0 min 0,000 mm 0,0 UV-I 0 W/m² 10,7 °C 12,0 °C 0,0 km/h (0 Bft)
09.10.2018 19:30 12,0 °C 92 % 1018,9 hPa 0,0 mm 0,0 km/h (0 Bft) O-SO 109 ° 0 min 0,000 mm 0,0 UV-I 0 W/m² 10,7 °C 12,0 °C 0,0 km/h (0 Bft)
09.10.2018 19:31 12,0 °C 92 % 1018,9 hPa 0,0 mm 0,0 km/h (0 Bft) O-SO 109 ° 0 min 0,000 mm 0,0 UV-I 0 W/m² 10,7 °C 12,0 °C 0,0 km/h (0 Bft)
09.10.2018 19:32 12,0 °C 92 % 1018,9 hPa 0,0 mm 0,0 km/h (0 Bft) O-SO 109 ° 0 min 0,000 mm 0,0 UV-I 0 W/m² 10,7 °C 12,0 °C 0,0 km/h (0 Bft)
09.10.2018 19:33 12,0 °C 92 % 1018,9 hPa 0,0 mm 0,0 km/h (0 Bft) O-SO 109 ° 0 min 0,000 mm 0,0 UV-I 0 W/m² 10,7 °C 12,0 °C 0,0 km/h (0 Bft)
09.10.2018 19:34 11,9 °C 92 % 1018,9 hPa 0,0 mm 0,0 km/h (0 Bft) O-SO 109 ° 0 min 0,000 mm 0,0 UV-I 0 W/m² 10,6 °C 11,9 °C 0,0 km/h (0 Bft)
09.10.2018 19:35 11,8 °C 92 % 1018,9 hPa 0,0 mm 0,0 km/h (0 Bft) O-SO 109 ° 0 min 0,000 mm 0,0 UV-I 0 W/m² 10,5 °C 11,8 °C 0,0 km/h (0 Bft)
09.10.2018 19:36 11,8 °C 92 % 1018,9 hPa 0,0 mm 0,0 km/h (0 Bft) O-SO 109 ° 0 min 0,000 mm 0,0 UV-I 0 W/m² 10,5 °C 11,8 °C 0,0 km/h (0 Bft)
09.10.2018 19:37 11,6 °C 92 % 1018,9 hPa 0,0 mm 0,0 km/h (0 Bft) O-SO 109 ° 0 min 0,000 mm 0,0 UV-I 0 W/m² 10,3 °C 11,6 °C 0,0 km/h (0 Bft)
09.10.2018 19:38 11,5 °C 92 % 1019,0 hPa 0,0 mm 0,0 km/h (0 Bft) O-SO 109 ° 0 min 0,000 mm 0,0 UV-I 0 W/m² 10,2 °C 11,5 °C 0,0 km/h (0 Bft)
09.10.2018 19:39 11,4 °C 92 % 1019,0 hPa 0,0 mm 0,0 km/h (0 Bft) O-SO 109 ° 0 min 0,000 mm 0,0 UV-I 0 W/m² 10,1 °C 11,4 °C 0,0 km/h (0 Bft)
09.10.2018 19:40 11,4 °C 92 % 1019,0 hPa 0,0 mm 0,0 km/h (0 Bft) O-SO 109 ° 0 min 0,000 mm 0,0 UV-I 0 W/m² 10,1 °C 11,4 °C 0,0 km/h (0 Bft)
09.10.2018 19:41 11,3 °C 92 % 1019,0 hPa 0,0 mm 0,0 km/h (0 Bft) O-SO 109 ° 0 min 0,000 mm 0,0 UV-I 0 W/m² 10,0 °C 11,3 °C 0,0 km/h (0 Bft)
09.10.2018 19:42 11,3 °C 92 % 1019,0 hPa 0,0 mm 0,0 km/h (0 Bft) O-SO 109 ° 0 min 0,000 mm 0,0 UV-I 0 W/m² 10,0 °C 11,3 °C 0,0 km/h (0 Bft)
09.10.2018 19:43 11,3 °C 92 % 1019,0 hPa 0,0 mm 0,0 km/h (0 Bft) O-SO 109 ° 0 min 0,000 mm 0,0 UV-I 0 W/m² 10,0 °C 11,3 °C 0,0 km/h (0 Bft)
09.10.2018 19:44 11,3 °C 92 % 1019,0 hPa 0,0 mm 0,0 km/h (0 Bft) O-SO 109 ° 0 min 0,000 mm 0,0 UV-I 0 W/m² 10,0 °C 11,3 °C 0,0 km/h (0 Bft)
09.10.2018 19:45 11,3 °C 93 % 1019,0 hPa 0,0 mm 0,0 km/h (0 Bft) O-SO 109 ° 0 min 0,000 mm 0,0 UV-I 0 W/m² 10,2 °C 11,3 °C 0,0 km/h (0 Bft)
09.10.2018 19:46 11,3 °C 93 % 1019,0 hPa 0,0 mm 0,0 km/h (0 Bft) O-SO 109 ° 0 min 0,000 mm 0,0 UV-I 0 W/m² 10,2 °C 11,3 °C 0,0 km/h (0 Bft)
09.10.2018 19:47 11,3 °C 92 % 1019,0 hPa 0,0 mm 0,0 km/h (0 Bft) O-SO 109 ° 0 min 0,000 mm 0,0 UV-I 0 W/m² 10,0 °C 11,3 °C 0,0 km/h (0 Bft)
09.10.2018 19:48 11,4 °C 93 % 1019,0 hPa 0,0 mm 0,0 km/h (0 Bft) O-SO 109 ° 0 min 0,000 mm 0,0 UV-I 0 W/m² 10,3 °C 11,4 °C 0,0 km/h (0 Bft)
09.10.2018 19:49 11,4 °C 93 % 1019,0 hPa 0,0 mm 0,0 km/h (0 Bft) O-SO 109 ° 0 min 0,000 mm 0,0 UV-I 0 W/m² 10,3 °C 11,4 °C 0,0 km/h (0 Bft)
09.10.2018 19:50 11,3 °C 93 % 1019,0 hPa 0,0 mm 0,0 km/h (0 Bft) O-SO 109 ° 0 min 0,000 mm 0,0 UV-I 0 W/m² 10,2 °C 11,3 °C 0,0 km/h (0 Bft)
09.10.2018 19:51 11,3 °C 92 % 1019,0 hPa 0,0 mm 0,0 km/h (0 Bft) O-SO 109 ° 0 min 0,000 mm 0,0 UV-I 0 W/m² 10,0 °C 11,3 °C 0,0 km/h (0 Bft)
09.10.2018 19:52 11,3 °C 93 % 1019,0 hPa 0,0 mm 0,0 km/h (0 Bft) O 90 ° 0 min 0,000 mm 0,0 UV-I 0 W/m² 10,2 °C 11,3 °C 0,0 km/h (0 Bft)
09.10.2018 19:53 11,2 °C 93 % 1019,0 hPa 0,0 mm 0,0 km/h (0 Bft) O 90 ° 0 min 0,000 mm 0,0 UV-I 0 W/m² 10,1 °C 11,2 °C 0,0 km/h (0 Bft)
09.10.2018 19:54 11,3 °C 93 % 1019,0 hPa 0,0 mm 0,0 km/h (0 Bft) O 90 ° 0 min 0,000 mm 0,0 UV-I 0 W/m² 10,2 °C 11,3 °C 0,0 km/h (0 Bft)
09.10.2018 19:55 11,3 °C 93 % 1019,0 hPa 0,0 mm 0,0 km/h (0 Bft) O 90 ° 0 min 0,000 mm 0,0 UV-I 0 W/m² 10,2 °C 11,3 °C 0,0 km/h (0 Bft)
09.10.2018 19:56 11,3 °C 93 % 1018,9 hPa 0,0 mm 0,0 km/h (0 Bft) O 90 ° 0 min 0,000 mm 0,0 UV-I 0 W/m² 10,2 °C 11,3 °C 0,0 km/h (0 Bft)
09.10.2018 19:57 11,3 °C 93 % 1018,9 hPa 0,0 mm 0,0 km/h (0 Bft) O 90 ° 0 min 0,000 mm 0,0 UV-I 0 W/m² 10,2 °C 11,3 °C 0,0 km/h (0 Bft)
09.10.2018 19:58 11,3 °C 93 % 1019,0 hPa 0,0 mm 0,0 km/h (0 Bft) O 90 ° 0 min 0,000 mm 0,0 UV-I 0 W/m² 10,2 °C 11,3 °C 0,0 km/h (0 Bft)
09.10.2018 19:59 11,2 °C 93 % 1019,0 hPa 0,0 mm 0,0 km/h (0 Bft) O 90 ° 0 min 0,000 mm 0,0 UV-I 0 W/m² 10,1 °C 11,2 °C 0,0 km/h (0 Bft)
09.10.2018 20:00 11,2 °C 93 % 1019,0 hPa 0,0 mm 0,0 km/h (0 Bft) O 90 ° 0 min 0,000 mm 0,0 UV-I 0 W/m² 10,1 °C 11,2 °C 0,0 km/h (0 Bft)
09.10.2018 20:01 11,2 °C 93 % 1019,0 hPa 0,0 mm 0,0 km/h (0 Bft) O 90 ° 0 min 0,000 mm 0,0 UV-I 0 W/m² 10,1 °C 11,2 °C 0,0 km/h (0 Bft)
09.10.2018 20:02 11,2 °C 93 % 1019,0 hPa 0,0 mm 0,0 km/h (0 Bft) O 90 ° 0 min 0,000 mm 0,0 UV-I 0 W/m² 10,1 °C 11,2 °C 0,0 km/h (0 Bft)
09.10.2018 20:03 11,1 °C 93 % 1019,0 hPa 0,0 mm 0,0 km/h (0 Bft) O 90 ° 0 min 0,000 mm 0,0 UV-I 0 W/m² 10,0 °C 11,1 °C 0,0 km/h (0 Bft)
09.10.2018 20:04 11,2 °C 93 % 1019,0 hPa 0,0 mm 0,0 km/h (0 Bft) O 90 ° 0 min 0,000 mm 0,0 UV-I 0 W/m² 10,1 °C 11,2 °C 0,0 km/h (0 Bft)
09.10.2018 20:05 11,2 °C 93 % 1019,0 hPa 0,0 mm 0,0 km/h (0 Bft) O 90 ° 0 min 0,000 mm 0,0 UV-I 0 W/m² 10,1 °C 11,2 °C 0,0 km/h (0 Bft)
09.10.2018 20:06 11,2 °C 93 % 1019,0 hPa 0,0 mm 0,0 km/h (0 Bft) O 90 ° 0 min 0,000 mm 0,0 UV-I 0 W/m² 10,1 °C 11,2 °C 0,0 km/h (0 Bft)
09.10.2018 20:07 11,2 °C 93 % 1019,0 hPa 0,0 mm 0,0 km/h (0 Bft) O 90 ° 0 min 0,000 mm 0,0 UV-I 0 W/m² 10,1 °C 11,2 °C 0,0 km/h (0 Bft)
09.10.2018 20:08 11,2 °C 93 % 1019,0 hPa 0,0 mm 0,0 km/h (0 Bft) O 90 ° 0 min 0,000 mm 0,0 UV-I 0 W/m² 10,1 °C 11,2 °C 0,0 km/h (0 Bft)
09.10.2018 20:09 11,2 °C 93 % 1018,9 hPa 0,0 mm 0,0 km/h (0 Bft) O 90 ° 0 min 0,000 mm 0,0 UV-I 0 W/m² 10,1 °C 11,2 °C 0,0 km/h (0 Bft)
09.10.2018 20:10 11,2 °C 93 % 1018,9 hPa 0,0 mm 0,0 km/h (0 Bft) O 90 ° 0 min 0,000 mm 0,0 UV-I 0 W/m² 10,1 °C 11,2 °C 0,0 km/h (0 Bft)
09.10.2018 20:11 11,2 °C 93 % 1018,9 hPa 0,0 mm 0,0 km/h (0 Bft) O 90 ° 0 min 0,000 mm 0,0 UV-I 0 W/m² 10,1 °C 11,2 °C 0,0 km/h (0 Bft)
09.10.2018 20:12 11,1 °C 93 % 1018,9 hPa 0,0 mm 0,0 km/h (0 Bft) O 90 ° 0 min 0,000 mm 0,0 UV-I 0 W/m² 10,0 °C 11,1 °C 0,0 km/h (0 Bft)
09.10.2018 20:13 11,0 °C 93 % 1018,8 hPa 0,0 mm 0,0 km/h (0 Bft) O 90 ° 0 min 0,000 mm 0,0 UV-I 0 W/m² 9,9 °C 11,0 °C 0,0 km/h (0 Bft)
09.10.2018 20:14 10,8 °C 93 % 1018,9 hPa 0,0 mm 0,0 km/h (0 Bft) O 90 ° 0 min 0,000 mm 0,0 UV-I 0 W/m² 9,7 °C 10,8 °C 0,0 km/h (0 Bft)
09.10.2018 20:15 10,7 °C 93 % 1018,8 hPa 0,0 mm 0,0 km/h (0 Bft) O 90 ° 0 min 0,000 mm 0,0 UV-I 0 W/m² 9,6 °C 10,7 °C 0,0 km/h (0 Bft)
09.10.2018 20:16 10,6 °C 93 % 1018,9 hPa 0,0 mm 0,0 km/h (0 Bft) O 90 ° 0 min 0,000 mm 0,0 UV-I 0 W/m² 9,5 °C 10,6 °C 0,0 km/h (0 Bft)
09.10.2018 20:17 10,4 °C 93 % 1018,9 hPa 0,0 mm 0,0 km/h (0 Bft) O 90 ° 0 min 0,000 mm 0,0 UV-I 0 W/m² 9,3 °C 10,4 °C 0,0 km/h (0 Bft)
09.10.2018 20:18 10,3 °C 92 % 1018,9 hPa 0,0 mm 0,0 km/h (0 Bft) O 90 ° 0 min 0,000 mm 0,0 UV-I 0 W/m² 9,1 °C 10,3 °C 0,0 km/h (0 Bft)
09.10.2018 20:19 10,2 °C 92 % 1018,9 hPa 0,0 mm 0,0 km/h (0 Bft) O 90 ° 0 min 0,000 mm 0,0 UV-I 0 W/m² 9,0 °C 10,2 °C 0,0 km/h (0 Bft)
09.10.2018 20:20 10,0 °C 92 % 1018,9 hPa 0,0 mm 0,0 km/h (0 Bft) O 90 ° 0 min 0,000 mm 0,0 UV-I 0 W/m² 8,8 °C 10,0 °C 0,0 km/h (0 Bft)
09.10.2018 20:21 9,9 °C 93 % 1018,9 hPa 0,0 mm 0,0 km/h (0 Bft) O 90 ° 0 min 0,000 mm 0,0 UV-I 0 W/m² 8,8 °C 9,9 °C 0,0 km/h (0 Bft)
09.10.2018 20:22 9,9 °C 93 % 1018,9 hPa 0,0 mm 0,0 km/h (0 Bft) O 90 ° 0 min 0,000 mm 0,0 UV-I 0 W/m² 8,8 °C 9,9 °C 0,0 km/h (0 Bft)
09.10.2018 20:23 9,9 °C 93 % 1018,9 hPa 0,0 mm 0,0 km/h (0 Bft) O 90 ° 0 min 0,000 mm 0,0 UV-I 0 W/m² 8,8 °C 9,9 °C 0,0 km/h (0 Bft)
09.10.2018 20:24 10,0 °C 93 % 1019,0 hPa 0,0 mm 0,0 km/h (0 Bft) O 90 ° 0 min 0,000 mm 0,0 UV-I 0 W/m² 8,9 °C 10,0 °C 0,0 km/h (0 Bft)
09.10.2018 20:25 10,1 °C 94 % 1018,9 hPa 0,0 mm 0,0 km/h (0 Bft) O 90 ° 0 min 0,000 mm 0,0 UV-I 0 W/m² 9,2 °C 10,1 °C 0,0 km/h (0 Bft)
09.10.2018 20:26 10,1 °C 93 % 1018,9 hPa 0,0 mm 0,0 km/h (0 Bft) O 90 ° 0 min 0,000 mm 0,0 UV-I 0 W/m² 9,0 °C 10,1 °C 0,0 km/h (0 Bft)
09.10.2018 20:27 10,0 °C 93 % 1018,9 hPa 0,0 mm 0,0 km/h (0 Bft) O 90 ° 0 min 0,000 mm 0,0 UV-I 0 W/m² 8,9 °C 10,0 °C 0,0 km/h (0 Bft)
09.10.2018 20:28 10,0 °C 93 % 1019,0 hPa 0,0 mm 0,0 km/h (0 Bft) O 90 ° 0 min 0,000 mm 0,0 UV-I 0 W/m² 8,9 °C 10,0 °C 0,0 km/h (0 Bft)
09.10.2018 20:29 10,0 °C 93 % 1018,9 hPa 0,0 mm 0,0 km/h (0 Bft) O 90 ° 0 min 0,000 mm 0,0 UV-I 0 W/m² 8,9 °C 10,0 °C 0,0 km/h (0 Bft)
09.10.2018 20:30 10,1 °C 93 % 1019,0 hPa 0,0 mm 0,0 km/h (0 Bft) O 90 ° 0 min 0,000 mm 0,0 UV-I 0 W/m² 9,0 °C 10,1 °C 0,0 km/h (0 Bft)
09.10.2018 20:31 10,1 °C 94 % 1018,9 hPa 0,0 mm 0,0 km/h (0 Bft) O 90 ° 0 min 0,000 mm 0,0 UV-I 0 W/m² 9,2 °C 10,1 °C 0,0 km/h (0 Bft)
09.10.2018 20:32 10,1 °C 93 % 1018,9 hPa 0,0 mm 0,0 km/h (0 Bft) O 90 ° 0 min 0,000 mm 0,0 UV-I 0 W/m² 9,0 °C 10,1 °C 0,0 km/h (0 Bft)
09.10.2018 20:33 10,1 °C 93 % 1018,9 hPa 0,0 mm 0,0 km/h (0 Bft) O 90 ° 0 min 0,000 mm 0,0 UV-I 0 W/m² 9,0 °C 10,1 °C 0,0 km/h (0 Bft)
09.10.2018 20:34 10,2 °C 94 % 1018,9 hPa 0,0 mm 0,0 km/h (0 Bft) O 90 ° 0 min 0,000 mm 0,0 UV-I 0 W/m² 9,3 °C 10,2 °C 0,0 km/h (0 Bft)
09.10.2018 20:35 10,3 °C 94 % 1019,0 hPa 0,0 mm 0,0 km/h (0 Bft) O 90 ° 0 min 0,000 mm 0,0 UV-I 0 W/m² 9,4 °C 10,3 °C 0,0 km/h (0 Bft)
09.10.2018 20:36 10,3 °C 94 % 1018,9 hPa 0,0 mm 0,0 km/h (0 Bft) O 90 ° 0 min 0,000 mm 0,0 UV-I 0 W/m² 9,4 °C 10,3 °C 0,0 km/h (0 Bft)
09.10.2018 20:37 10,3 °C 94 % 1018,9 hPa 0,0 mm 0,0 km/h (0 Bft) O 90 ° 0 min 0,000 mm 0,0 UV-I 0 W/m² 9,4 °C 10,3 °C 0,0 km/h (0 Bft)
09.10.2018 20:38 10,4 °C 94 % 1019,0 hPa 0,0 mm 0,0 km/h (0 Bft) O 90 ° 0 min 0,000 mm 0,0 UV-I 0 W/m² 9,5 °C 10,4 °C 0,0 km/h (0 Bft)
09.10.2018 20:39 10,4 °C 94 % 1019,0 hPa 0,0 mm 0,0 km/h (0 Bft) O 90 ° 0 min 0,000 mm 0,0 UV-I 0 W/m² 9,5 °C 10,4 °C 0,0 km/h (0 Bft)
09.10.2018 20:40 10,4 °C 94 % 1019,0 hPa 0,0 mm 0,0 km/h (0 Bft) O 90 ° 0 min 0,000 mm 0,0 UV-I 0 W/m² 9,5 °C 10,4 °C 0,0 km/h (0 Bft)
09.10.2018 20:41 10,4 °C 94 % 1019,1 hPa 0,0 mm 0,0 km/h (0 Bft) O 90 ° 0 min 0,000 mm 0,0 UV-I 0 W/m² 9,5 °C 10,4 °C 0,0 km/h (0 Bft)
09.10.2018 20:42 10,4 °C 94 % 1019,1 hPa 0,0 mm 0,0 km/h (0 Bft) O 90 ° 0 min 0,000 mm 0,0 UV-I 0 W/m² 9,5 °C 10,4 °C 0,0 km/h (0 Bft)
09.10.2018 20:43 10,4 °C 94 % 1019,1 hPa 0,0 mm 0,0 km/h (0 Bft) O 90 ° 0 min 0,000 mm 0,0 UV-I 0 W/m² 9,5 °C 10,4 °C 0,0 km/h (0 Bft)
09.10.2018 20:44 10,3 °C 94 % 1019,1 hPa 0,0 mm 0,0 km/h (0 Bft) O 90 ° 0 min 0,000 mm 0,0 UV-I 0 W/m² 9,4 °C 10,3 °C 0,0 km/h (0 Bft)
09.10.2018 20:45 10,3 °C 94 % 1019,1 hPa 0,0 mm 0,0 km/h (0 Bft) O 90 ° 0 min 0,000 mm 0,0 UV-I 0 W/m² 9,4 °C 10,3 °C 0,0 km/h (0 Bft)
09.10.2018 20:46 10,2 °C 94 % 1019,2 hPa 0,0 mm 0,0 km/h (0 Bft) O 90 ° 0 min 0,000 mm 0,0 UV-I 0 W/m² 9,3 °C 10,2 °C 0,0 km/h (0 Bft)
09.10.2018 20:47 10,1 °C 94 % 1019,2 hPa 0,0 mm 0,0 km/h (0 Bft) O 90 ° 0 min 0,000 mm 0,0 UV-I 0 W/m² 9,2 °C 10,1 °C 0,0 km/h (0 Bft)
09.10.2018 20:48 10,1 °C 93 % 1019,2 hPa 0,0 mm 0,0 km/h (0 Bft) O 90 ° 0 min 0,000 mm 0,0 UV-I 0 W/m² 9,0 °C 10,1 °C 0,0 km/h (0 Bft)
09.10.2018 20:49 10,1 °C 94 % 1019,2 hPa 0,0 mm 0,0 km/h (0 Bft) O 90 ° 0 min 0,000 mm 0,0 UV-I 0 W/m² 9,2 °C 10,1 °C 0,0 km/h (0 Bft)
09.10.2018 20:50 10,2 °C 94 % 1019,2 hPa 0,0 mm 0,0 km/h (0 Bft) O 90 ° 0 min 0,000 mm 0,0 UV-I 0 W/m² 9,3 °C 10,2 °C 0,0 km/h (0 Bft)
09.10.2018 20:51 10,3 °C 94 % 1019,2 hPa 0,0 mm 0,0 km/h (0 Bft) O 90 ° 0 min 0,000 mm 0,0 UV-I 0 W/m² 9,4 °C 10,3 °C 0,0 km/h (0 Bft)
09.10.2018 20:52 10,3 °C 94 % 1019,2 hPa 0,0 mm 0,0 km/h (0 Bft) O 90 ° 0 min 0,000 mm 0,0 UV-I 0 W/m² 9,4 °C 10,3 °C 0,0 km/h (0 Bft)
09.10.2018 20:53 10,4 °C 94 % 1019,2 hPa 0,0 mm 0,0 km/h (0 Bft) O 90 ° 0 min 0,000 mm 0,0 UV-I 0 W/m² 9,5 °C 10,4 °C 0,0 km/h (0 Bft)
09.10.2018 20:54 10,4 °C 94 % 1019,2 hPa 0,0 mm 0,0 km/h (0 Bft) O 90 ° 0 min 0,000 mm 0,0 UV-I 0 W/m² 9,5 °C 10,4 °C 0,0 km/h (0 Bft)
09.10.2018 20:55 10,2 °C 94 % 1019,2 hPa 0,0 mm 0,0 km/h (0 Bft) O 90 ° 0 min 0,000 mm 0,0 UV-I 0 W/m² 9,3 °C 10,2 °C 0,0 km/h (0 Bft)
09.10.2018 20:56 10,0 °C 93 % 1019,3 hPa 0,0 mm 0,0 km/h (0 Bft) O 90 ° 0 min 0,000 mm 0,0 UV-I 0 W/m² 8,9 °C 10,0 °C 0,0 km/h (0 Bft)
09.10.2018 20:57 9,8 °C 93 % 1019,3 hPa 0,0 mm 0,0 km/h (0 Bft) O 90 ° 0 min 0,000 mm 0,0 UV-I 0 W/m² 8,7 °C 9,8 °C 0,0 km/h (0 Bft)
09.10.2018 20:58 9,7 °C 93 % 1019,3 hPa 0,0 mm 0,0 km/h (0 Bft) O 90 ° 0 min 0,000 mm 0,0 UV-I 0 W/m² 8,6 °C 9,7 °C 0,0 km/h (0 Bft)
09.10.2018 20:59 9,8 °C 94 % 1019,2 hPa 0,0 mm 0,0 km/h (0 Bft) O 90 ° 0 min 0,000 mm 0,0 UV-I 0 W/m² 8,9 °C 9,8 °C 0,0 km/h (0 Bft)
09.10.2018 21:00 9,9 °C 94 % 1019,2 hPa 0,0 mm 0,0 km/h (0 Bft) O 90 ° 0 min 0,000 mm 0,0 UV-I 0 W/m² 9,0 °C 9,9 °C 0,0 km/h (0 Bft)
09.10.2018 21:01 10,1 °C 94 % 1019,2 hPa 0,0 mm 0,0 km/h (0 Bft) O 90 ° 0 min 0,000 mm 0,0 UV-I 0 W/m² 9,2 °C 10,1 °C 0,0 km/h (0 Bft)
09.10.2018 21:02 10,3 °C 94 % 1019,2 hPa 0,0 mm 0,0 km/h (0 Bft) O 90 ° 0 min 0,000 mm 0,0 UV-I 0 W/m² 9,4 °C 10,3 °C 0,0 km/h (0 Bft)
09.10.2018 21:03 10,3 °C 95 % 1019,2 hPa 0,0 mm 0,6 km/h (0 Bft) O 90 ° 0 min 0,000 mm 0,0 UV-I 0 W/m² 9,5 °C 10,3 °C 1,6 km/h (1 Bft)
09.10.2018 21:04 10,3 °C 94 % 1019,2 hPa 0,0 mm 0,8 km/h (0 Bft) O 90 ° 0 min 0,000 mm 0,0 UV-I 0 W/m² 9,4 °C 10,3 °C 1,6 km/h (1 Bft)
09.10.2018 21:05 10,3 °C 94 % 1019,2 hPa 0,0 mm 0,0 km/h (0 Bft) O 90 ° 0 min 0,000 mm 0,0 UV-I 0 W/m² 9,4 °C 10,3 °C 0,0 km/h (0 Bft)
09.10.2018 21:06 10,3 °C 94 % 1019,2 hPa 0,0 mm 0,0 km/h (0 Bft) O 90 ° 0 min 0,000 mm 0,0 UV-I 0 W/m² 9,4 °C 10,3 °C 0,0 km/h (0 Bft)
09.10.2018 21:07 10,3 °C 94 % 1019,2 hPa 0,0 mm 0,0 km/h (0 Bft) O 90 ° 0 min 0,000 mm 0,0 UV-I 0 W/m² 9,4 °C 10,3 °C 0,0 km/h (0 Bft)
09.10.2018 21:08 10,3 °C 94 % 1019,2 hPa 0,0 mm 0,1 km/h (0 Bft) O 90 ° 0 min 0,000 mm 0,0 UV-I 0 W/m² 9,4 °C 10,3 °C 1,6 km/h (1 Bft)
09.10.2018 21:09 10,2 °C 94 % 1019,2 hPa 0,0 mm 0,0 km/h (0 Bft) O 90 ° 0 min 0,000 mm 0,0 UV-I 0 W/m² 9,3 °C 10,2 °C 0,0 km/h (0 Bft)
09.10.2018 21:10 10,2 °C 94 % 1019,2 hPa 0,0 mm 0,0 km/h (0 Bft) O 90 ° 0 min 0,000 mm 0,0 UV-I 0 W/m² 9,3 °C 10,2 °C 0,0 km/h (0 Bft)
09.10.2018 21:11 10,2 °C 94 % 1019,3 hPa 0,0 mm 0,0 km/h (0 Bft) O 90 ° 0 min 0,000 mm 0,0 UV-I 0 W/m² 9,3 °C 10,2 °C 0,0 km/h (0 Bft)
09.10.2018 21:12 10,2 °C 94 % 1019,3 hPa 0,0 mm 0,0 km/h (0 Bft) O 90 ° 0 min 0,000 mm 0,0 UV-I 0 W/m² 9,3 °C 10,2 °C 0,0 km/h (0 Bft)
09.10.2018 21:13 10,2 °C 94 % 1019,3 hPa 0,0 mm 0,1 km/h (0 Bft) O 90 ° 0 min 0,000 mm 0,0 UV-I 0 W/m² 9,3 °C 10,2 °C 1,6 km/h (1 Bft)
09.10.2018 21:14 10,3 °C 94 % 1019,3 hPa 0,0 mm 0,4 km/h (0 Bft) O 90 ° 0 min 0,000 mm 0,0 UV-I 0 W/m² 9,4 °C 10,3 °C 3,2 km/h (1 Bft)
09.10.2018 21:15 10,3 °C 94 % 1019,4 hPa 0,0 mm 0,0 km/h (0 Bft) O 90 ° 0 min 0,000 mm 0,0 UV-I 0 W/m² 9,4 °C 10,3 °C 0,0 km/h (0 Bft)
09.10.2018 21:16 10,3 °C 94 % 1019,4 hPa 0,0 mm 0,0 km/h (0 Bft) O 90 ° 0 min 0,000 mm 0,0 UV-I 0 W/m² 9,4 °C 10,3 °C 0,0 km/h (0 Bft)
09.10.2018 21:17 10,3 °C 94 % 1019,3 hPa 0,0 mm 0,0 km/h (0 Bft) O 90 ° 0 min 0,000 mm 0,0 UV-I 0 W/m² 9,4 °C 10,3 °C 0,0 km/h (0 Bft)
09.10.2018 21:18 10,2 °C 94 % 1019,3 hPa 0,0 mm 0,0 km/h (0 Bft) O 90 ° 0 min 0,000 mm 0,0 UV-I 0 W/m² 9,3 °C 10,2 °C 0,0 km/h (0 Bft)
09.10.2018 21:19 10,0 °C 93 % 1019,3 hPa 0,0 mm 0,0 km/h (0 Bft) O 90 ° 0 min 0,000 mm 0,0 UV-I 0 W/m² 8,9 °C 10,0 °C 0,0 km/h (0 Bft)
09.10.2018 21:20 9,8 °C 93 % 1019,3 hPa 0,0 mm 0,0 km/h (0 Bft) O 90 ° 0 min 0,000 mm 0,0 UV-I 0 W/m² 8,7 °C 9,8 °C 0,0 km/h (0 Bft)
09.10.2018 21:21 9,6 °C 93 % 1019,3 hPa 0,0 mm 0,0 km/h (0 Bft) O 90 ° 0 min 0,000 mm 0,0 UV-I 0 W/m² 8,5 °C 9,6 °C 0,0 km/h (0 Bft)
09.10.2018 21:22 9,5 °C 93 % 1019,3 hPa 0,0 mm 0,0 km/h (0 Bft) O 90 ° 0 min 0,000 mm 0,0 UV-I 0 W/m² 8,4 °C 9,5 °C 0,0 km/h (0 Bft)
09.10.2018 21:23 9,4 °C 94 % 1019,3 hPa 0,0 mm 0,0 km/h (0 Bft) O 90 ° 0 min 0,000 mm 0,0 UV-I 0 W/m² 8,5 °C 9,4 °C 0,0 km/h (0 Bft)
09.10.2018 21:24 9,3 °C 94 % 1019,2 hPa 0,0 mm 0,0 km/h (0 Bft) O 90 ° 0 min 0,000 mm 0,0 UV-I 0 W/m² 8,4 °C 9,3 °C 0,0 km/h (0 Bft)
09.10.2018 21:25 9,4 °C 94 % 1019,2 hPa 0,0 mm 0,0 km/h (0 Bft) O 90 ° 0 min 0,000 mm 0,0 UV-I 0 W/m² 8,5 °C 9,4 °C 0,0 km/h (0 Bft)
09.10.2018 21:26 9,4 °C 94 % 1019,3 hPa 0,0 mm 0,0 km/h (0 Bft) O 90 ° 0 min 0,000 mm 0,0 UV-I 0 W/m² 8,5 °C 9,4 °C 0,0 km/h (0 Bft)
09.10.2018 21:27 9,4 °C 94 % 1019,2 hPa 0,0 mm 0,0 km/h (0 Bft) O 90 ° 0 min 0,000 mm 0,0 UV-I 0 W/m² 8,5 °C 9,4 °C 0,0 km/h (0 Bft)
09.10.2018 21:28 9,5 °C 94 % 1019,3 hPa 0,0 mm 0,0 km/h (0 Bft) O 90 ° 0 min 0,000 mm 0,0 UV-I 0 W/m² 8,6 °C 9,5 °C 0,0 km/h (0 Bft)
09.10.2018 21:29 9,5 °C 94 % 1019,3 hPa 0,0 mm 0,0 km/h (0 Bft) O 90 ° 0 min 0,000 mm 0,0 UV-I 0 W/m² 8,6 °C 9,5 °C 0,0 km/h (0 Bft)
09.10.2018 21:30 9,4 °C 94 % 1019,3 hPa 0,0 mm 0,0 km/h (0 Bft) O 90 ° 0 min 0,000 mm 0,0 UV-I 0 W/m² 8,5 °C 9,4 °C 0,0 km/h (0 Bft)
09.10.2018 21:31 9,3 °C 94 % 1019,3 hPa 0,0 mm 0,0 km/h (0 Bft) O 90 ° 0 min 0,000 mm 0,0 UV-I 0 W/m² 8,4 °C 9,3 °C 0,0 km/h (0 Bft)
09.10.2018 21:32 9,3 °C 94 % 1019,3 hPa 0,0 mm 0,0 km/h (0 Bft) O 90 ° 0 min 0,000 mm 0,0 UV-I 0 W/m² 8,4 °C 9,3 °C 0,0 km/h (0 Bft)
09.10.2018 21:33 9,2 °C 94 % 1019,3 hPa 0,0 mm 0,0 km/h (0 Bft) O 90 ° 0 min 0,000 mm 0,0 UV-I 0 W/m² 8,3 °C 9,2 °C 0,0 km/h (0 Bft)
09.10.2018 21:34 9,2 °C 94 % 1019,3 hPa 0,0 mm 0,0 km/h (0 Bft) O 90 ° 0 min 0,000 mm 0,0 UV-I 0 W/m² 8,3 °C 9,2 °C 0,0 km/h (0 Bft)
09.10.2018 21:35 9,1 °C 94 % 1019,3 hPa 0,0 mm 0,0 km/h (0 Bft) O 90 ° 0 min 0,000 mm 0,0 UV-I 0 W/m² 8,2 °C 9,1 °C 0,0 km/h (0 Bft)
09.10.2018 21:36 9,1 °C 94 % 1019,3 hPa 0,0 mm 0,0 km/h (0 Bft) O 90 ° 0 min 0,000 mm 0,0 UV-I 0 W/m² 8,2 °C 9,1 °C 0,0 km/h (0 Bft)
09.10.2018 21:37 9,0 °C 94 % 1019,3 hPa 0,0 mm 0,0 km/h (0 Bft) O 90 ° 0 min 0,000 mm 0,0 UV-I 0 W/m² 8,1 °C 9,0 °C 0,0 km/h (0 Bft)
09.10.2018 21:38 9,0 °C 94 % 1019,4 hPa 0,0 mm 0,0 km/h (0 Bft) O 90 ° 0 min 0,000 mm 0,0 UV-I 0 W/m² 8,1 °C 9,0 °C 0,0 km/h (0 Bft)
09.10.2018 21:39 9,0 °C 94 % 1019,3 hPa 0,0 mm 0,0 km/h (0 Bft) O 90 ° 0 min 0,000 mm 0,0 UV-I 0 W/m² 8,1 °C 9,0 °C 0,0 km/h (0 Bft)
09.10.2018 21:40 9,1 °C 94 % 1019,4 hPa 0,0 mm 0,0 km/h (0 Bft) O 90 ° 0 min 0,000 mm 0,0 UV-I 0 W/m² 8,2 °C 9,1 °C 0,0 km/h (0 Bft)
09.10.2018 21:41 9,1 °C 94 % 1019,4 hPa 0,0 mm 0,0 km/h (0 Bft) O 90 ° 0 min 0,000 mm 0,0 UV-I 0 W/m² 8,2 °C 9,1 °C 0,0 km/h (0 Bft)
09.10.2018 21:42 9,1 °C 94 % 1019,4 hPa 0,0 mm 0,0 km/h (0 Bft) O 90 ° 0 min 0,000 mm 0,0 UV-I 0 W/m² 8,2 °C 9,1 °C 0,0 km/h (0 Bft)
09.10.2018 21:43 9,2 °C 94 % 1019,4 hPa 0,0 mm 0,0 km/h (0 Bft) O 90 ° 0 min 0,000 mm 0,0 UV-I 0 W/m² 8,3 °C 9,2 °C 0,0 km/h (0 Bft)
09.10.2018 21:44 9,2 °C 94 % 1019,5 hPa 0,0 mm 0,0 km/h (0 Bft) O 90 ° 0 min 0,000 mm 0,0 UV-I 0 W/m² 8,3 °C 9,2 °C 0,0 km/h (0 Bft)
09.10.2018 21:45 9,1 °C 94 % 1019,5 hPa 0,0 mm 0,0 km/h (0 Bft) O 90 ° 0 min 0,000 mm 0,0 UV-I 0 W/m² 8,2 °C 9,1 °C 0,0 km/h (0 Bft)
09.10.2018 21:46 9,2 °C 94 % 1019,4 hPa 0,0 mm 0,0 km/h (0 Bft) O 90 ° 0 min 0,000 mm 0,0 UV-I 0 W/m² 8,3 °C 9,2 °C 0,0 km/h (0 Bft)
09.10.2018 21:47 9,2 °C 94 % 1019,5 hPa 0,0 mm 0,0 km/h (0 Bft) O 90 ° 0 min 0,000 mm 0,0 UV-I 0 W/m² 8,3 °C 9,2 °C 0,0 km/h (0 Bft)
09.10.2018 21:48 9,3 °C 94 % 1019,5 hPa 0,0 mm 0,0 km/h (0 Bft) O 90 ° 0 min 0,000 mm 0,0 UV-I 0 W/m² 8,4 °C 9,3 °C 0,0 km/h (0 Bft)
09.10.2018 21:49 9,3 °C 94 % 1019,5 hPa 0,0 mm 0,0 km/h (0 Bft) O 90 ° 0 min 0,000 mm 0,0 UV-I 0 W/m² 8,4 °C 9,3 °C 0,0 km/h (0 Bft)
09.10.2018 21:50 9,3 °C 94 % 1019,4 hPa 0,0 mm 0,0 km/h (0 Bft) O 90 ° 0 min 0,000 mm 0,0 UV-I 0 W/m² 8,4 °C 9,3 °C 0,0 km/h (0 Bft)
09.10.2018 21:51 9,3 °C 94 % 1019,5 hPa 0,0 mm 0,0 km/h (0 Bft) O 90 ° 0 min 0,000 mm 0,0 UV-I 0 W/m² 8,4 °C 9,3 °C 0,0 km/h (0 Bft)
09.10.2018 21:52 9,2 °C 94 % 1019,5 hPa 0,0 mm 0,0 km/h (0 Bft) O 90 ° 0 min 0,000 mm 0,0 UV-I 0 W/m² 8,3 °C 9,2 °C 0,0 km/h (0 Bft)
09.10.2018 21:53 9,2 °C 94 % 1019,6 hPa 0,0 mm 0,0 km/h (0 Bft) O 90 ° 0 min 0,000 mm 0,0 UV-I 0 W/m² 8,3 °C 9,2 °C 0,0 km/h (0 Bft)
09.10.2018 21:54 9,2 °C 94 % 1019,6 hPa 0,0 mm 0,0 km/h (0 Bft) O 90 ° 0 min 0,000 mm 0,0 UV-I 0 W/m² 8,3 °C 9,2 °C 0,0 km/h (0 Bft)
09.10.2018 21:55 9,1 °C 94 % 1019,5 hPa 0,0 mm 0,0 km/h (0 Bft) O 90 ° 0 min 0,000 mm 0,0 UV-I 0 W/m² 8,2 °C 9,1 °C 0,0 km/h (0 Bft)
09.10.2018 21:56 9,1 °C 94 % 1019,6 hPa 0,0 mm 0,0 km/h (0 Bft) O 90 ° 0 min 0,000 mm 0,0 UV-I 0 W/m² 8,2 °C 9,1 °C 0,0 km/h (0 Bft)
09.10.2018 21:57 9,0 °C 94 % 1019,6 hPa 0,0 mm 0,0 km/h (0 Bft) O 90 ° 0 min 0,000 mm 0,0 UV-I 0 W/m² 8,1 °C 9,0 °C 0,0 km/h (0 Bft)
09.10.2018 21:58 9,0 °C 94 % 1019,6 hPa 0,0 mm 0,0 km/h (0 Bft) O 90 ° 0 min 0,000 mm 0,0 UV-I 0 W/m² 8,1 °C 9,0 °C 0,0 km/h (0 Bft)
09.10.2018 21:59 8,9 °C 94 % 1019,6 hPa 0,0 mm 0,0 km/h (0 Bft) O 90 ° 0 min 0,000 mm 0,0 UV-I 0 W/m² 8,0 °C 8,9 °C 0,0 km/h (0 Bft)
09.10.2018 22:00 8,9 °C 94 % 1019,6 hPa 0,0 mm 0,0 km/h (0 Bft) O 90 ° 0 min 0,000 mm 0,0 UV-I 0 W/m² 8,0 °C 8,9 °C 0,0 km/h (0 Bft)
09.10.2018 22:01 8,9 °C 94 % 1019,6 hPa 0,0 mm 0,0 km/h (0 Bft) O 90 ° 0 min 0,000 mm 0,0 UV-I 0 W/m² 8,0 °C 8,9 °C 0,0 km/h (0 Bft)
09.10.2018 22:02 9,1 °C 94 % 1019,6 hPa 0,0 mm 0,0 km/h (0 Bft) O 90 ° 0 min 0,000 mm 0,0 UV-I 0 W/m² 8,2 °C 9,1 °C 0,0 km/h (0 Bft)
09.10.2018 22:03 9,3 °C 94 % 1019,6 hPa 0,0 mm 0,0 km/h (0 Bft) O 90 ° 0 min 0,000 mm 0,0 UV-I 0 W/m² 8,4 °C 9,3 °C 0,0 km/h (0 Bft)
09.10.2018 22:04 9,4 °C 95 % 1019,6 hPa 0,0 mm 0,0 km/h (0 Bft) O 90 ° 0 min 0,000 mm 0,0 UV-I 0 W/m² 8,6 °C 9,4 °C 0,0 km/h (0 Bft)
09.10.2018 22:05 9,4 °C 95 % 1019,6 hPa 0,0 mm 0,0 km/h (0 Bft) O 90 ° 0 min 0,000 mm 0,0 UV-I 0 W/m² 8,6 °C 9,4 °C 0,0 km/h (0 Bft)
09.10.2018 22:06 9,4 °C 94 % 1019,6 hPa 0,0 mm 0,0 km/h (0 Bft) O 90 ° 0 min 0,000 mm 0,0 UV-I 0 W/m² 8,5 °C 9,4 °C 0,0 km/h (0 Bft)
09.10.2018 22:07 9,4 °C 94 % 1019,6 hPa 0,0 mm 0,0 km/h (0 Bft) O 90 ° 0 min 0,000 mm 0,0 UV-I 0 W/m² 8,5 °C 9,4 °C 0,0 km/h (0 Bft)
09.10.2018 22:08 9,4 °C 94 % 1019,6 hPa 0,0 mm 0,0 km/h (0 Bft) O 90 ° 0 min 0,000 mm 0,0 UV-I 0 W/m² 8,5 °C 9,4 °C 0,0 km/h (0 Bft)
09.10.2018 22:09 9,5 °C 94 % 1019,7 hPa 0,0 mm 0,0 km/h (0 Bft) O 90 ° 0 min 0,000 mm 0,0 UV-I 0 W/m² 8,6 °C 9,5 °C 0,0 km/h (0 Bft)
09.10.2018 22:10 9,5 °C 94 % 1019,6 hPa 0,0 mm 0,0 km/h (0 Bft) O 90 ° 0 min 0,000 mm 0,0 UV-I 0 W/m² 8,6 °C 9,5 °C 0,0 km/h (0 Bft)
09.10.2018 22:11 9,5 °C 94 % 1019,6 hPa 0,0 mm 0,0 km/h (0 Bft) O 90 ° 0 min 0,000 mm 0,0 UV-I 0 W/m² 8,6 °C 9,5 °C 0,0 km/h (0 Bft)
09.10.2018 22:12 9,6 °C 94 % 1019,6 hPa 0,0 mm 0,0 km/h (0 Bft) O 90 ° 0 min 0,000 mm 0,0 UV-I 0 W/m² 8,7 °C 9,6 °C 0,0 km/h (0 Bft)
09.10.2018 22:13 9,6 °C 95 % 1019,6 hPa 0,0 mm 0,0 km/h (0 Bft) O 90 ° 0 min 0,000 mm 0,0 UV-I 0 W/m² 8,8 °C 9,6 °C 0,0 km/h (0 Bft)
09.10.2018 22:14 9,6 °C 94 % 1019,6 hPa 0,0 mm 0,0 km/h (0 Bft) O 90 ° 0 min 0,000 mm 0,0 UV-I 0 W/m² 8,7 °C 9,6 °C 0,0 km/h (0 Bft)
09.10.2018 22:15 9,7 °C 95 % 1019,5 hPa 0,0 mm 0,0 km/h (0 Bft) O 90 ° 0 min 0,000 mm 0,0 UV-I 0 W/m² 8,9 °C 9,7 °C 0,0 km/h (0 Bft)
09.10.2018 22:16 9,7 °C 95 % 1019,6 hPa 0,0 mm 0,0 km/h (0 Bft) O 90 ° 0 min 0,000 mm 0,0 UV-I 0 W/m² 8,9 °C 9,7 °C 0,0 km/h (0 Bft)
09.10.2018 22:17 9,8 °C 95 % 1019,6 hPa 0,0 mm 0,0 km/h (0 Bft) O 90 ° 0 min 0,000 mm 0,0 UV-I 0 W/m² 9,0 °C 9,8 °C 0,0 km/h (0 Bft)
09.10.2018 22:18 9,8 °C 94 % 1019,6 hPa 0,0 mm 0,0 km/h (0 Bft) O 90 ° 0 min 0,000 mm 0,0 UV-I 0 W/m² 8,9 °C 9,8 °C 0,0 km/h (0 Bft)
09.10.2018 22:19 9,9 °C 94 % 1019,6 hPa 0,0 mm 0,0 km/h (0 Bft) O 90 ° 0 min 0,000 mm 0,0 UV-I 0 W/m² 9,0 °C 9,9 °C 0,0 km/h (0 Bft)
09.10.2018 22:20 9,9 °C 94 % 1019,6 hPa 0,0 mm 0,0 km/h (0 Bft) O 90 ° 0 min 0,000 mm 0,0 UV-I 0 W/m² 9,0 °C 9,9 °C 0,0 km/h (0 Bft)
09.10.2018 22:21 10,0 °C 95 % 1019,6 hPa 0,0 mm 0,0 km/h (0 Bft) O 90 ° 0 min 0,000 mm 0,0 UV-I 0 W/m² 9,2 °C 10,0 °C 0,0 km/h (0 Bft)
09.10.2018 22:22 10,1 °C 95 % 1019,6 hPa 0,0 mm 0,0 km/h (0 Bft) O 90 ° 0 min 0,000 mm 0,0 UV-I 0 W/m² 9,3 °C 10,1 °C 0,0 km/h (0 Bft)
09.10.2018 22:23 10,1 °C 95 % 1019,7 hPa 0,0 mm 0,0 km/h (0 Bft) O 90 ° 0 min 0,000 mm 0,0 UV-I 0 W/m² 9,3 °C 10,1 °C 0,0 km/h (0 Bft)
09.10.2018 22:24 10,2 °C 95 % 1019,7 hPa 0,0 mm 0,0 km/h (0 Bft) O 90 ° 0 min 0,000 mm 0,0 UV-I 0 W/m² 9,4 °C 10,2 °C 0,0 km/h (0 Bft)
09.10.2018 22:25 10,2 °C 95 % 1019,7 hPa 0,0 mm 0,0 km/h (0 Bft) O 90 ° 0 min 0,000 mm 0,0 UV-I 0 W/m² 9,4 °C 10,2 °C 0,0 km/h (0 Bft)
09.10.2018 22:26 10,2 °C 95 % 1019,7 hPa 0,0 mm 0,0 km/h (0 Bft) O 90 ° 0 min 0,000 mm 0,0 UV-I 0 W/m² 9,4 °C 10,2 °C 0,0 km/h (0 Bft)
09.10.2018 22:27 10,2 °C 94 % 1019,7 hPa 0,0 mm 0,0 km/h (0 Bft) O 90 ° 0 min 0,000 mm 0,0 UV-I 0 W/m² 9,3 °C 10,2 °C 0,0 km/h (0 Bft)
09.10.2018 22:28 10,2 °C 94 % 1019,6 hPa 0,0 mm 0,0 km/h (0 Bft) O 90 ° 0 min 0,000 mm 0,0 UV-I 0 W/m² 9,3 °C 10,2 °C 0,0 km/h (0 Bft)
09.10.2018 22:29 10,2 °C 94 % 1019,7 hPa 0,0 mm 0,0 km/h (0 Bft) O 90 ° 0 min 0,000 mm 0,0 UV-I 0 W/m² 9,3 °C 10,2 °C 0,0 km/h (0 Bft)
09.10.2018 22:30 10,3 °C 94 % 1019,6 hPa 0,0 mm 0,0 km/h (0 Bft) O 90 ° 0 min 0,000 mm 0,0 UV-I 0 W/m² 9,4 °C 10,3 °C 0,0 km/h (0 Bft)
09.10.2018 22:31 10,2 °C 94 % 1019,6 hPa 0,0 mm 0,0 km/h (0 Bft) O 90 ° 0 min 0,000 mm 0,0 UV-I 0 W/m² 9,3 °C 10,2 °C 0,0 km/h (0 Bft)
09.10.2018 22:32 10,3 °C 94 % 1019,7 hPa 0,0 mm 0,0 km/h (0 Bft) O 90 ° 0 min 0,000 mm 0,0 UV-I 0 W/m² 9,4 °C 10,3 °C 0,0 km/h (0 Bft)
09.10.2018 22:33 10,3 °C 94 % 1019,6 hPa 0,0 mm 0,0 km/h (0 Bft) O 90 ° 0 min 0,000 mm 0,0 UV-I 0 W/m² 9,4 °C 10,3 °C 0,0 km/h (0 Bft)
09.10.2018 22:34 10,3 °C 94 % 1019,7 hPa 0,0 mm 0,0 km/h (0 Bft) O 90 ° 0 min 0,000 mm 0,0 UV-I 0 W/m² 9,4 °C 10,3 °C 0,0 km/h (0 Bft)
09.10.2018 22:35 10,3 °C 94 % 1019,7 hPa 0,0 mm 0,0 km/h (0 Bft) O 90 ° 0 min 0,000 mm 0,0 UV-I 0 W/m² 9,4 °C 10,3 °C 0,0 km/h (0 Bft)
09.10.2018 22:36 10,3 °C 94 % 1019,7 hPa 0,0 mm 0,0 km/h (0 Bft) O 90 ° 0 min 0,000 mm 0,0 UV-I 0 W/m² 9,4 °C 10,3 °C 0,0 km/h (0 Bft)
09.10.2018 22:37 10,3 °C 94 % 1019,7 hPa 0,0 mm 0,0 km/h (0 Bft) O 90 ° 0 min 0,000 mm 0,0 UV-I 0 W/m² 9,4 °C 10,3 °C 0,0 km/h (0 Bft)
09.10.2018 22:38 10,3 °C 94 % 1019,7 hPa 0,0 mm 0,0 km/h (0 Bft) O 90 ° 0 min 0,000 mm 0,0 UV-I 0 W/m² 9,4 °C 10,3 °C 0,0 km/h (0 Bft)
09.10.2018 22:39 10,3 °C 94 % 1019,7 hPa 0,0 mm 0,0 km/h (0 Bft) O 90 ° 0 min 0,000 mm 0,0 UV-I 0 W/m² 9,4 °C 10,3 °C 0,0 km/h (0 Bft)
09.10.2018 22:40 10,3 °C 94 % 1019,7 hPa 0,0 mm 0,0 km/h (0 Bft) O 90 ° 0 min 0,000 mm 0,0 UV-I 0 W/m² 9,4 °C 10,3 °C 0,0 km/h (0 Bft)
09.10.2018 22:41 10,3 °C 94 % 1019,7 hPa 0,0 mm 0,0 km/h (0 Bft) O 90 ° 0 min 0,000 mm 0,0 UV-I 0 W/m² 9,4 °C 10,3 °C 0,0 km/h (0 Bft)
09.10.2018 22:42 10,3 °C 94 % 1019,7 hPa 0,0 mm 0,0 km/h (0 Bft) O 90 ° 0 min 0,000 mm 0,0 UV-I 0 W/m² 9,4 °C 10,3 °C 0,0 km/h (0 Bft)
09.10.2018 22:43 10,3 °C 94 % 1019,7 hPa 0,0 mm 0,0 km/h (0 Bft) O 90 ° 0 min 0,000 mm 0,0 UV-I 0 W/m² 9,4 °C 10,3 °C 0,0 km/h (0 Bft)
09.10.2018 22:44 10,3 °C 94 % 1019,7 hPa 0,0 mm 0,0 km/h (0 Bft) O 90 ° 0 min 0,000 mm 0,0 UV-I 0 W/m² 9,4 °C 10,3 °C 0,0 km/h (0 Bft)
09.10.2018 22:45 10,3 °C 94 % 1019,7 hPa 0,0 mm 0,0 km/h (0 Bft) O 90 ° 0 min 0,000 mm 0,0 UV-I 0 W/m² 9,4 °C 10,3 °C 0,0 km/h (0 Bft)
09.10.2018 22:46 10,3 °C 94 % 1019,7 hPa 0,0 mm 0,0 km/h (0 Bft) O 90 ° 0 min 0,000 mm 0,0 UV-I 0 W/m² 9,4 °C 10,3 °C 0,0 km/h (0 Bft)
09.10.2018 22:47 10,4 °C 94 % 1019,7 hPa 0,0 mm 0,0 km/h (0 Bft) O 90 ° 0 min 0,000 mm 0,0 UV-I 0 W/m² 9,5 °C 10,4 °C 0,0 km/h (0 Bft)
09.10.2018 22:48 10,6 °C 94 % 1019,7 hPa 0,0 mm 0,0 km/h (0 Bft) O 90 ° 0 min 0,000 mm 0,0 UV-I 0 W/m² 9,7 °C 10,6 °C 0,0 km/h (0 Bft)
09.10.2018 22:49 10,6 °C 95 % 1019,7 hPa 0,0 mm 0,0 km/h (0 Bft) O 90 ° 0 min 0,000 mm 0,0 UV-I 0 W/m² 9,8 °C 10,6 °C 0,0 km/h (0 Bft)
09.10.2018 22:50 10,6 °C 95 % 1019,7 hPa 0,0 mm 0,0 km/h (0 Bft) O 90 ° 0 min 0,000 mm 0,0 UV-I 0 W/m² 9,8 °C 10,6 °C 0,0 km/h (0 Bft)
09.10.2018 22:51 10,6 °C 95 % 1019,7 hPa 0,0 mm 0,0 km/h (0 Bft) O 90 ° 0 min 0,000 mm 0,0 UV-I 0 W/m² 9,8 °C 10,6 °C 0,0 km/h (0 Bft)
09.10.2018 22:52 10,6 °C 94 % 1019,7 hPa 0,0 mm 0,0 km/h (0 Bft) O 90 ° 0 min 0,000 mm 0,0 UV-I 0 W/m² 9,7 °C 10,6 °C 0,0 km/h (0 Bft)
09.10.2018 22:53 10,6 °C 94 % 1019,7 hPa 0,0 mm 0,0 km/h (0 Bft) O 90 ° 0 min 0,000 mm 0,0 UV-I 0 W/m² 9,7 °C 10,6 °C 0,0 km/h (0 Bft)
09.10.2018 22:54 10,6 °C 94 % 1019,7 hPa 0,0 mm 0,0 km/h (0 Bft) O 90 ° 0 min 0,000 mm 0,0 UV-I 0 W/m² 9,7 °C 10,6 °C 0,0 km/h (0 Bft)
09.10.2018 22:55 10,6 °C 94 % 1019,7 hPa 0,0 mm 0,0 km/h (0 Bft) O 90 ° 0 min 0,000 mm 0,0 UV-I 0 W/m² 9,7 °C 10,6 °C 0,0 km/h (0 Bft)
09.10.2018 22:56 10,6 °C 94 % 1019,7 hPa 0,0 mm 0,0 km/h (0 Bft) O 90 ° 0 min 0,000 mm 0,0 UV-I 0 W/m² 9,7 °C 10,6 °C 0,0 km/h (0 Bft)
09.10.2018 22:57 10,6 °C 94 % 1019,7 hPa 0,0 mm 0,0 km/h (0 Bft) O 90 ° 0 min 0,000 mm 0,0 UV-I 0 W/m² 9,7 °C 10,6 °C 0,0 km/h (0 Bft)
09.10.2018 22:58 10,6 °C 94 % 1019,7 hPa 0,0 mm 0,0 km/h (0 Bft) O 90 ° 0 min 0,000 mm 0,0 UV-I 0 W/m² 9,7 °C 10,6 °C 0,0 km/h (0 Bft)
09.10.2018 22:59 10,6 °C 94 % 1019,7 hPa 0,0 mm 0,0 km/h (0 Bft) O 90 ° 0 min 0,000 mm 0,0 UV-I 0 W/m² 9,7 °C 10,6 °C 0,0 km/h (0 Bft)
09.10.2018 23:00 10,6 °C 94 % 1019,7 hPa 0,0 mm 0,0 km/h (0 Bft) O 90 ° 0 min 0,000 mm 0,0 UV-I 0 W/m² 9,7 °C 10,6 °C 0,0 km/h (0 Bft)
09.10.2018 23:01 10,6 °C 94 % 1019,6 hPa 0,0 mm 0,0 km/h (0 Bft) O 90 ° 0 min 0,000 mm 0,0 UV-I 0 W/m² 9,7 °C 10,6 °C 0,0 km/h (0 Bft)
09.10.2018 23:02 10,6 °C 94 % 1019,7 hPa 0,0 mm 0,0 km/h (0 Bft) O 90 ° 0 min 0,000 mm 0,0 UV-I 0 W/m² 9,7 °C 10,6 °C 0,0 km/h (0 Bft)
09.10.2018 23:03 10,6 °C 94 % 1019,6 hPa 0,0 mm 0,0 km/h (0 Bft) O 90 ° 0 min 0,000 mm 0,0 UV-I 0 W/m² 9,7 °C 10,6 °C 0,0 km/h (0 Bft)
09.10.2018 23:04 10,6 °C 94 % 1019,6 hPa 0,0 mm 0,0 km/h (0 Bft) O 90 ° 0 min 0,000 mm 0,0 UV-I 0 W/m² 9,7 °C 10,6 °C 0,0 km/h (0 Bft)
09.10.2018 23:05 10,6 °C 94 % 1019,6 hPa 0,0 mm 0,0 km/h (0 Bft) O 90 ° 0 min 0,000 mm 0,0 UV-I 0 W/m² 9,7 °C 10,6 °C 0,0 km/h (0 Bft)
09.10.2018 23:06 10,6 °C 94 % 1019,6 hPa 0,0 mm 0,0 km/h (0 Bft) O 90 ° 0 min 0,000 mm 0,0 UV-I 0 W/m² 9,7 °C 10,6 °C 0,0 km/h (0 Bft)
09.10.2018 23:07 10,6 °C 94 % 1019,6 hPa 0,0 mm 0,0 km/h (0 Bft) O 90 ° 0 min 0,000 mm 0,0 UV-I 0 W/m² 9,7 °C 10,6 °C 0,0 km/h (0 Bft)
09.10.2018 23:08 10,7 °C 94 % 1019,6 hPa 0,0 mm 0,0 km/h (0 Bft) O 90 ° 0 min 0,000 mm 0,0 UV-I 0 W/m² 9,8 °C 10,7 °C 0,0 km/h (0 Bft)
09.10.2018 23:09 10,7 °C 94 % 1019,6 hPa 0,0 mm 0,0 km/h (0 Bft) O 90 ° 0 min 0,000 mm 0,0 UV-I 0 W/m² 9,8 °C 10,7 °C 0,0 km/h (0 Bft)
09.10.2018 23:10 10,7 °C 94 % 1019,6 hPa 0,0 mm 0,0 km/h (0 Bft) O 90 ° 0 min 0,000 mm 0,0 UV-I 0 W/m² 9,8 °C 10,7 °C 0,0 km/h (0 Bft)
09.10.2018 23:11 10,7 °C 94 % 1019,6 hPa 0,0 mm 0,0 km/h (0 Bft) O 90 ° 0 min 0,000 mm 0,0 UV-I 0 W/m² 9,8 °C 10,7 °C 0,0 km/h (0 Bft)
09.10.2018 23:12 10,7 °C 94 % 1019,7 hPa 0,0 mm 0,0 km/h (0 Bft) O 90 ° 0 min 0,000 mm 0,0 UV-I 0 W/m² 9,8 °C 10,7 °C 0,0 km/h (0 Bft)
09.10.2018 23:13 10,7 °C 94 % 1019,7 hPa 0,0 mm 0,0 km/h (0 Bft) O 90 ° 0 min 0,000 mm 0,0 UV-I 0 W/m² 9,8 °C 10,7 °C 0,0 km/h (0 Bft)
09.10.2018 23:14 10,7 °C 94 % 1019,7 hPa 0,0 mm 0,0 km/h (0 Bft) O 90 ° 0 min 0,000 mm 0,0 UV-I 0 W/m² 9,8 °C 10,7 °C 0,0 km/h (0 Bft)
09.10.2018 23:15 10,7 °C 94 % 1019,7 hPa 0,0 mm 0,0 km/h (0 Bft) O 90 ° 0 min 0,000 mm 0,0 UV-I 0 W/m² 9,8 °C 10,7 °C 0,0 km/h (0 Bft)
09.10.2018 23:16 10,8 °C 94 % 1019,7 hPa 0,0 mm 0,0 km/h (0 Bft) O 90 ° 0 min 0,000 mm 0,0 UV-I 0 W/m² 9,9 °C 10,8 °C 0,0 km/h (0 Bft)
09.10.2018 23:17 10,8 °C 94 % 1019,7 hPa 0,0 mm 0,0 km/h (0 Bft) O 90 ° 0 min 0,000 mm 0,0 UV-I 0 W/m² 9,9 °C 10,8 °C 0,0 km/h (0 Bft)
09.10.2018 23:18 10,8 °C 94 % 1019,7 hPa 0,0 mm 0,0 km/h (0 Bft) O 90 ° 0 min 0,000 mm 0,0 UV-I 0 W/m² 9,9 °C 10,8 °C 0,0 km/h (0 Bft)
09.10.2018 23:19 10,9 °C 94 % 1019,7 hPa 0,0 mm 0,0 km/h (0 Bft) O 90 ° 0 min 0,000 mm 0,0 UV-I 0 W/m² 10,0 °C 10,9 °C 0,0 km/h (0 Bft)
09.10.2018 23:20 10,9 °C 94 % 1019,6 hPa 0,0 mm 0,0 km/h (0 Bft) O 90 ° 0 min 0,000 mm 0,0 UV-I 0 W/m² 10,0 °C 10,9 °C 0,0 km/h (0 Bft)
09.10.2018 23:21 10,9 °C 94 % 1019,7 hPa 0,0 mm 0,0 km/h (0 Bft) O 90 ° 0 min 0,000 mm 0,0 UV-I 0 W/m² 10,0 °C 10,9 °C 0,0 km/h (0 Bft)
09.10.2018 23:22 10,9 °C 94 % 1019,6 hPa 0,0 mm 0,0 km/h (0 Bft) O 90 ° 0 min 0,000 mm 0,0 UV-I 0 W/m² 10,0 °C 10,9 °C 0,0 km/h (0 Bft)
09.10.2018 23:23 10,9 °C 94 % 1019,6 hPa 0,0 mm 0,0 km/h (0 Bft) O 90 ° 0 min 0,000 mm 0,0 UV-I 0 W/m² 10,0 °C 10,9 °C 0,0 km/h (0 Bft)
09.10.2018 23:24 10,9 °C 94 % 1019,7 hPa 0,0 mm 0,0 km/h (0 Bft) O 90 ° 0 min 0,000 mm 0,0 UV-I 0 W/m² 10,0 °C 10,9 °C 0,0 km/h (0 Bft)
09.10.2018 23:25 10,9 °C 94 % 1019,7 hPa 0,0 mm 0,0 km/h (0 Bft) O 90 ° 0 min 0,000 mm 0,0 UV-I 0 W/m² 10,0 °C 10,9 °C 0,0 km/h (0 Bft)
09.10.2018 23:26 10,9 °C 94 % 1019,6 hPa 0,0 mm 0,0 km/h (0 Bft) O 90 ° 0 min 0,000 mm 0,0 UV-I 0 W/m² 10,0 °C 10,9 °C 0,0 km/h (0 Bft)
09.10.2018 23:27 10,9 °C 94 % 1019,6 hPa 0,0 mm 0,0 km/h (0 Bft) O 90 ° 0 min 0,000 mm 0,0 UV-I 0 W/m² 10,0 °C 10,9 °C 0,0 km/h (0 Bft)
09.10.2018 23:28 10,9 °C 94 % 1019,6 hPa 0,0 mm 0,0 km/h (0 Bft) O 90 ° 0 min 0,000 mm 0,0 UV-I 0 W/m² 10,0 °C 10,9 °C 0,0 km/h (0 Bft)
09.10.2018 23:29 10,9 °C 94 % 1019,6 hPa 0,0 mm 0,0 km/h (0 Bft) O 90 ° 0 min 0,000 mm 0,0 UV-I 0 W/m² 10,0 °C 10,9 °C 0,0 km/h (0 Bft)
09.10.2018 23:30 10,9 °C 94 % 1019,6 hPa 0,0 mm 0,0 km/h (0 Bft) O 90 ° 0 min 0,000 mm 0,0 UV-I 0 W/m² 10,0 °C 10,9 °C 0,0 km/h (0 Bft)
09.10.2018 23:31 10,9 °C 94 % 1019,6 hPa 0,0 mm 0,0 km/h (0 Bft) O 90 ° 0 min 0,000 mm 0,0 UV-I 0 W/m² 10,0 °C 10,9 °C 0,0 km/h (0 Bft)
09.10.2018 23:32 10,9 °C 94 % 1019,6 hPa 0,0 mm 0,0 km/h (0 Bft) O 90 ° 0 min 0,000 mm 0,0 UV-I 0 W/m² 10,0 °C 10,9 °C 0,0 km/h (0 Bft)
09.10.2018 23:33 11,0 °C 94 % 1019,6 hPa 0,0 mm 0,0 km/h (0 Bft) O 90 ° 0 min 0,000 mm 0,0 UV-I 0 W/m² 10,1 °C 11,0 °C 0,0 km/h (0 Bft)
09.10.2018 23:34 11,1 °C 94 % 1019,6 hPa 0,0 mm 0,0 km/h (0 Bft) O 90 ° 0 min 0,000 mm 0,0 UV-I 0 W/m² 10,2 °C 11,1 °C 0,0 km/h (0 Bft)
09.10.2018 23:35 11,1 °C 94 % 1019,7 hPa 0,0 mm 0,0 km/h (0 Bft) O 90 ° 0 min 0,000 mm 0,0 UV-I 0 W/m² 10,2 °C 11,1 °C 0,0 km/h (0 Bft)
09.10.2018 23:36 11,2 °C 94 % 1019,6 hPa 0,0 mm 0,0 km/h (0 Bft) O 90 ° 0 min 0,000 mm 0,0 UV-I 0 W/m² 10,3 °C 11,2 °C 0,0 km/h (0 Bft)
09.10.2018 23:37 11,2 °C 95 % 1019,6 hPa 0,0 mm 0,0 km/h (0 Bft) O 90 ° 0 min 0,000 mm 0,0 UV-I 0 W/m² 10,4 °C 11,2 °C 0,0 km/h (0 Bft)
09.10.2018 23:38 11,3 °C 95 % 1019,6 hPa 0,0 mm 0,0 km/h (0 Bft) O 90 ° 0 min 0,000 mm 0,0 UV-I 0 W/m² 10,5 °C 11,3 °C 0,0 km/h (0 Bft)
09.10.2018 23:39 11,4 °C 95 % 1019,6 hPa 0,0 mm 0,0 km/h (0 Bft) O 90 ° 0 min 0,000 mm 0,0 UV-I 0 W/m² 10,6 °C 11,4 °C 0,0 km/h (0 Bft)
09.10.2018 23:40 11,4 °C 95 % 1019,6 hPa 0,0 mm 0,0 km/h (0 Bft) O 90 ° 0 min 0,000 mm 0,0 UV-I 0 W/m² 10,6 °C 11,4 °C 0,0 km/h (0 Bft)
09.10.2018 23:41 11,3 °C 95 % 1019,6 hPa 0,0 mm 0,0 km/h (0 Bft) O 90 ° 0 min 0,000 mm 0,0 UV-I 0 W/m² 10,5 °C 11,3 °C 0,0 km/h (0 Bft)
09.10.2018 23:42 11,3 °C 94 % 1019,6 hPa 0,0 mm 0,0 km/h (0 Bft) O 90 ° 0 min 0,000 mm 0,0 UV-I 0 W/m² 10,4 °C 11,3 °C 0,0 km/h (0 Bft)
09.10.2018 23:43 11,3 °C 95 % 1019,6 hPa 0,0 mm 0,0 km/h (0 Bft) O 90 ° 0 min 0,000 mm 0,0 UV-I 0 W/m² 10,5 °C 11,3 °C 0,0 km/h (0 Bft)
09.10.2018 23:44 11,3 °C 95 % 1019,6 hPa 0,0 mm 0,0 km/h (0 Bft) O 90 ° 0 min 0,000 mm 0,0 UV-I 0 W/m² 10,5 °C 11,3 °C 0,0 km/h (0 Bft)
09.10.2018 23:45 11,4 °C 95 % 1019,6 hPa 0,0 mm 0,0 km/h (0 Bft) O 90 ° 0 min 0,000 mm 0,0 UV-I 0 W/m² 10,6 °C 11,4 °C 0,0 km/h (0 Bft)
09.10.2018 23:46 11,4 °C 95 % 1019,6 hPa 0,0 mm 0,0 km/h (0 Bft) O 90 ° 0 min 0,000 mm 0,0 UV-I 0 W/m² 10,6 °C 11,4 °C 0,0 km/h (0 Bft)
09.10.2018 23:47 11,5 °C 95 % 1019,6 hPa 0,0 mm 0,0 km/h (0 Bft) O 90 ° 0 min 0,000 mm 0,0 UV-I 0 W/m² 10,7 °C 11,5 °C 0,0 km/h (0 Bft)
09.10.2018 23:48 11,5 °C 95 % 1019,6 hPa 0,0 mm 0,0 km/h (0 Bft) O 90 ° 0 min 0,000 mm 0,0 UV-I 0 W/m² 10,7 °C 11,5 °C 0,0 km/h (0 Bft)
09.10.2018 23:49 11,5 °C 94 % 1019,6 hPa 0,0 mm 0,0 km/h (0 Bft) O 90 ° 0 min 0,000 mm 0,0 UV-I 0 W/m² 10,6 °C 11,5 °C 0,0 km/h (0 Bft)
09.10.2018 23:50 11,6 °C 94 % 1019,6 hPa 0,0 mm 0,0 km/h (0 Bft) O 90 ° 0 min 0,000 mm 0,0 UV-I 0 W/m² 10,7 °C 11,6 °C 0,0 km/h (0 Bft)
09.10.2018 23:51 11,6 °C 94 % 1019,6 hPa 0,0 mm 0,0 km/h (0 Bft) O 90 ° 0 min 0,000 mm 0,0 UV-I 0 W/m² 10,7 °C 11,6 °C 0,0 km/h (0 Bft)
09.10.2018 23:52 11,6 °C 94 % 1019,6 hPa 0,0 mm 0,0 km/h (0 Bft) O 90 ° 0 min 0,000 mm 0,0 UV-I 0 W/m² 10,7 °C 11,6 °C 0,0 km/h (0 Bft)
09.10.2018 23:53 11,6 °C 94 % 1019,6 hPa 0,0 mm 0,0 km/h (0 Bft) O 90 ° 0 min 0,000 mm 0,0 UV-I 0 W/m² 10,7 °C 11,6 °C 0,0 km/h (0 Bft)
09.10.2018 23:54 11,6 °C 94 % 1019,6 hPa 0,0 mm 0,0 km/h (0 Bft) O 90 ° 0 min 0,000 mm 0,0 UV-I 0 W/m² 10,7 °C 11,6 °C 0,0 km/h (0 Bft)
09.10.2018 23:55 11,6 °C 94 % 1019,6 hPa 0,0 mm 0,0 km/h (0 Bft) O 90 ° 0 min 0,000 mm 0,0 UV-I 0 W/m² 10,7 °C 11,6 °C 0,0 km/h (0 Bft)
09.10.2018 23:56 11,7 °C 94 % 1019,6 hPa 0,0 mm 0,0 km/h (0 Bft) O 90 ° 0 min 0,000 mm 0,0 UV-I 0 W/m² 10,8 °C 11,7 °C 0,0 km/h (0 Bft)
09.10.2018 23:57 11,6 °C 94 % 1019,6 hPa 0,0 mm 0,0 km/h (0 Bft) O 90 ° 0 min 0,000 mm 0,0 UV-I 0 W/m² 10,7 °C 11,6 °C 0,0 km/h (0 Bft)
09.10.2018 23:58 11,6 °C 94 % 1019,6 hPa 0,0 mm 0,0 km/h (0 Bft) O 90 ° 0 min 0,000 mm 0,0 UV-I 0 W/m² 10,7 °C 11,6 °C 0,0 km/h (0 Bft)
09.10.2018 23:59 11,6 °C 94 % 1019,6 hPa 0,0 mm 0,0 km/h (0 Bft) O 90 ° 0 min 0,000 mm 0,0 UV-I 0 W/m² 10,7 °C 11,6 °C 0,0 km/h (0 Bft)
_ Min-Zeit 22:01 13:21 16:57 - 23:59 - - - - - - 22:01 22:01 23:59
Minimum _ 8,9 °C 77 % 1018,6 hPa - 0,0 km/h (0 Bft) - - - - - - 8,0 °C 8,9 °C 0,0 km/h (0 Bft)
_ Max-Zeit 15:38 23:48 11:34 23:59 13:13 - - 13:56 14:01 13:08 12:38 15:37 15:38 14:13
Maximum _ 16,9 °C 95 % 1020,6 hPa 0,0 mm 10,9 km/h
N (2 Bft)
- - 1 min 0,304 mm 3,9 UV-I 650 W/m² 13,6 °C 16,9 °C 17,7 km/h
NO (3 Bft)
Durchschnitt _ 12,7 °C 89 % 1019,8 hPa #0,0 mm 1,4 km/h (1 Bft) NO - #26 min. #1,397 mm 2,0 UV-I 106 W/m² 10,9 °C 12,7 °C 2,6 km/h (1 Bft)